[[{"header":{"parameterUnit":"m.s-1","parameterCategory":1,"la1":30.6,"la2":29.2853,"lo1":-89.7004,"lo2":-87.6739,"dy":0.0162,"dx":0.0183,"nx":112,"ny":82,"refTime":"2023-07-16T12:00:00:Z","depth":0,"parameterNumber":2,"parameterNumberName":"U-component_of_WINDS"},"data":[0.0,0.0,0.0,0.0,0.0,0.0,0.0,0.0,0.0,0.0,0.0,0.0,0.0,0.0,0.0,0.0,0.0,0.0,0.0,0.0,0.0,0.0,0.0,0.0,0.0,0.0,0.0,0.0,0.0,0.0,0.0,0.0,0.0,0.0,0.0,0.0,0.0,0.0,0.0,0.0,0.0,0.0,0.0,0.0,0.0,0.0,0.0,0.0,0.0,0.0,0.0,0.0,0.0,0.0,0.0,0.0,0.0,0.0,0.0,0.0,0.0,0.0,0.0,0.0,0.0,0.0,0.0,0.0,0.0,0.0,0.0,0.0,0.0,0.0,0.0,0.0,0.0,0.0,0.0,0.0,0.0,0.0,0.0,0.0,0.0,0.0,0.0,0.0,0.0,0.0,-4.9482,-5.3299,-5.8387,-6.1422,-6.123,-6.1484,-5.8716,-5.1825,0.0,0.0,0.0,0.0,0.0,0.0,0.0,0.0,0.0,0.0,0.0,0.0,0.0,0.0,0.0,0.0,0.0,0.0,0.0,0.0,0.0,0.0,0.0,0.0,0.0,0.0,0.0,0.0,0.0,0.0,0.0,0.0,0.0,0.0,0.0,0.0,0.0,0.0,0.0,0.0,0.0,0.0,0.0,0.0,0.0,0.0,0.0,0.0,0.0,0.0,0.0,0.0,0.0,0.0,0.0,0.0,0.0,0.0,0.0,0.0,0.0,0.0,0.0,0.0,0.0,0.0,0.0,0.0,0.0,0.0,0.0,0.0,0.0,0.0,0.0,0.0,0.0,0.0,0.0,0.0,0.0,0.0,0.0,0.0,0.0,0.0,0.0,0.0,0.0,0.0,0.0,0.0,0.0,0.0,0.0,0.0,0.0,0.0,0.0,0.0,0.0,0.0,0.0,0.0,-5.1717,-5.7593,-5.9703,-6.0824,-6.1174,-5.9385,-5.6302,-5.1695,0.0,0.0,0.0,0.0,0.0,0.0,0.0,0.0,0.0,0.0,0.0,0.0,0.0,0.0,0.0,0.0,0.0,0.0,0.0,0.0,0.0,0.0,0.0,0.0,0.0,0.0,0.0,0.0,0.0,0.0,0.0,0.0,0.0,0.0,0.0,0.0,0.0,0.0,0.0,0.0,0.0,0.0,0.0,0.0,0.0,0.0,0.0,0.0,0.0,0.0,0.0,0.0,0.0,0.0,0.0,0.0,0.0,0.0,0.0,0.0,0.0,0.0,0.0,0.0,0.0,0.0,0.0,0.0,0.0,0.0,0.0,0.0,0.0,0.0,0.0,0.0,0.0,0.0,0.0,0.0,0.0,0.0,0.0,0.0,0.0,0.0,0.0,0.0,0.0,0.0,0.0,0.0,0.0,0.0,0.0,0.0,0.0,0.0,0.0,0.0,0.0,0.0,0.0,-4.9471,-5.268,-5.7339,-5.8838,-5.9611,-5.9834,-5.8011,-5.526,-5.1528,-5.0343,0.0,0.0,0.0,0.0,0.0,0.0,0.0,0.0,0.0,0.0,0.0,0.0,0.0,0.0,0.0,0.0,0.0,0.0,0.0,0.0,0.0,0.0,0.0,0.0,0.0,0.0,0.0,0.0,0.0,0.0,0.0,0.0,0.0,0.0,0.0,0.0,0.0,0.0,0.0,0.0,0.0,0.0,0.0,0.0,0.0,0.0,0.0,0.0,0.0,0.0,0.0,0.0,0.0,0.0,0.0,0.0,0.0,0.0,0.0,0.0,0.0,0.0,0.0,0.0,0.0,0.0,0.0,0.0,0.0,0.0,0.0,0.0,0.0,0.0,0.0,0.0,0.0,0.0,0.0,0.0,0.0,0.0,0.0,0.0,0.0,0.0,0.0,0.0,0.0,0.0,0.0,0.0,0.0,0.0,0.0,0.0,0.0,0.0,0.0,0.0,0.0,0.0,-5.0507,-5.2796,-5.5975,-5.741,-5.8141,-5.8141,-5.6469,-5.4146,-5.1121,-4.84,0.0,0.0,0.0,0.0,0.0,0.0,0.0,0.0,0.0,0.0,0.0,0.0,0.0,0.0,0.0,0.0,0.0,0.0,0.0,0.0,0.0,0.0,0.0,0.0,0.0,0.0,0.0,0.0,0.0,0.0,0.0,0.0,0.0,0.0,0.0,0.0,0.0,0.0,0.0,0.0,0.0,0.0,0.0,0.0,0.0,0.0,0.0,0.0,0.0,0.0,0.0,0.0,0.0,0.0,0.0,0.0,0.0,0.0,0.0,0.0,0.0,0.0,0.0,0.0,0.0,0.0,0.0,0.0,0.0,0.0,0.0,0.0,0.0,0.0,0.0,0.0,0.0,0.0,0.0,0.0,0.0,0.0,0.0,0.0,0.0,0.0,0.0,0.0,0.0,0.0,0.0,0.0,0.0,0.0,0.0,0.0,0.0,0.0,0.0,0.0,0.0,0.0,-4.9656,-5.2024,-5.4819,-5.5931,-5.6469,-5.6469,-5.4258,-5.2067,-5.0213,-4.6995,0.0,0.0,0.0,0.0,0.0,0.0,0.0,0.0,0.0,0.0,0.0,0.0,0.0,0.0,0.0,0.0,0.0,0.0,0.0,0.0,0.0,0.0,0.0,0.0,0.0,0.0,0.0,0.0,0.0,0.0,0.0,0.0,0.0,0.0,0.0,0.0,0.0,0.0,0.0,0.0,0.0,0.0,0.0,0.0,0.0,0.0,0.0,0.0,0.0,0.0,0.0,0.0,0.0,0.0,0.0,0.0,0.0,0.0,0.0,0.0,0.0,0.0,0.0,0.0,0.0,0.0,0.0,0.0,0.0,0.0,0.0,0.0,0.0,0.0,0.0,0.0,0.0,0.0,0.0,0.0,0.0,0.0,0.0,0.0,0.0,0.0,0.0,0.0,0.0,0.0,0.0,0.0,0.0,0.0,0.0,0.0,0.0,0.0,0.0,0.0,0.0,0.0,-4.9017,-5.144,0.0,-5.5484,-5.6302,-5.6302,-5.3978,-5.1788,-5.0047,0.0,0.0,0.0,0.0,0.0,0.0,0.0,0.0,0.0,0.0,0.0,0.0,0.0,0.0,0.0,0.0,0.0,0.0,0.0,0.0,0.0,0.0,0.0,0.0,0.0,0.0,0.0,0.0,0.0,0.0,0.0,0.0,0.0,0.0,0.0,0.0,0.0,0.0,0.0,0.0,0.0,0.0,0.0,0.0,0.0,0.0,0.0,0.0,0.0,0.0,0.0,0.0,0.0,0.0,0.0,0.0,0.0,0.0,0.0,0.0,0.0,0.0,0.0,0.0,0.0,0.0,0.0,0.0,0.0,0.0,0.0,0.0,0.0,0.0,0.0,0.0,0.0,0.0,0.0,0.0,0.0,0.0,0.0,0.0,0.0,0.0,0.0,0.0,0.0,0.0,0.0,0.0,0.0,0.0,0.0,0.0,0.0,0.0,0.0,0.0,0.0,0.0,-4.5603,-4.8,-5.0351,0.0,-5.3905,-5.4611,-5.4331,-5.2252,-5.0287,-4.879,0.0,0.0,0.0,0.0,0.0,0.0,0.0,0.0,0.0,0.0,0.0,0.0,0.0,0.0,0.0,0.0,0.0,0.0,0.0,0.0,0.0,0.0,0.0,0.0,0.0,0.0,0.0,0.0,0.0,0.0,0.0,0.0,0.0,0.0,0.0,0.0,0.0,0.0,0.0,0.0,0.0,0.0,0.0,0.0,0.0,0.0,0.0,0.0,0.0,0.0,0.0,0.0,0.0,0.0,0.0,0.0,0.0,0.0,0.0,0.0,0.0,0.0,0.0,0.0,0.0,0.0,0.0,0.0,0.0,0.0,0.0,0.0,0.0,0.0,0.0,0.0,0.0,0.0,0.0,0.0,0.0,0.0,0.0,0.0,0.0,0.0,0.0,0.0,0.0,0.0,0.0,0.0,0.0,0.0,0.0,0.0,0.0,0.0,0.0,0.0,0.0,0.0,-4.42,-4.6555,-4.864,-5.004,-5.0896,-5.1009,-5.0083,-4.8509,-4.7143,0.0,0.0,0.0,0.0,0.0,0.0,0.0,0.0,0.0,0.0,0.0,0.0,0.0,0.0,0.0,0.0,0.0,0.0,0.0,0.0,0.0,0.0,0.0,0.0,0.0,0.0,0.0,0.0,0.0,0.0,0.0,0.0,0.0,0.0,0.0,0.0,0.0,0.0,0.0,0.0,0.0,0.0,0.0,0.0,0.0,0.0,0.0,0.0,0.0,0.0,0.0,0.0,0.0,0.0,0.0,0.0,0.0,0.0,0.0,0.0,0.0,0.0,0.0,0.0,0.0,0.0,0.0,0.0,0.0,0.0,0.0,0.0,0.0,0.0,0.0,0.0,0.0,0.0,0.0,0.0,0.0,0.0,0.0,0.0,0.0,0.0,0.0,0.0,0.0,0.0,0.0,0.0,0.0,0.0,0.0,0.0,0.0,0.0,0.0,0.0,0.0,0.0,0.0,-4.3148,-4.5932,-4.8191,-4.9169,-4.997,-5.0305,-5.0027,-4.7348,-4.5562,-4.527,0.0,0.0,0.0,0.0,0.0,0.0,0.0,0.0,0.0,0.0,0.0,0.0,0.0,0.0,0.0,0.0,0.0,0.0,0.0,0.0,0.0,0.0,0.0,0.0,0.0,0.0,0.0,0.0,0.0,0.0,0.0,0.0,0.0,0.0,0.0,0.0,0.0,0.0,0.0,0.0,0.0,0.0,0.0,0.0,0.0,0.0,0.0,0.0,0.0,0.0,0.0,0.0,0.0,0.0,0.0,0.0,0.0,0.0,0.0,0.0,0.0,0.0,0.0,0.0,0.0,0.0,0.0,0.0,0.0,0.0,0.0,0.0,0.0,0.0,0.0,0.0,0.0,0.0,0.0,0.0,0.0,0.0,0.0,0.0,0.0,0.0,0.0,0.0,0.0,0.0,0.0,0.0,0.0,0.0,0.0,0.0,0.0,0.0,0.0,0.0,0.0,0.0,-4.2356,-4.4659,-4.6531,-4.7367,-4.8098,-4.838,-4.803,-4.6096,-4.4591,-4.3913,0.0,0.0,0.0,0.0,0.0,0.0,0.0,0.0,0.0,0.0,0.0,0.0,0.0,0.0,0.0,0.0,0.0,0.0,0.0,0.0,0.0,0.0,0.0,0.0,0.0,0.0,0.0,0.0,0.0,0.0,0.0,0.0,0.0,0.0,0.0,0.0,0.0,0.0,0.0,0.0,0.0,0.0,0.0,0.0,0.0,0.0,0.0,0.0,0.0,0.0,0.0,0.0,0.0,0.0,0.0,0.0,0.0,0.0,0.0,0.0,0.0,0.0,0.0,0.0,0.0,0.0,0.0,0.0,0.0,0.0,0.0,0.0,0.0,0.0,0.0,0.0,0.0,0.0,0.0,0.0,0.0,0.0,0.0,0.0,0.0,0.0,0.0,0.0,0.0,0.0,0.0,0.0,0.0,0.0,0.0,0.0,0.0,0.0,0.0,0.0,0.0,0.0,-4.1737,-4.311,-4.4323,-4.5194,-4.5819,-4.5848,-4.506,-4.4791,-4.3951,-4.2286,0.0,0.0,0.0,0.0,0.0,0.0,0.0,0.0,0.0,0.0,0.0,0.0,0.0,0.0,0.0,0.0,0.0,0.0,0.0,0.0,0.0,0.0,0.0,0.0,0.0,0.0,0.0,0.0,0.0,0.0,0.0,0.0,0.0,0.0,0.0,0.0,0.0,0.0,0.0,0.0,0.0,0.0,0.0,0.0,0.0,0.0,0.0,0.0,0.0,0.0,0.0,0.0,0.0,0.0,0.0,0.0,0.0,0.0,0.0,0.0,-4.8867,0.0,0.0,0.0,0.0,0.0,0.0,0.0,0.0,0.0,0.0,0.0,0.0,0.0,0.0,0.0,0.0,0.0,0.0,0.0,0.0,0.0,0.0,0.0,0.0,0.0,0.0,0.0,0.0,0.0,0.0,0.0,0.0,0.0,0.0,0.0,0.0,0.0,0.0,0.0,0.0,0.0,-4.1547,-4.2987,-4.4244,-4.506,-4.5169,-4.5122,-4.4939,-4.3657,-4.2431,-4.1423,-3.9994,0.0,0.0,0.0,0.0,0.0,0.0,0.0,0.0,0.0,0.0,0.0,0.0,0.0,0.0,0.0,0.0,0.0,0.0,0.0,0.0,0.0,0.0,0.0,0.0,0.0,0.0,0.0,0.0,0.0,0.0,0.0,0.0,0.0,0.0,0.0,0.0,0.0,0.0,0.0,0.0,0.0,0.0,0.0,0.0,0.0,0.0,0.0,0.0,0.0,0.0,0.0,0.0,0.0,0.0,0.0,0.0,0.0,0.0,0.0,0.0,-4.9941,0.0,0.0,0.0,0.0,0.0,0.0,0.0,0.0,0.0,0.0,0.0,0.0,0.0,0.0,0.0,0.0,0.0,0.0,0.0,0.0,0.0,0.0,0.0,0.0,0.0,0.0,0.0,0.0,0.0,0.0,0.0,0.0,0.0,0.0,0.0,0.0,0.0,0.0,0.0,0.0,-4.1441,-4.2303,-4.3256,-4.4443,-4.4447,-4.4383,-4.4383,-4.3454,-4.2378,-4.1168,-4.0306,0.0,0.0,0.0,0.0,0.0,0.0,0.0,0.0,0.0,0.0,0.0,0.0,0.0,0.0,0.0,0.0,0.0,0.0,0.0,0.0,0.0,0.0,0.0,0.0,0.0,0.0,0.0,0.0,0.0,0.0,0.0,0.0,0.0,0.0,0.0,0.0,0.0,0.0,0.0,0.0,0.0,0.0,0.0,0.0,0.0,0.0,0.0,0.0,0.0,0.0,0.0,0.0,0.0,-5.6973,-5.7949,-5.7969,-5.8691,-5.8711,-5.8066,-5.6328,-5.4062,-5.1562,0.0,0.0,0.0,0.0,0.0,0.0,0.0,0.0,0.0,0.0,0.0,0.0,0.0,0.0,0.0,0.0,0.0,0.0,0.0,0.0,0.0,0.0,0.0,0.0,0.0,-4.5594,-4.5594,0.0,0.0,0.0,0.0,0.0,0.0,0.0,0.0,0.0,0.0,0.0,0.0,-4.1491,-4.1731,-4.234,-4.3809,-4.3851,-4.3753,-4.3754,-4.3601,-4.28,-4.1187,-4.0967,-3.9937,0.0,0.0,0.0,0.0,0.0,0.0,0.0,0.0,0.0,0.0,0.0,0.0,0.0,0.0,0.0,0.0,0.0,0.0,0.0,0.0,0.0,0.0,0.0,0.0,0.0,0.0,0.0,0.0,0.0,0.0,0.0,0.0,-4.9453,-5.0205,0.0,0.0,0.0,0.0,0.0,0.0,0.0,0.0,0.0,0.0,0.0,0.0,0.0,-5.4277,-5.623,-5.834,-5.9082,-5.8555,-6.1758,-6.3281,-6.3281,-6.3398,-6.3808,-6.4316,-6.2578,0.0,-5.2461,-5.1601,0.0,0.0,0.0,0.0,0.0,0.0,0.0,0.0,0.0,0.0,0.0,0.0,0.0,0.0,0.0,0.0,0.0,0.0,0.0,0.0,0.0,0.0,-4.5594,-4.5594,-4.5594,-4.5594,0.0,-4.4451,-4.3162,-4.2297,0.0,0.0,0.0,0.0,0.0,0.0,0.0,0.0,-4.1839,-4.2269,-4.2881,-4.3744,-4.3719,-4.36,-4.3549,-4.3515,-4.28,-4.1187,-4.0451,-3.9606,-3.8579,-3.7202,0.0,0.0,0.0,0.0,0.0,0.0,0.0,0.0,0.0,0.0,0.0,0.0,0.0,0.0,0.0,0.0,0.0,0.0,0.0,0.0,0.0,0.0,0.0,0.0,0.0,0.0,0.0,0.0,0.0,-4.815,-4.9401,-4.9305,-4.94,-4.8983,0.0,0.0,0.0,0.0,0.0,0.0,0.0,0.0,0.0,-5.6751,-5.7331,-5.8671,-6.0918,-6.2031,-6.2402,-6.2109,-6.457,-6.5762,-6.5762,-6.5762,-6.5703,-6.5508,-6.3769,-6.0723,-5.6894,-5.5078,-5.3027,-5.0878,0.0,0.0,0.0,0.0,0.0,-4.6702,-4.7193,-4.6995,0.0,0.0,0.0,0.0,0.0,0.0,0.0,0.0,0.0,0.0,0.0,0.0,0.0,-4.5594,-4.5594,-4.5594,-4.5594,-4.4643,-4.3662,0.0,-4.2527,-4.1728,-4.0997,0.0,0.0,0.0,0.0,-4.1531,-4.1801,-4.2445,-4.3113,-4.3728,-4.3667,-4.3582,-4.3548,-4.3109,-4.2323,-4.1168,-4.0341,-3.9331,-3.8065,-3.7364,-3.6942,0.0,0.0,0.0,0.0,0.0,0.0,0.0,0.0,0.0,0.0,0.0,0.0,0.0,0.0,0.0,0.0,0.0,0.0,0.0,0.0,0.0,0.0,0.0,0.0,0.0,0.0,0.0,0.0,-4.9221,-5.0221,-4.8913,-5.0519,-5.074,0.0,0.0,0.0,0.0,0.0,0.0,-5.4505,-5.5837,-5.8042,-6.1325,-6.1842,-6.3103,-6.5273,-6.5293,-6.5195,-6.498,-6.6289,-6.7012,-6.7226,-6.6777,-6.6348,-6.582,-6.3848,-6.2265,-6.0859,-5.8086,-5.5527,-5.3203,-5.1503,-4.9719,-4.8195,-4.8829,-4.8443,-4.7759,-4.8612,-4.8288,-4.7539,-4.7727,0.0,-4.5893,-4.5671,0.0,0.0,0.0,0.0,-4.5594,-4.5594,-4.5594,-4.5594,-4.5594,-4.5594,-4.5594,-4.5594,-4.5094,-4.4566,0.0,-4.3643,-4.2832,-4.1981,0.0,0.0,0.0,0.0,-4.2115,-4.2303,-4.298,-4.3557,-4.3841,-4.3781,-4.3699,-4.3582,-4.2797,-4.1989,-4.1261,-4.0449,-3.9378,-3.796,-3.7499,-3.7084,-3.6629,0.0,0.0,0.0,0.0,0.0,0.0,0.0,0.0,0.0,0.0,0.0,0.0,0.0,0.0,0.0,0.0,0.0,0.0,0.0,0.0,0.0,0.0,0.0,0.0,0.0,0.0,0.0,0.0,0.0,-5.0866,-5.4876,0.0,0.0,0.0,0.0,-5.3041,-5.4632,-5.6367,-5.8139,-5.9975,-6.2238,-6.4958,-6.6034,-6.7023,-6.7986,-6.8005,-6.7596,-6.6777,-6.6855,-6.7324,-6.8086,-6.6426,-6.6094,-6.6699,-6.4121,-6.2949,-6.2617,-5.9238,-5.6777,-5.5,-5.3241,-5.1541,-5.0056,-5.0033,-4.9503,-4.8935,-4.9747,-4.9406,-4.8736,-4.9444,-4.8382,-4.6682,-4.5845,-4.5594,0.0,0.0,-4.5594,-4.5594,-4.5594,-4.5594,-4.5594,-4.5594,-4.5594,-4.5594,-4.5594,-4.5575,-4.5287,0.0,-4.3643,-4.3085,-4.3019,0.0,-4.3818,-4.3041,-4.4048,-4.4636,-4.389,-4.4271,-4.4476,-4.4121,-4.4094,-4.3923,-4.3531,-4.2763,-4.2069,-4.1516,-4.0711,-3.989,-3.9036,-3.7541,-3.6956,-3.7419,-3.5073,0.0,0.0,0.0,0.0,0.0,0.0,0.0,0.0,0.0,0.0,0.0,0.0,0.0,0.0,0.0,0.0,0.0,0.0,0.0,0.0,0.0,0.0,0.0,0.0,0.0,0.0,0.0,0.0,-5.4733,-5.73,0.0,-5.5821,-5.5128,-5.5523,-5.717,-5.8393,-6.0283,-6.3102,-6.4513,-6.6217,-6.8384,-6.8919,-6.9096,-6.8977,-6.8961,-6.8279,-6.6893,-6.6894,-6.6777,-6.6484,-6.5293,-6.4629,-6.4316,-6.2812,-6.1855,-6.123,-6.0019,-5.8515,-5.6855,-5.5664,-5.3828,-5.1816,-5.1777,-5.1248,-5.0544,-5.0835,-5.0328,-4.939,-4.8428,-4.7249,-4.6125,-4.5816,-4.5668,-4.5594,-4.5594,-4.5594,-4.5594,-4.5594,-4.5594,-4.5594,-4.5594,-4.5594,-4.5594,-4.5594,-4.5594,-4.5518,-4.521,-4.4451,-4.3874,-4.3874,-4.3682,-4.3431,-4.3143,-4.3951,-4.4393,-4.3895,-4.4448,-4.477,-4.4471,-4.4369,-4.4079,-4.3364,-4.2518,-4.1507,-4.0232,-3.938,-3.8512,-3.7527,-3.6445,-3.5869,-3.5899,-3.4504,-3.3935,0.0,0.0,0.0,0.0,0.0,0.0,0.0,0.0,0.0,0.0,0.0,0.0,0.0,0.0,0.0,0.0,0.0,0.0,0.0,0.0,0.0,0.0,0.0,0.0,0.0,0.0,-5.6607,-5.6579,-5.9819,-6.1281,-5.9338,-5.9146,-5.9838,-6.1531,-6.2724,-6.4474,-6.7051,-6.8143,-6.9285,-7.0608,-7.0762,-7.0387,-6.9419,-6.9409,-6.8552,-6.6892,-6.6894,-6.6445,-6.5566,-6.4707,-6.3828,-6.2949,-6.207,-6.1367,-6.082,-6.0527,-5.959,-5.8242,-5.7383,-5.5449,-5.3144,-5.3144,-5.2402,-5.1366,-5.1092,-5.0567,-4.9708,-4.7852,-4.6609,-4.5829,-4.5801,-4.5734,-4.5651,-4.5612,-4.5594,-4.5594,-4.5594,-4.5594,-4.5594,-4.5594,-4.5594,-4.5594,-4.5594,-4.5594,-4.5594,-4.5594,-4.5133,-4.4739,-4.4739,-4.4297,-4.3932,-4.3932,-4.4378,-4.4623,-4.4401,-4.4817,-4.5041,-4.4757,-4.4701,-4.4266,-4.3275,-4.2592,-4.144,-3.965,-3.8951,-3.8034,-3.6795,-3.623,-3.5775,-3.5459,-3.4619,-3.4082,-3.3807,0.0,0.0,0.0,0.0,0.0,0.0,0.0,0.0,0.0,0.0,0.0,0.0,0.0,0.0,0.0,0.0,0.0,0.0,0.0,0.0,0.0,0.0,0.0,-4.9798,-5.6126,-5.9646,-5.6434,-6.2608,-6.5532,-6.1473,-6.4051,-6.5994,-6.6051,-6.7552,-6.884,-6.9725,-7.0691,-7.1289,-7.1492,-7.162,-7.0942,-6.9408,-6.9406,-6.8552,-6.6852,-6.6855,-6.6387,-6.5488,-6.4648,-6.3789,-6.291,-6.207,-6.168,-6.1562,-6.0703,-5.9863,-5.9043,-5.8223,-5.6328,-5.4043,-5.4004,-5.2891,-5.1289,-5.0487,-5.0095,-4.9685,-4.7963,-4.673,-4.5889,-4.5815,-4.5807,-4.5771,-4.5646,-4.5594,-4.5594,-4.5594,-4.5594,-4.5594,-4.5594,-4.5594,-4.5594,-4.5594,-4.5594,-4.5594,-4.5594,-4.5594,-4.5594,-4.5594,-4.5594,-4.5594,-4.5594,-4.5531,0.0,-4.5504,-4.5438,-4.5312,-4.503,-4.5007,-4.45,-4.3282,-4.2913,-4.1887,-3.9856,-3.946,-3.8607,-3.6998,-3.6941,-3.6708,-3.6225,-3.5389,-3.4582,-3.3807,0.0,0.0,0.0,0.0,0.0,0.0,0.0,0.0,0.0,0.0,0.0,0.0,0.0,0.0,0.0,0.0,0.0,0.0,0.0,0.0,0.0,0.0,-5.5285,-5.5788,-5.9242,-6.2312,-6.3782,-6.6378,-6.784,-6.7301,-6.7532,-6.8225,-6.9436,-6.9417,-6.9975,-7.1437,-7.119,-7.1065,-7.1279,-7.1453,-7.0797,-6.9196,-6.9323,-6.8232,-6.5962,-6.5955,-6.5175,-6.371,-6.3476,-6.2871,-6.2031,-6.1797,-6.1015,-5.9863,-5.9629,-5.8652,-5.7344,-5.7754,-5.6699,-5.4863,-5.4238,-5.2891,-5.1289,-5.0488,-4.9763,-4.901,-4.7912,-4.686,-4.6014,-4.5914,-4.5848,-4.5771,-4.5646,-4.5594,-4.5594,-4.5594,-4.5594,-4.5594,-4.5594,-4.5594,-4.5594,-4.5594,-4.5594,-4.5594,-4.5594,-4.5594,-4.5594,-4.5594,-4.5594,-4.5594,-4.5594,-4.5577,0.0,-4.5577,-4.5559,-4.5419,-4.5096,-4.503,-4.4342,-4.2761,-4.1968,-4.0628,-3.8423,-3.7652,-3.6739,-3.552,-3.5289,-3.4974,-3.45,-3.4247,-3.4027,0.0,0.0,0.0,0.0,0.0,0.0,0.0,0.0,0.0,0.0,0.0,0.0,0.0,0.0,0.0,0.0,0.0,0.0,0.0,0.0,0.0,0.0,-5.6086,-5.9083,-6.1076,-6.3297,-6.543,-6.7417,-6.8706,-6.9648,-7.0148,-7.0071,-7.0244,-7.0841,-7.0802,-7.1014,-7.161,-7.1187,-7.0992,-7.1184,-7.1035,-7.0367,-6.9103,-6.894,-6.7934,-6.609,-6.5756,-6.4881,-6.3533,-6.3163,-6.2519,0.0,-6.1699,-6.0937,-5.9687,-5.9336,-5.8398,0.0,0.0,0.0,0.0,0.0,-5.2266,-5.123,-5.0058,-4.9316,-4.8709,-4.7455,-4.6658,-4.6145,-4.5954,-4.5875,-4.5815,-4.5643,-4.5594,-4.5594,-4.5594,-4.5594,-4.5594,-4.5594,-4.5594,-4.5594,-4.5594,-4.5594,-4.5594,-4.5594,0.0,0.0,-4.5133,-4.5364,-4.5594,-4.5594,-4.5594,-4.5594,-4.5594,-4.5594,-4.5541,-4.5332,-4.5263,-4.4524,-4.2772,-4.2349,0.0,0.0,0.0,-3.6796,-3.5457,-3.5151,0.0,0.0,0.0,-3.4239,0.0,0.0,0.0,0.0,-3.4027,-3.4045,0.0,0.0,0.0,0.0,0.0,0.0,0.0,0.0,0.0,0.0,0.0,0.0,0.0,0.0,0.0,0.0,-5.9339,-6.2174,-6.5542,-6.7491,-6.8597,-6.866,-6.9994,-7.0975,-7.1168,-7.1802,-7.1956,-7.1379,-7.186,-7.1898,-7.1225,0.0,0.0,0.0,0.0,-6.9694,-6.8945,-6.827,-6.7464,-6.6518,-6.5689,-6.4856,-6.398,-6.3201,-6.2421,-6.1699,-6.1699,-6.1152,-6.0215,-5.9492,-5.8515,-5.7305,-5.5762,-5.4687,-5.3789,-5.2031,-5.1348,0.0,0.0,0.0,0.0,-4.6831,-4.6299,-4.6243,-4.6009,-4.5915,-4.5856,-4.568,-4.5612,-4.5594,-4.5594,-4.5594,-4.5594,-4.5594,-4.5594,-4.5594,-4.5594,-4.5518,-4.546,-4.546,-4.5383,-4.5075,-4.4297,-4.4874,-4.546,-4.546,-4.5383,0.0,-4.5441,-4.546,-4.5451,-4.5396,0.0,0.0,-4.3004,-4.3202,-4.1833,-3.8084,-3.8194,-3.7647,-3.6045,-3.5738,-3.5506,-3.5268,-3.5256,-3.4777,-3.3807,-3.3807,-3.3807,-3.3807,-3.3807,-3.3807,0.0,0.0,0.0,0.0,0.0,0.0,0.0,0.0,0.0,0.0,0.0,0.0,0.0,0.0,0.0,-5.8937,-6.1845,-6.4704,-6.8112,-6.9486,-7.0198,-7.0306,-7.0665,-7.1456,-7.286,-7.2514,-7.2687,-7.388,-7.286,-7.2437,-7.2976,-7.1052,0.0,-6.9997,-6.945,-6.8746,-6.7906,-6.7337,-6.6284,-6.477,0.0,0.0,-6.2192,-6.2027,-6.1854,-6.1698,-6.1699,-6.084,-5.9414,-5.9258,-5.7441,-5.4726,-5.4375,-5.4141,-5.3789,-5.2031,-5.0996,-5.0293,-4.9258,-4.8437,-4.7676,-4.6639,-4.6304,-4.6274,-4.6111,-4.5985,0.0,-4.5794,-4.5684,-4.5594,-4.5594,-4.5594,-4.5594,-4.5594,-4.5594,-4.5594,-4.5594,-4.5056,-4.4547,-4.4547,-4.4028,-4.3528,-4.3355,-4.4008,-4.4547,-4.4547,-4.3989,-4.3816,-4.447,-4.4547,-4.4458,-4.418,-4.477,-4.4482,-4.273,-4.203,-4.0872,-3.8944,-3.7666,-3.6453,-3.5256,-3.5116,-3.4852,-3.4449,-3.4426,-3.4222,-3.3807,-3.3807,-3.3807,-3.3807,-3.3807,-3.3807,0.0,0.0,0.0,0.0,0.0,0.0,0.0,0.0,0.0,0.0,0.0,-5.0623,-5.2212,0.0,-5.749,-6.1621,-6.4057,-6.6346,-6.8896,-7.0037,-7.0651,-7.0733,-7.082,-7.1362,-7.2669,-7.2832,-7.3206,-7.4053,-7.3322,-7.2668,-7.2225,-7.061,-6.9494,-6.9071,-6.8457,-6.7758,-6.6959,-6.6347,-6.5465,-6.4299,-6.3412,-6.2771,-6.2342,-6.1902,-6.1693,-6.1678,-6.1249,-6.0351,-5.9121,-5.8262,-5.6621,-5.4609,-5.418,-5.3476,-5.2598,-5.1719,-5.1152,-5.0625,-4.9336,-4.8613,-4.8047,-4.6737,-4.6305,-4.6277,-4.6147,-4.6049,-4.5969,-4.5848,-4.5749,-4.5684,-4.562,-4.5594,-4.5594,-4.5594,-4.5267,-4.496,-4.496,-4.4297,-4.3701,-4.3701,-4.3374,-4.297,-4.2527,-4.2777,-4.3201,-4.3624,-4.3355,-4.3258,-4.3643,-4.3701,-4.3639,-4.3465,-4.3838,-4.3551,-4.2221,-4.0903,-3.9841,-3.9142,-3.7907,-3.6777,-3.5834,-3.5744,-3.5334,-3.458,-3.4537,-3.4367,-3.3998,-3.3998,-3.3934,-3.3807,-3.3807,-3.3807,0.0,0.0,0.0,0.0,0.0,0.0,0.0,-4.6929,-4.7736,-4.9389,-5.1306,-5.3417,-5.5853,-5.8213,-6.0852,-6.4142,-6.5948,-6.7515,-6.9196,-6.9814,-7.0221,-7.0605,-7.0867,-7.1425,-7.2462,-7.325,-7.3774,-7.3947,-7.3827,-7.3053,-7.1495,-7.0321,-6.9302,-6.8436,-6.7409,-6.6622,-6.6077,-6.5224,-6.456,-6.4045,-6.3164,-6.2759,-6.2729,-6.2028,-6.1608,-6.1382,-6.0368,-5.955,-5.8828,-5.7246,-5.6094,-5.5215,-5.4336,-5.3047,-5.1621,-5.1465,-5.1191,-5.0723,-4.9375,-4.8672,-4.8164,-4.6757,-4.6306,-4.628,-4.6165,-4.6131,-4.608,-4.5908,-4.5828,-4.5778,-4.566,-4.5486,-4.5344,-4.5344,-4.4682,-4.4066,-4.4066,-4.3412,-4.2854,-4.2854,-4.2701,-4.2374,-4.1681,-4.1546,-4.1835,-4.272,-4.2701,-4.2662,-4.2835,-4.2854,-4.2854,-4.2854,-4.3008,-4.2722,-4.1805,-4.0274,-3.9232,-3.8906,-3.8213,-3.7384,-3.6415,-3.6302,-3.584,-3.4927,-3.4898,-3.4682,-3.425,-3.4221,-3.4086,-3.3868,-3.3815,-3.3807,-4.3725,-4.336,-4.4163,-4.6827,-4.7101,-4.7833,0.0,-5.2651,-5.2691,-5.4433,-5.61,-5.7582,-5.8613,-6.1411,-6.4199,-6.612,-6.7171,-6.8356,-7.0037,-6.9078,-6.8754,-7.0244,-7.1229,-7.2429,-7.4078,-7.4386,-7.4796,-7.5584,-7.4971,-7.4168,-7.3264,-7.0975,-6.9302,-6.8436,-6.6251,-6.514,-6.5238,-6.379,-6.3101,-6.3125,-6.2267,-6.1857,-6.1837,-6.1733,-6.1289,-6.0451,-5.8862,-5.8124,-5.7969,-5.6992,-5.6094,-5.5215,-5.4336,-5.3418,-5.2461,-5.1699,-5.0469,-4.9141,-4.8965,-4.7891,-4.6562,-4.6367,-4.6308,-4.6306,-4.628,-4.6193,-4.6099,-4.6064,-4.5947,-4.58,-4.5786,-4.5113,-4.4451,-4.4451,-4.3835,-4.3239,-4.3239,-4.2566,-4.1942,-4.1942,-4.1316,-4.0766,-4.0669,-4.065,-4.0931,-4.1816,-4.1296,-4.1066,-4.1854,-4.1942,-4.1942,-4.1942,-4.2643,-4.2739,-4.1865,-4.0904,-3.9712,-3.8223,-3.7974,-3.7183,-3.5602,-3.5477,-3.528,-3.4916,-3.4889,-3.4753,-3.4464,-3.4286,-3.4185,-3.4148,-3.3908,-3.3807,-4.5621,-4.564,-4.6314,-4.7664,-4.8792,-5.0143,-5.2211,-5.3142,-5.4129,-5.608,-5.8375,-6.0379,-6.1447,-6.3842,-6.6044,0.0,-6.7668,-6.8489,-7.017,-6.8967,-6.8145,-6.8852,-6.9757,-7.1006,-7.2757,-7.2583,-7.2897,-7.4225,-7.3149,-7.2059,-7.1213,-6.9756,-6.834,-6.6994,-6.5457,-6.4546,-6.4228,-6.3162,-6.2463,-6.2114,-6.1841,-6.1698,-6.1679,-6.1178,-6.0212,-5.8913,-5.8199,-5.7616,-5.7129,-5.6758,-5.6094,-5.5215,-5.4336,-5.3476,-5.2598,-5.1719,-5.0664,-4.957,-4.9082,-4.8086,-4.6973,-4.6465,-4.6308,-4.6307,-4.6305,-4.6257,-4.6097,-4.5504,-4.5659,-4.5706,-4.4589,-4.4358,-4.4272,-4.3726,-4.297,-4.2335,-4.2335,-4.1662,-4.1046,-4.1046,-4.0746,-4.0496,-4.0496,-4.0496,-4.0631,-4.0989,-4.0727,-4.0631,-4.0989,-4.1046,-4.1046,-4.1046,-4.1373,-4.1239,-4.0412,-4.0015,-3.9284,-3.8084,-3.7943,-3.7383,-3.62,-3.609,-3.5771,-3.5144,-3.5141,-3.5,-3.4726,-3.4486,-3.4302,-3.4197,-3.3921,-3.3807,-4.6417,-4.6983,-4.7802,-4.8691,-5.0544,-5.2393,-5.3226,-5.429,-5.5782,-5.8135,-6.0234,-6.2015,-6.316,-6.5154,-6.6745,-6.7121,-6.7369,-6.8034,-6.9502,-6.8069,-6.7037,-6.7515,-6.7725,-6.8502,-7.0228,-7.0555,-7.1176,-7.2383,-7.1439,-7.0518,-6.9884,-6.8935,-6.784,-6.6628,-6.507,-6.4035,-6.3603,-6.2629,-6.1933,-6.149,-6.1631,-6.1698,-6.164,-6.0295,-5.9017,-5.784,-5.7378,-5.6951,-5.6601,-5.6601,-5.6094,-5.5215,-5.4336,-5.3476,-5.2578,-5.1465,-5.0547,-4.9726,-4.8848,-4.7969,-4.7148,-4.6504,-4.6308,-4.6307,-4.6307,-4.6129,-4.5792,-4.5055,-4.5106,-4.5062,-4.3659,-4.3537,-4.3613,-4.293,-4.2098,-4.145,-4.145,-4.095,-4.0496,-4.0496,-4.0496,-4.0496,-4.0496,-4.0496,-4.0496,-4.0496,-4.0496,-4.0496,-4.0496,-4.0496,-4.0496,-4.0496,-4.0496,-4.0169,-3.9381,-3.9304,-3.8834,-3.7719,-3.7598,-3.7191,-3.6373,-3.6278,-3.5948,-3.5308,-3.5297,-3.5207,-3.5015,-3.4736,-3.4508,-3.4309,-3.4049,-3.3868,-4.4909,-4.5924,-4.7283,-5.042,-5.2431,-5.4389,-5.7257,-5.7958,-5.8833,-6.1808,-6.2257,-6.2332,-6.3143,-6.4999,-6.6181,-6.548,-6.603,-6.6882,-6.784,-6.5868,-6.4917,-6.6541,-6.5318,-6.5012,0.0,-6.9138,-7.062,-7.0677,-7.0752,-7.0787,-7.0748,-6.9261,-6.8365,-6.8327,-6.5089,-6.3419,-6.3603,-6.2036,-6.1337,-6.149,-6.1631,-6.1698,-6.1601,-5.9046,-5.7842,-5.7716,-5.6084,-5.5835,-5.66,-5.6601,-5.6094,-5.5215,-5.4336,-5.3476,-5.25,-5.0859,-4.9687,-4.8808,-4.7949,-4.707,-4.6348,-4.6308,-4.6308,-4.6308,-4.6307,-4.5701,-4.5036,-4.4993,-4.4319,-4.3562,-4.3517,-4.2743,-4.197,-4.1944,-4.1224,-4.0535,-4.0535,-4.0516,-4.0496,-4.0496,-4.0496,-4.0496,-4.0496,-4.0496,-4.0496,-4.0496,-4.0496,-4.0496,-4.0496,-4.0496,-4.0496,-4.0496,-4.0496,-4.0169,-3.9381,-3.9304,-3.8565,-3.6846,-3.674,-3.6353,-3.5482,-3.5388,-3.5327,-3.5308,-3.5308,-3.5308,-3.53,-3.5024,-3.4784,-3.4572,-3.4321,-3.4049,-4.6184,-4.82,-5.0522,-5.4066,-5.5318,-5.631,-5.8684,-5.9215,-5.9603,-6.0935,-6.0285,-5.9618,-6.0215,-6.1378,-6.2376,-6.2673,-6.4397,-6.6202,-6.7626,-6.6701,-6.5662,-6.5108,-6.5012,0.0,0.0,0.0,0.0,-6.867,-6.7859,-6.7563,-6.8182,-6.7733,-6.7249,-6.6763,-6.4512,-6.3337,-6.3399,-6.1843,-6.1151,-6.1304,-6.1572,-6.1093,-5.9922,-5.846,-5.751,-5.6933,-5.5804,-5.546,-5.574,-5.5741,-5.5214,-5.4297,-5.2832,-5.2109,-5.1562,-4.9316,-4.8281,-4.8008,-4.7695,-4.7031,-4.6308,-4.6308,-4.6308,-4.6308,-4.6308,-4.5683,-4.4882,-4.4294,-4.3898,-4.3356,-4.2142,-4.1993,-4.1998,-4.1265,-4.0855,-4.0602,-4.0519,-4.0496,-4.0496,-4.0496,-4.0496,-4.0496,-4.0496,-4.0496,-4.0496,-4.0496,-4.0496,-4.0496,-4.0496,-4.0496,-4.0496,-4.0496,-4.0496,-4.0169,-3.9381,-3.9304,-3.8565,-3.6808,-3.6704,-3.6332,-3.5498,-3.4896,-3.4831,-3.5427,-3.4829,-3.4796,-3.5364,-3.5102,-3.4935,-3.487,-3.4582,-3.4318,-4.8402,-5.0882,-5.3449,-5.6383,-5.7471,-5.8104,-5.9309,-5.9575,-5.9639,-5.9813,-5.8564,-5.7421,-5.7396,-5.8148,-5.884,-5.9079,-6.1043,-6.3336,-6.5671,-6.5089,-6.4581,-6.5031,-6.5012,-6.4439,0.0,0.0,0.0,-6.5987,-6.5718,-6.5753,-6.637,-6.6507,-6.6358,-6.5878,-6.4212,-6.3166,-6.2878,-6.1628,-6.1087,-6.1304,-6.1209,-6.0274,-5.8616,-5.7758,-5.6922,-5.6089,-5.5215,-5.5008,-5.5289,-5.4958,-5.4315,-5.3418,-5.2305,-5.1504,-5.0742,-4.8789,-4.7871,-4.7558,-4.7246,-4.6777,-4.6308,-4.6308,-4.6308,-4.6308,-4.6308,-4.5469,-4.4414,-4.3867,-4.324,-4.2494,-4.1335,-4.141,-4.1591,-4.09,-4.0674,-4.0595,-4.0519,-4.0496,-4.0496,-4.0496,-4.0496,-4.0496,-4.0496,-4.0496,-4.0496,-4.0496,-4.0496,-4.0496,-4.0496,-4.0496,-4.0496,-4.0496,-4.0496,-4.0169,-3.9381,-3.9304,-3.8681,-3.7257,-3.6865,-3.6462,-3.5942,-3.5103,-3.4776,-3.5026,-3.4756,-3.4716,-3.4952,-3.5051,-3.5069,-3.4962,-3.4784,-3.4537,-5.1257,-5.3759,-5.5866,-5.7499,-5.8866,-5.9738,-5.9365,-5.9234,-5.9042,-5.8608,-5.7137,-5.5659,-5.475,-5.5337,-5.5727,-5.5038,-5.6477,-5.8912,-6.2414,-6.1624,-6.2188,-6.622,-6.5337,-6.4649,-6.5337,0.0,0.0,-6.2968,0.0,-6.5398,-6.5437,-6.5616,-6.5703,-6.5678,-6.409,-6.2878,-6.212,-6.1377,-6.1155,-6.1456,-6.0565,-5.933,-5.7833,-5.6936,-5.6118,-5.532,-5.4392,-5.4478,-5.5167,-5.4294,-5.3417,-5.2617,-5.2539,-5.1523,-5.0019,-4.9101,-4.8242,-4.7422,-4.6582,-4.6308,-4.6308,-4.6308,-4.6308,-4.6289,-4.625,-4.5058,-4.3691,-4.3652,-4.2401,-4.1108,-4.1108,-4.0964,-4.0805,-4.082,-4.0667,-4.0519,-4.0512,-4.0504,-4.0496,-4.0496,-4.0496,-4.0496,-4.0496,-4.0496,-4.0496,-4.0496,-4.0496,-4.0496,-4.0496,-4.0496,-4.0496,-4.0496,-4.0496,-4.0189,-3.9438,-3.9361,-3.8969,-3.8065,-3.7219,-3.6731,-3.6635,-3.5827,-3.5007,-3.4225,-3.493,-3.489,-3.4037,-3.4801,-3.5043,-3.4811,-3.4775,-3.4519,-5.2989,-5.5688,-5.8245,-6.0204,-6.0381,-6.0145,-6.0341,-5.9576,-5.8256,-5.6288,-5.4067,-5.204,-5.0542,-5.149,-5.2817,-5.385,-5.7571,0.0,-6.4049,-6.5267,-6.6049,-6.6488,-6.6796,-6.6541,-6.549,-6.5012,0.0,0.0,-6.3671,-6.3867,-6.4575,-6.4642,-6.4438,-6.3873,-6.2868,-6.2252,-6.2101,-6.1377,-6.1048,-6.1103,-5.9844,-5.9025,-5.8543,-5.6548,-5.5864,-5.6177,-5.4656,-5.4137,-5.4262,-5.3386,-5.2513,-5.1601,-5.0351,-4.9609,-4.9043,-4.7519,-4.6816,-4.6601,-4.6387,-4.6308,-4.6308,-4.6308,-4.6308,-4.6172,-4.5527,-4.457,-4.3555,-4.291,-4.1972,-4.1151,-4.1108,-4.1058,-4.1012,-4.0964,-4.0824,-4.0701,-4.0668,-4.0579,-4.0496,-4.0496,-4.0496,-4.0496,-4.0496,-4.0496,-4.0496,-4.0496,-4.0496,-4.0496,-4.0496,-4.0496,-4.0496,-4.0496,-4.0496,-4.0419,-4.0208,-4.0189,-3.9573,-3.8084,-3.7796,-3.7103,-3.5865,-3.4365,-3.3757,-3.4186,-3.3199,-3.2846,-3.3205,-3.3403,-3.3478,-3.3412,-3.3209,-3.2939,-5.6515,-5.8816,-6.0841,-6.1679,-6.1167,-6.0135,-5.8923,-5.7824,-5.6209,-5.329,-5.1016,-4.9235,-4.8287,-4.8894,-5.022,-5.2267,-5.5628,-5.9355,-6.3337,-6.4805,-6.6143,-6.7943,-6.8294,-6.8037,-6.7152,-6.6713,-6.6159,0.0,-6.4496,-6.3919,-6.3695,-6.4068,-6.3775,-6.2592,-6.2158,-6.1786,-6.1495,-6.1098,-6.0567,-5.9889,-5.8702,-5.7634,-5.6619,-5.5266,-5.4733,-5.483,0.0,-5.343,-5.336,-5.2482,-5.1632,-5.078,-4.9842,-4.9003,-4.8203,-4.7226,-4.6621,-4.6308,-4.6308,-4.6055,-4.5723,-4.5723,-4.5469,-4.5078,-4.457,-4.3828,-4.3027,-4.2539,-4.1797,-4.1152,-4.111,-4.1081,-4.1058,-4.1017,-4.0902,-4.0781,-4.0705,-4.0636,-4.0579,-4.0512,-4.0496,-4.0496,-4.0496,-4.0496,-4.0496,-4.0496,-4.0496,-4.0496,-4.0496,-4.0496,-4.0496,-4.0496,-4.0496,-4.0496,-4.0496,-4.0496,-3.9958,-3.8642,-3.82,-3.7411,-3.6077,-3.4372,-3.3526,-3.3622,-3.2718,-3.2269,-3.2327,-3.2712,-3.2891,-3.2851,-3.2694,-3.2493,-6.0359,-6.208,-6.3248,-6.2345,-6.138,-5.9787,-5.6486,-5.5139,-5.3594,-5.0107,-4.8338,-4.7321,-4.7112,-4.7245,-4.8268,-5.0927,-5.2873,-5.605,-6.182,-6.2843,-6.4771,-6.9548,-6.9544,-6.9175,-6.918,-6.8394,-6.7572,-6.677,-6.5796,-6.4554,-6.2987,-6.3676,-6.3317,-6.1595,-6.167,-6.1403,-6.0717,-6.0661,-5.9911,-5.846,-5.7367,-5.5841,-5.3933,-5.3716,-5.3351,-5.288,0.0,0.0,-5.2617,-5.1621,-5.0829,-5.0154,-4.9939,-4.8925,-4.7598,-4.7461,-4.6953,-4.6289,-4.6172,-4.5566,-4.4844,-4.4961,-4.4414,-4.3672,-4.3555,-4.3008,-4.2383,-4.2266,-4.1699,-4.1112,-4.1092,-4.1054,-4.1013,-4.1013,-4.0912,-4.081,-4.0757,-4.0724,-4.0662,-4.0557,-4.0512,-4.0496,-4.0496,-4.0496,-4.0496,-4.0496,-4.0496,-4.0496,-4.0496,-4.0496,-4.0496,-4.0496,-4.0496,-4.0496,-4.0496,-4.0496,-4.0112,-3.9188,-3.8411,-3.7565,-3.6577,-3.4911,-3.366,-3.291,-3.2679,-3.2199,-3.1437,-3.2205,-3.2538,-3.2459,-3.2445,-3.2332,-6.1479,-6.2993,-6.3984,-6.2662,-6.1069,-5.8921,-5.5602,-5.38,-5.1698,-4.7662,-4.7131,-4.698,-4.5596,-4.6468,-4.8439,-5.1679,-5.42,-5.7554,-6.2688,-6.4691,-6.6488,-6.8803,-6.9666,-6.979,-6.9101,-6.8362,0.0,0.0,0.0,-6.3962,-6.2949,-6.3045,-6.2381,-6.0767,-6.084,-6.0839,-6.0697,-6.0054,-5.9265,-5.8308,-5.6096,-5.4921,-5.4665,-5.3331,-5.3121,-5.3737,0.0,0.0,-5.2589,-5.0986,-5.0232,-4.9987,-4.8585,-4.7867,-4.7518,-4.6797,-4.6426,-4.6191,-4.5488,-4.4648,-4.4043,-4.4766,-4.4414,-4.3574,-4.2832,-4.2519,-4.2266,-4.1601,-4.1308,-4.1172,-4.1112,-4.109,-4.1086,-4.1082,-4.1029,-4.0955,-4.0945,-4.0811,-4.0687,-4.0668,-4.0586,-4.0496,-4.0496,-4.0496,-4.0496,-4.0496,-4.0496,-4.0496,-4.0496,-4.0496,-4.0496,-4.0496,-4.0496,-4.0496,-4.0496,-4.0496,-3.9861,-3.8315,-3.8084,-3.7315,-3.5769,-3.4045,-3.3045,-3.2891,-3.1538,-3.0769,-3.0603,-3.0763,-3.0803,-3.0733,-3.0557,-3.0464,-6.3122,-6.4451,-6.516,-6.3212,-6.0811,-5.7827,-5.3626,-5.1191,-4.8875,-4.5577,-4.5198,-4.5501,-4.5558,-4.6222,-4.7719,-5.0637,-5.2494,-5.5337,-6.0359,-6.2532,-6.471,-6.7762,-6.8607,-6.8958,-6.9008,-6.8327,-6.7381,-6.612,0.0,-6.4267,-6.2968,-6.207,-6.1034,-5.9813,-5.9907,-5.9561,-5.8678,-5.835,-5.7338,-5.5626,-5.4439,-5.3505,-5.2787,-5.2053,-5.202,-5.2525,-5.2164,0.0,-5.1316,-5.0926,-4.9994,-4.8753,-4.8365,-4.7688,-4.6873,-4.6443,-4.6015,-4.5566,-4.5156,-4.4121,-4.3086,-4.3516,-4.3086,-4.2324,-4.1894,-4.1777,-4.1699,-4.1308,-4.1191,-4.1191,-4.1152,-4.1132,-4.1092,-4.109,-4.1044,-4.0998,-4.0998,-4.0878,-4.0754,-4.0754,-4.0709,-4.0642,-4.0609,-4.0595,-4.0574,-4.0512,-4.0496,-4.0496,-4.0496,-4.0496,-4.0496,-4.0496,-4.0496,-4.0496,-4.0496,-4.0496,-3.9785,-3.8104,-3.8007,-3.7257,-3.5577,-3.4257,-3.3353,-3.291,-3.1698,-3.0846,-3.0404,-3.0404,-3.0379,-3.0348,-3.026,-3.0221,-6.4225,-6.5431,-6.5924,-6.3482,-6.0601,-5.7026,-5.1873,-4.914,-4.6866,-4.4004,-4.3701,-4.4364,-4.5672,-4.5918,-4.6733,-4.9248,-5.022,-5.2475,-5.7687,-5.9826,-6.2364,-6.6454,-6.7359,-6.7804,-6.8136,-6.7665,0.0,-6.4993,0.0,0.0,-6.2433,-6.0771,-5.9548,-5.8861,-5.8789,-5.8125,-5.6815,-5.656,-5.5346,-5.3203,-5.3203,-5.2483,-5.1165,-5.1204,-5.1314,-5.1456,-5.1205,0.0,0.0,-5.0457,-4.9407,-4.7635,-4.8087,-4.7451,-4.6305,-4.6302,-4.5758,-4.496,-4.4784,-4.3691,-4.2363,-4.2207,-4.1719,-4.1191,-4.1191,-4.1191,-4.1191,-4.1191,-4.1191,-4.1191,-4.1191,-4.1152,-4.1112,-4.1092,-4.1055,-4.1022,-4.102,-4.0922,-4.0846,-4.0846,-4.0829,-4.0781,-4.0734,-4.0712,-4.0662,-4.0564,-4.0519,-4.0496,-4.0496,-4.0496,-4.0496,-4.0496,-4.0496,-4.0496,-4.0496,-4.0496,-3.9785,-3.8104,-3.8007,-3.7257,-3.5577,-3.4661,-3.3801,-3.291,-3.2102,-3.1269,-3.0404,-3.0404,-3.0404,-3.0404,-3.0404,-3.0404,-6.3649,-6.4904,-6.5332,-6.304,-6.0553,-5.7141,-5.1324,-4.9254,-4.7416,-4.336,-4.3739,-4.4838,-4.499,-4.5028,-4.5843,-4.8395,-4.8888,-5.0954,-5.6702,-5.8957,-6.1304,-6.4735,-6.6532,-6.6978,-6.5582,-6.5509,-6.4863,-6.324,0.0,0.0,-6.0637,-5.9033,-5.8096,-5.8001,-5.7315,-5.6881,-5.6796,-5.5362,-5.4141,-5.3203,-5.3203,-5.2762,-5.1981,-5.1997,-5.2143,-5.2286,-5.072,0.0,0.0,-4.8543,-4.7803,-4.7531,-4.6817,-4.6431,-4.6295,-4.6301,-4.5755,-4.4897,-4.4099,-4.3201,-4.2284,-4.1543,-4.1269,-4.1191,-4.1191,-4.1191,-4.1191,-4.1191,-4.1191,-4.1191,-4.1191,-4.1191,-4.1172,-4.1112,-4.1091,-4.1089,-4.1086,-4.1033,-4.0986,-4.0986,-4.0883,-4.0806,-4.0796,-4.0732,-4.0694,-4.0681,-4.0586,-4.0496,-4.0496,-4.0496,-4.0496,-4.0496,-4.0496,-4.0496,-4.0496,-4.0496,-3.9785,-3.8104,-3.8007,-3.7257,-3.5577,-3.4661,-3.3801,-3.291,-3.2102,-3.1269,-3.0404,-3.0404,-3.0404,-3.0404,-3.0404,-3.0404,-6.2062,-6.3917,-6.4668,-6.2237,-5.9393,-5.5792,-5.0405,-4.7738,-4.5653,-4.2962,-4.336,-4.4326,-4.4819,-4.4895,-4.5236,-4.6241,-4.6411,-4.7757,-5.1618,-5.3613,-5.6455,-6.1307,-6.3002,-6.413,0.0,0.0,-6.3642,0.0,0.0,0.0,-5.8096,-5.7982,-5.7657,-5.7122,-5.6346,-5.547,-5.4526,-5.3923,-5.3208,-5.2423,-5.2953,-5.3051,-5.2742,-5.2299,-5.1896,-5.1483,-5.0373,0.0,0.0,-4.8359,-4.7725,-4.6788,-4.6441,-4.6308,-4.6175,-4.512,-4.4519,-4.4095,-4.3218,-4.234,-4.1561,-4.1289,-4.1191,-4.1191,-4.1191,-4.1191,-4.1191,-4.1191,-4.1191,-4.1191,-4.1191,-4.1191,-4.1191,-4.1172,-4.1132,-4.1092,-4.1091,-4.1082,-4.1067,-4.1062,-4.1022,-4.0972,-4.094,-4.0902,-4.0858,-4.0775,-4.0681,-4.0615,-4.0615,-4.0557,-4.0496,-4.0496,-4.0496,-4.0496,-4.0496,-4.0496,-3.9785,-3.8104,-3.8007,-3.7257,-3.5577,-3.5173,-3.4564,-3.3699,-3.3372,-3.2545,-3.1173,-3.1173,-3.0904,-3.0404,-3.0404,-3.0404,-5.9549,-6.1742,-6.2936,-6.089,-5.8066,-5.4636,-5.0101,-4.7283,-4.5103,-4.3189,-4.3455,-4.4232,-4.48,-4.4895,-4.4895,-4.4895,-4.4895,-4.5786,-4.8338,-5.0144,-5.3006,-5.7839,0.0,-6.0979,0.0,-6.2837,-6.1764,0.0,0.0,0.0,0.0,-5.6587,-5.6606,-5.6262,-5.5454,-5.4489,-5.3361,-5.316,-5.2792,-5.2247,-5.3144,-5.3442,-5.3144,-5.2395,-5.1631,-5.0832,0.0,0.0,0.0,-4.7546,-4.6926,-4.5833,-4.5613,-4.5524,-4.5372,-4.4156,-4.3536,-4.3231,-4.2607,-4.1829,-4.111,-4.1152,-4.1172,-4.1172,-4.1191,-4.1191,-4.1191,-4.1191,-4.1191,-4.1191,-4.1191,-4.1191,-4.1191,-4.1191,-4.1152,-4.1132,-4.1132,-4.1111,-4.1108,-4.1104,-4.1102,-4.1094,-4.1035,-4.1011,-4.0961,-4.0863,-4.0786,-4.0734,-4.0734,-4.0655,-4.0575,-4.0552,-4.0564,-4.0549,-4.0496,-4.0496,-3.9785,-3.8104,-3.8007,-3.7257,-3.5577,-3.55,-3.5084,-3.4225,-3.4205,-3.3487,-3.2045,-3.1814,-3.1385,-3.0788,-3.0519,-3.0404,-5.5954,-5.8066,-5.975,-5.8919,-5.6796,-5.4029,-5.067,-4.8585,-4.6657,-4.4194,-4.4326,-4.4895,-4.4895,-4.4895,-4.4895,-4.4895,-4.4895,-4.5786,-4.8338,-5.0144,-5.212,-5.4655,-5.6417,-5.7825,-5.8866,-5.9069,-5.8822,0.0,0.0,0.0,0.0,-5.46,-5.4524,-5.5403,-5.4562,-5.4129,-5.419,-5.3399,-5.2992,-5.2992,-5.4015,-5.3998,-5.307,-5.2268,-5.1547,0.0,0.0,0.0,0.0,-4.55,-4.4828,-4.4738,-4.402,-4.3725,-4.3725,-4.3705,-4.3157,-4.2417,-4.2405,-4.1822,-4.11,-4.111,-4.1092,-4.1112,-4.1172,-4.1191,-4.1191,-4.1191,-4.1191,-4.1191,-4.1191,-4.1191,-4.1191,-4.1191,-4.1191,-4.1191,-4.1191,-4.1152,-4.1092,-4.1092,-4.1109,-4.1105,-4.1099,-4.1031,-4.0992,-4.0994,-4.0886,-4.0806,-4.0806,-4.0806,-4.0766,-4.0706,-4.0694,-4.0642,-4.0512,-4.0496,-3.9785,-3.8104,-3.8007,-3.7257,-3.5577,-3.55,-3.5084,-3.4225,-3.4205,-3.3782,-3.2891,-3.2083,-3.1698,-3.1679,-3.0808,-3.0404,-5.2878,-5.4508,-5.547,-5.4617,-5.293,-5.0751,-4.7984,-4.6506,-4.5312,-4.3985,-4.4345,-4.4895,-4.4895,-4.4895,-4.4895,-4.4895,-4.4895,-4.5179,-4.5994,-4.8567,-5.1313,-5.3783,-5.7662,-6.0278,0.0,0.0,0.0,0.0,0.0,0.0,0.0,-5.4811,-5.5116,-5.5403,-5.397,-5.3517,-5.419,-5.3993,-5.3894,-5.3894,-5.4304,-5.4017,-5.305,-5.1691,0.0,0.0,0.0,0.0,0.0,-4.49,-4.4433,-4.39,-4.3064,-4.3111,-4.3482,-4.229,-4.2058,-4.2256,-4.1644,-4.1296,-4.11,-4.111,-4.1092,-4.1112,-4.1172,-4.1191,-4.1191,-4.1191,-4.1191,-4.1191,-4.1191,-4.1191,-4.1191,-4.1191,-4.1191,-4.1191,-4.1191,-4.1172,-4.1152,-4.1112,-4.1091,-4.1109,-4.1105,-4.108,-4.1073,-4.107,-4.0986,-4.0938,-4.0938,-4.0859,-4.0796,-4.0766,-4.078,-4.0697,-4.0519,-4.0496,-4.0035,-3.895,-3.8334,-3.7488,-3.6365,-3.5788,-3.5365,-3.5084,-3.5084,-3.4372,-3.2891,-3.2641,-3.1929,-3.0808,-3.0538,-3.0404,-4.9788,-5.1287,-5.2134,-5.1585,-5.0201,-4.8553,-4.6999,-4.5748,-4.4762,-4.427,-4.4554,-4.4895,-4.4895,-4.4895,-4.4895,-4.4895,-4.4895,-4.5021,-4.5387,-4.8074,-5.1044,-5.3884,-5.7672,0.0,0.0,0.0,0.0,0.0,0.0,0.0,0.0,-5.4486,-5.4581,-5.4906,-5.3855,-5.3574,-5.4153,-5.3912,-5.361,-5.3288,-5.3415,-5.2833,-5.1589,-5.0307,0.0,0.0,0.0,0.0,0.0,-4.3729,-4.3379,-4.2877,-4.2054,-4.2066,-4.2416,-4.1322,-4.1264,-4.1657,-4.1103,-4.0995,-4.1058,-4.1054,-4.1085,-4.1112,-4.1172,-4.1191,-4.1191,-4.1191,-4.1191,-4.1191,-4.1191,-4.1191,-4.1191,-4.1191,-4.1191,-4.1191,-4.1191,-4.1191,-4.1191,-4.1152,-4.1132,-4.1132,-4.111,-4.1109,-4.1108,-4.1108,-4.1052,-4.1033,-4.1033,-4.0961,-4.0899,-4.0871,-4.0887,-4.079,-4.0623,-4.0596,-4.021,-3.9342,-3.8469,-3.7603,-3.6731,-3.5923,-3.55,-3.55,-3.55,-3.4788,-3.3391,-3.2756,-3.1737,-3.0404,-3.0404,-3.0404,0.0,-4.8357,-4.9551,-4.9551,-4.8376,-4.7226,-4.7226,-4.6013,0.0,-4.4895,-4.4895,-4.4895,-4.4895,-4.4895,-4.4895,-4.4895,-4.4895,-4.5204,-4.608,-4.8498,-5.1439,0.0,-5.6791,0.0,-5.6589,0.0,0.0,0.0,0.0,0.0,0.0,-5.3741,-5.3206,-5.3894,-5.3855,-5.3855,-5.3913,-5.3183,-5.2379,-5.1505,-5.1574,-5.0745,-4.91,-4.8356,0.0,0.0,0.0,0.0,0.0,-4.2205,-4.1861,-4.1751,-4.1071,-4.0796,-4.0796,-4.0796,-4.0796,-4.0796,-4.0796,-4.0878,-4.0987,-4.0992,-4.1044,-4.1112,-4.1172,-4.1191,-4.1191,-4.1191,-4.1191,-4.1191,-4.1191,-4.1191,-4.1191,-4.1191,-4.1191,-4.1191,-4.1191,-4.1191,-4.1191,-4.1191,-4.1191,-4.1172,-4.1112,-4.1112,-4.1111,-4.1108,-4.1108,-4.1108,-4.1108,-4.1108,-4.1081,-4.1009,-4.1005,-4.0944,-4.0836,-4.0751,-4.0301,-3.9372,-3.8534,-3.768,-3.6731,-3.5981,-3.5558,-3.55,-3.5385,-3.493,-3.4109,-3.2429,-3.1192,-3.0404,-3.0404,-3.0404,-4.5485,0.0,-4.607,-4.607,-4.5786,-4.5483,0.0,-4.5179,-4.4895,-4.4895,-4.4895,-4.4895,-4.4895,-4.4895,-4.4895,-4.4895,-4.4895,-4.4995,-4.5264,-4.9163,-5.3033,-5.5843,-5.7681,-5.812,-5.6633,0.0,0.0,0.0,0.0,0.0,0.0,-5.3645,-5.3301,-5.2231,-5.1544,-5.1505,-5.2193,-5.2043,-5.1519,-5.0608,-5.0065,-4.9264,-4.8266,-4.7473,0.0,0.0,0.0,0.0,-4.2085,-4.1894,-4.1482,-4.0971,-4.0788,-4.0723,-4.0723,-4.0723,-4.0723,-4.0723,-4.0723,-4.078,-4.0859,-4.0977,-4.1044,-4.1092,-4.1112,-4.1152,-4.1191,-4.1191,-4.1191,-4.1191,-4.1191,-4.1191,-4.1191,-4.1191,-4.1191,-4.1191,-4.1191,-4.1191,-4.1191,-4.1191,-4.1191,-4.1191,-4.1172,-4.1172,-4.1172,-4.1171,-4.1131,-4.1091,-4.1091,-4.1109,-4.1086,-4.1082,-4.1081,-4.103,-4.0967,-4.081,-4.0312,-3.9437,-3.9133,-3.8296,-3.675,-3.6519,-3.6135,-3.5519,-3.4192,-3.341,-3.3199,-3.1519,-3.0596,-3.0404,-3.0404,-3.0404,-4.5049,-4.501,-4.4962,-4.4962,-4.4962,-4.4943,-4.4979,-4.4979,-4.4979,-4.4943,-4.4962,-4.4962,-4.4962,-4.4962,-4.4962,-4.4962,-4.4967,-4.5421,-4.6616,-4.9511,-5.2456,-5.505,-5.6137,-5.6513,0.0,0.0,0.0,0.0,0.0,0.0,0.0,-5.311,-5.2537,-5.1627,-5.0397,-5.0149,-5.1009,-5.0279,-4.9457,-4.8544,-4.8184,-4.7585,-4.6781,-4.6004,-4.4965,0.0,0.0,0.0,-4.12,-4.12,-4.0966,-4.0602,-4.0602,-4.0602,-4.0602,-4.0602,-4.0602,-4.0602,-4.0602,-4.0674,-4.078,-4.0863,-4.0931,-4.0972,-4.1035,-4.1083,-4.1126,-4.1172,-4.1191,-4.1191,-4.1191,-4.1191,-4.1191,-4.1191,-4.1191,-4.1191,-4.1191,-4.1191,-4.1191,-4.1191,-4.1191,-4.1191,-4.1191,-4.1191,-4.1191,-4.1191,-4.1172,-4.1152,-4.1152,-4.1151,-4.1151,-4.1151,-4.1151,-4.1129,-4.1099,-4.0944,-4.0609,-4.0073,-3.9279,-3.8398,-3.743,-3.6632,-3.5971,-3.5515,-3.3782,-3.2891,-3.2891,-3.1212,-3.0404,-3.0404,-3.0404,-3.0404,-4.5136,-4.5061,-4.5033,-4.5033,-4.5022,-4.5026,-4.5091,-4.5103,-4.508,-4.5003,-4.4979,-4.4998,-4.501,-4.4979,-4.4998,-4.501,-4.5277,-4.6332,-4.8762,-4.9966,-5.1356,-5.3385,-5.397,0.0,0.0,0.0,0.0,0.0,0.0,0.0,0.0,-5.2308,-5.1353,-5.1219,-4.9576,-4.9022,-4.971,-4.8304,-4.7169,-4.6328,-4.6371,-4.5992,-4.5199,-4.4565,-4.3784,0.0,0.0,0.0,-4.0496,-4.0496,-4.0496,-4.0496,-4.0496,-4.0496,-4.0496,-4.0496,-4.0496,-4.0496,-4.0496,-4.06,-4.0718,-4.0767,-4.0794,-4.0813,-4.0942,-4.099,-4.1025,-4.1149,-4.1191,-4.1191,-4.1191,-4.1191,-4.1191,-4.1191,-4.1191,-4.1191,-4.1191,-4.1191,-4.1191,-4.1191,-4.1191,-4.1191,-4.1191,-4.1191,-4.1191,-4.1191,-4.1191,-4.1191,-4.1191,-4.1191,-4.1191,-4.1191,-4.1191,-4.1191,-4.1191,-4.1102,-4.0929,-4.0672,-3.9302,-3.8342,-3.803,-3.6464,-3.5509,-3.5328,-3.3865,-3.2987,-3.2718,-3.1288,-3.0538,-3.0404,-3.0404,-3.0404,-4.5203,-4.5181,-4.5159,-4.5103,-4.5072,-4.5091,-4.5103,-4.5068,-4.5003,-4.4991,-4.4943,-4.4931,-4.4979,-4.4943,-4.4931,-4.4979,-4.6259,-4.7879,0.0,0.0,-5.2271,-5.1916,0.0,0.0,0.0,0.0,0.0,0.0,0.0,0.0,0.0,-5.141,-5.0187,-4.95,-4.7799,-4.6959,-4.7073,-4.6825,-4.629,-4.5468,-4.5479,-4.512,-4.4384,-4.4278,-4.3403,0.0,0.0,-4.1316,-4.0496,-4.0496,-4.0496,-4.0496,-4.0496,-4.0496,-4.0496,-4.0496,-4.0496,-4.0496,-4.0496,-4.06,-4.07,-4.0705,-4.0742,-4.0816,-4.089,-4.0953,-4.1019,-4.1093,-4.1167,-4.1191,-4.1191,-4.1191,-4.1191,-4.1191,-4.1191,-4.1191,-4.1191,-4.1191,-4.1191,-4.1191,-4.1191,-4.1191,-4.1191,-4.1191,-4.1191,-4.1191,-4.1191,-4.1191,-4.1191,-4.1191,-4.1191,-4.1191,-4.1191,-4.1191,-4.1191,-4.1171,-4.0858,-4.0094,-3.9633,-3.8723,-3.7257,-3.6215,-3.5312,-3.4506,-3.4223,-3.3352,-3.1891,-3.1641,-3.1115,-3.0404,-3.0404,-3.0404,-4.5246,-4.5246,-4.5254,-4.5233,-4.5181,-4.5159,-4.5192,-4.5181,-4.5159,-4.5114,-4.5091,-4.5061,-4.5103,-4.5091,-4.5377,-4.6348,-4.754,-4.8638,-4.9437,-5.0243,-5.0598,0.0,0.0,0.0,0.0,0.0,0.0,0.0,0.0,0.0,0.0,0.0,-4.8793,-4.8411,-4.7169,-4.629,-4.5851,-4.5392,-4.4961,-4.459,-4.415,-4.377,-4.3426,-4.3033,-4.2455,-4.1722,0.0,-4.0865,-4.0495,-4.0508,-4.0496,-4.0496,-4.0496,-4.0496,-4.0496,-4.0496,-4.0496,-4.0496,-4.0496,-4.0542,-4.0581,-4.0581,-4.0604,-4.0666,-4.0756,-4.08,-4.0859,-4.095,-4.1095,-4.1191,-4.1191,-4.1191,-4.1191,-4.1191,-4.1191,-4.1191,-4.1191,-4.1191,-4.1191,-4.1191,-4.1191,-4.1191,-4.1191,-4.1191,-4.1191,-4.1191,-4.1191,-4.1191,-4.1191,-4.1191,-4.1191,-4.1191,-4.1191,-4.1191,-4.1191,-4.0762,-4.0137,-3.9258,-3.8639,-3.7731,-3.6465,-3.55,-3.4792,-3.4357,-3.3379,-3.249,-3.1698,-3.1231,-3.0788,-3.0404,-3.0404,-3.0404,-4.525,-4.5307,-4.5307,-4.5307,-4.5265,-4.5282,-4.5534,-4.5573,-4.5608,-4.5756,-4.5619,-4.5486,-4.5486,-4.5303,-4.5734,-4.7453,-4.8426,-4.9132,-4.9532,-4.9754,-4.9823,0.0,0.0,0.0,0.0,0.0,0.0,0.0,0.0,0.0,0.0,0.0,-4.7502,-4.7502,-4.6481,-4.5621,-4.4991,-4.394,-4.351,-4.3701,-4.31,-4.2709,-4.2508,-4.1932,-4.1576,-4.1355,-4.0748,-4.0495,-4.051,-4.0492,-4.0496,-4.0496,-4.0496,-4.0496,-4.0496,-4.0496,-4.0496,-4.0496,-4.0496,-4.0496,-4.0496,-4.0496,-4.0496,-4.0527,-4.063,-4.0693,-4.0713,-4.0822,-4.0994,-4.1147,-4.117,-4.1171,-4.1171,-4.1191,-4.1191,-4.1191,-4.1191,-4.1191,-4.1191,-4.1191,-4.1191,-4.1191,-4.1191,-4.1191,-4.1191,-4.1191,-4.1191,-4.1191,-4.1191,-4.1191,-4.1191,-4.1191,-4.1191,-4.1113,-4.0918,-4.0098,-3.9219,-3.8359,-3.7433,-3.662,-3.5956,-3.519,-3.4676,-3.4454,-3.3267,-3.2345,-3.1727,-3.1229,-3.0788,-3.0404,-3.0404,-3.0404,-4.5107,-4.5307,-4.5307,-4.5307,-4.5297,-4.5488,-4.6252,-4.6399,-4.6622,-4.7366,-4.6881,-4.6313,-4.6313,-4.5647,-4.5643,-4.7257,-4.8355,-4.9532,-5.1103,0.0,0.0,0.0,0.0,0.0,0.0,0.0,0.0,0.0,0.0,0.0,0.0,0.0,0.0,-4.6596,-4.5019,-4.414,-4.4083,-4.2488,-4.2087,-4.2889,-4.2832,-4.2412,-4.1676,-4.1628,-4.1186,-4.0483,-4.0504,-4.051,-4.051,-4.0492,-4.0496,-4.0496,-4.0496,-4.0496,-4.0496,-4.0496,-4.0496,-4.0496,-4.0496,-4.0496,-4.0496,-4.0496,-4.0496,-4.0504,-4.0588,-4.0662,-4.0709,-4.0715,-4.0803,-4.0944,-4.1064,-4.1112,-4.1119,-4.1191,-4.1191,-4.1191,-4.1191,-4.1191,-4.1191,-4.1191,-4.1191,-4.1191,-4.1191,-4.1191,-4.1191,-4.1191,-4.1191,-4.1191,-4.1191,-4.1191,-4.1191,-4.1191,-4.1191,-4.0879,-4.0059,-3.9199,-3.832,-3.7441,-3.6562,-3.6054,-3.5996,-3.5915,-3.5474,-3.4597,-3.5126,-3.4221,-3.1787,-3.2419,-3.1929,-3.0404,-3.0404,-3.0404,-4.4428,-4.4895,-4.5307,-4.5307,-4.5307,-4.5507,-4.6328,-4.6476,-4.6546,-4.6889,-4.7072,-4.6987,-4.6492,-4.615,-4.6507,-4.8157,-4.9208,-5.0209,-5.1393,0.0,0.0,0.0,0.0,0.0,0.0,0.0,0.0,0.0,0.0,0.0,0.0,0.0,0.0,-4.4208,-4.3577,-4.2985,-4.245,-4.182,-4.1399,-4.1246,-4.1246,-4.1103,-4.0788,-4.0786,-4.0623,-4.0346,-4.0407,-4.0432,-4.0441,-4.0471,-4.0511,-4.0496,-4.0496,-4.0496,-4.0496,-4.0496,-4.0496,-4.0496,-4.0496,-4.0496,-4.0496,-4.0496,-4.0496,-4.0496,-4.0531,-4.0557,-4.0568,-4.0629,-4.0661,-4.0756,-4.0926,-4.1003,-4.104,-4.1117,-4.1143,-4.1146,-4.1191,-4.1191,-4.1191,-4.1191,-4.1191,-4.1191,-4.1191,-4.1191,-4.1191,-4.1191,-4.1191,-4.1191,-4.1191,-4.1191,-4.1191,-4.1191,-4.0723,-4.0039,-3.918,-3.8281,-3.7422,-3.6543,-3.6172,-3.5995,-3.5995,-3.544,-3.4955,-3.4607,-3.43,-3.3394,-3.1859,-3.2132,-3.168,-3.052,-3.053,-3.0516,-4.3953,-4.4287,-4.4571,-4.4819,-4.4895,-4.5239,-4.6596,-4.6868,-4.693,-4.7232,-4.7429,-4.7324,-4.6549,-4.6207,0.0,0.0,-4.8822,-4.9651,0.0,0.0,0.0,0.0,0.0,0.0,0.0,0.0,0.0,0.0,0.0,0.0,0.0,0.0,0.0,0.0,-4.2526,-4.2106,-4.1514,-4.1246,-4.0845,-4.0301,-4.0301,-4.0301,-4.0301,-4.03,-4.03,-4.031,-4.0354,-4.0379,-4.0407,-4.0466,-4.0495,-4.0496,-4.0496,-4.0496,-4.0496,-4.0496,-4.0496,-4.0496,-4.0496,-4.0496,-4.0496,-4.0496,-4.0496,-4.0496,-4.0496,-4.0496,-4.0504,-4.0565,-4.0583,-4.0629,-4.0776,-4.0882,-4.0997,-4.1059,-4.107,-4.1078,-4.1139,-4.1147,-4.1169,-4.1169,-4.1191,-4.1191,-4.1191,-4.1191,-4.1191,-4.1191,-4.1191,-4.1191,-4.1191,-4.1191,-4.1191,-4.1191,-4.043,-3.9551,-3.8672,-3.7793,-3.6934,-3.6055,-3.5996,-3.5995,-3.5995,-3.5381,-3.5038,-3.5036,-3.4395,-3.349,-3.2335,-3.2313,-3.1715,-3.0591,-3.0609,-3.0603,-4.3859,-4.3567,-4.3004,-4.3806,-4.4006,-4.4675,-4.7215,-4.7769,-4.8006,-4.8815,-4.8192,-4.7276,-4.6537,-4.5646,0.0,-4.7125,-4.6826,-4.7558,0.0,0.0,0.0,0.0,0.0,0.0,0.0,0.0,0.0,0.0,0.0,0.0,0.0,0.0,0.0,0.0,-4.1934,-4.1495,-4.1495,-4.0711,-4.0301,-4.0301,-4.0301,-4.0301,-4.0301,-4.0301,-4.0301,-4.031,-4.0299,-4.0353,-4.0388,-4.0466,-4.0495,-4.0496,-4.0496,-4.0496,-4.0496,-4.0496,-4.0496,-4.0496,-4.0496,-4.0496,-4.0496,-4.0496,-4.0496,-4.0496,-4.0496,-4.0496,-4.0496,-4.0496,-4.0539,-4.0595,-4.06,-4.0742,-4.0911,-4.0974,-4.099,-4.099,-4.099,-4.1059,-4.1108,-4.1108,-4.1147,-4.1191,-4.1191,-4.1191,-4.1191,-4.1191,-4.1191,-4.1191,-4.1191,-4.1191,-4.1191,-4.1191,-4.041,-3.9531,-3.8652,-3.7793,-3.6914,-3.6055,-3.5996,-3.5996,-3.5996,-3.5996,-3.5996,-3.5995,-3.5939,-3.5041,-3.3298,-3.3229,-3.2301,-3.0606,-3.0606,-3.0606,-4.4143,-4.3717,-4.3284,-4.4698,-4.4528,-4.4503,-4.6432,-4.6399,-4.6351,-4.7673,-4.7713,-4.7409,-4.7138,-4.6497,0.0,-4.6555,-4.6502,0.0,0.0,0.0,0.0,0.0,0.0,0.0,0.0,0.0,0.0,0.0,0.0,0.0,0.0,0.0,0.0,0.0,-4.0788,-4.0654,-4.0654,-4.0416,-4.0301,-4.0301,-4.0301,-4.0301,-4.0301,-4.0301,-4.0301,-4.0301,-4.0301,-4.0318,-4.0325,-4.0396,-4.0463,-4.0489,-4.0495,-4.0503,-4.0496,-4.0496,-4.0496,-4.0496,-4.0496,-4.0496,-4.0496,-4.0496,-4.0496,-4.0496,-4.0496,-4.0496,-4.0496,-4.0496,-4.0539,-4.0607,-4.0603,-4.0674,-4.0792,-4.0902,-4.0928,-4.0921,-4.0928,-4.0955,-4.0967,-4.0967,-4.0981,-4.1027,-4.1117,-4.1121,-4.1145,-4.1191,-4.1191,-4.1191,-4.1191,-4.1191,-4.0976,-4.0351,-3.9512,-3.8633,-3.7754,-3.6894,-3.6289,-3.6016,-3.5996,-3.5996,-3.5996,-3.5996,-3.5996,-3.5996,-3.5975,-3.5114,-3.3375,-3.3351,-3.2467,-3.0804,-3.0768,-3.0739,-4.3391,-4.2762,-4.2398,-4.4026,-4.3982,-4.3873,-4.5191,-4.5854,-4.6454,-4.7381,-4.7276,-4.7011,-4.6973,-4.6327,0.0,-4.622,0.0,0.0,0.0,0.0,0.0,0.0,0.0,0.0,0.0,0.0,0.0,0.0,0.0,0.0,0.0,0.0,0.0,0.0,-4.0301,-4.0301,-4.0301,-3.9957,-3.9785,-3.9766,-3.9431,-3.9279,-3.9279,-3.9642,-3.9785,-3.9794,-3.9813,-3.963,-3.935,-4.0102,-4.0027,-3.9507,-3.9857,-3.998,-3.9992,-4.0008,-4.0227,-4.0496,-4.0496,-4.0496,-4.0496,-4.0496,-4.0496,-4.0496,-4.0496,-4.0496,-4.0439,-4.0112,-4.005,-4.0015,-3.9682,-3.9872,-4.0243,-4.069,-4.0801,-4.0818,-4.0781,-4.08,-4.0827,-4.0827,-4.0836,-4.0899,-4.0994,-4.102,-4.1031,-4.1114,-4.1116,-4.1116,-4.1116,-4.1144,-4.0836,-3.9957,-3.9101,-3.8242,-3.7363,-3.6504,-3.5996,-3.5996,-3.5996,-3.5996,-3.5996,-3.5996,-3.5996,-3.5996,-3.5664,-3.4805,-3.3398,-3.3086,-3.2226,-3.0898,-3.0855,-3.0832,-4.2189,-4.1421,-4.1031,-4.2574,-4.3053,-4.331,-4.3968,-4.5911,-4.7575,-4.7499,-4.6899,-4.6377,-4.6301,-4.5607,-4.5255,0.0,0.0,0.0,0.0,0.0,0.0,0.0,0.0,0.0,0.0,0.0,0.0,0.0,0.0,0.0,0.0,0.0,0.0,0.0,-4.0081,-4.0053,-4.0053,-3.9279,-3.8877,0.0,-3.8075,-3.7693,-3.7731,-3.8514,-3.8877,-3.8877,-3.895,-3.8527,-3.7915,-3.95,-3.9257,-3.7977,-3.8769,-3.908,-3.9096,-3.9146,-3.9642,-4.0265,-4.0258,-4.0258,-4.0285,-4.0362,-4.04,-4.04,-4.0477,-4.0458,-4.0246,-3.9515,-3.9304,-3.9138,-3.8404,-3.8816,-3.9613,-4.04,-4.0647,-4.0668,-4.0614,-4.0649,-4.0688,-4.0688,-4.0733,-4.08,-4.0871,-4.0878,-4.0905,-4.0964,-4.0987,-4.0968,-4.087,-4.092,-4.0595,-3.9657,-3.8899,-3.8125,-3.7246,-3.6445,-3.5996,-3.5996,-3.5996,-3.5996,-3.5996,-3.5996,-3.5957,-3.5879,-3.5098,-3.4238,-3.3281,-3.2559,-3.1758,-3.0898,-3.0898,-3.0898,-4.3348,-4.2595,-4.2198,-4.3749,-4.4937,-4.5583,-4.5125,-4.5916,-4.6563,-4.5878,-4.6537,-4.7042,-4.6415,-4.6082,-4.5767,0.0,0.0,0.0,0.0,0.0,0.0,0.0,0.0,0.0,0.0,0.0,0.0,0.0,0.0,0.0,0.0,0.0,0.0,-3.8959,-3.8509,-3.8266,-3.8266,-3.8075,-3.798,0.0,-3.7789,-3.7693,-3.7712,-3.7884,-3.798,-3.798,-3.7997,-3.7919,-3.7819,-3.8157,-3.8134,-3.792,-3.8104,-3.8185,-3.8186,-3.8193,-3.835,-3.8527,-3.8477,-3.8485,-3.8642,-3.9342,-3.9554,-3.9688,-4.0304,-4.0054,-3.9515,-3.9361,-3.9304,-3.9265,-3.908,-3.968,-4.0349,-4.0488,-4.0571,-4.0614,-4.0591,-4.0605,-4.0626,-4.0626,-4.0635,-4.0662,-4.0736,-4.0738,-4.0767,-4.0821,-4.0832,-4.0602,-3.9986,-3.9906,-3.9331,-3.777,-3.7544,-3.7141,-3.6286,-3.6088,-3.5995,-3.5995,-3.5996,-3.5996,-3.5995,-3.5996,-3.5684,-3.498,-3.4805,-3.3965,-3.2461,-3.2285,-3.1758,-3.0898,-3.0898,-3.0898,-4.2593,-4.1984,-4.192,-4.3401,-4.491,-4.5888,-4.5404,-4.5621,-4.5791,-4.5298,-4.5818,-4.6193,-4.5714,-4.5602,0.0,0.0,0.0,0.0,0.0,0.0,0.0,0.0,0.0,0.0,0.0,0.0,0.0,0.0,0.0,0.0,0.0,-3.8764,-3.838,-3.8539,-3.778,-3.7442,-3.7566,-3.7053,-3.6844,-3.6929,-3.6529,-3.6412,-3.6528,-3.6948,-3.691,-3.6528,-3.6948,-3.6899,-3.6619,-3.7377,-3.7269,-3.664,-3.7059,-3.7255,-3.7287,-3.7283,-3.7556,-3.7955,-3.7917,-3.7924,-3.8101,-3.9008,-3.9015,-3.8834,-3.9669,-3.9631,-3.913,-3.8296,-3.8661,-3.9111,-3.8277,-3.9003,-3.9865,-3.94,-3.9964,-4.0591,-4.0554,-4.0546,-4.0546,-4.0546,-4.0546,-4.0564,-4.0636,-4.032,-4.0221,-4.0632,-4.0023,-3.9504,-3.9509,-3.9165,-3.8415,-3.7089,-3.7047,-3.6784,-3.5972,-3.5878,-3.5895,-3.5992,-3.5969,-3.5968,-3.5993,-3.5605,-3.5156,-3.4707,-3.4297,-3.3457,-3.2207,-3.1777,-3.1348,-3.0898,-3.0898,-3.0898,-4.1616,-4.1133,-4.1477,-4.2895,-4.4289,-4.5282,-4.5291,-4.5307,-4.5248,-4.5012,-4.5033,-4.5049,-4.4931,0.0,0.0,0.0,0.0,0.0,0.0,0.0,0.0,0.0,0.0,0.0,0.0,0.0,0.0,0.0,0.0,0.0,-3.9139,-3.8264,-3.7897,-3.8158,-3.7111,-3.6658,-3.6905,-3.6018,-3.5593,-3.5617,-3.4841,-3.4725,-3.5229,-3.5793,-3.5755,-3.5248,-3.5965,-3.587,-3.5305,-3.67,-3.6451,-3.5267,-3.6004,-3.6334,-3.6372,-3.6385,-3.683,-3.7459,-3.7452,-3.7467,-3.7609,-3.8558,-3.8354,-3.7969,-3.8996,-3.9188,-3.8815,-3.7507,-3.818,-3.8977,-3.7526,-3.8315,-3.9284,-3.843,-3.9326,-4.0323,-4.0119,-4.0073,-4.0112,-4.0265,-4.0419,-4.0466,-4.038,-3.9935,-3.9764,-4.0304,-3.9204,-3.8452,-3.8877,-3.8342,-3.761,-3.6748,-3.6714,-3.6505,-3.5894,-3.5765,-3.5769,-3.5938,-3.5896,-3.5892,-3.596,-3.5126,-3.4604,-3.4452,-3.3633,-3.2793,-3.1973,-3.125,-3.0898,-3.0898,-3.0898,-3.0898,-4.2467,-4.21,-4.2397,-4.3918,-4.4342,-4.4543,-4.5157,-4.5307,-4.5076,0.0,-4.4622,-4.508,0.0,0.0,0.0,0.0,0.0,0.0,0.0,0.0,0.0,0.0,0.0,0.0,0.0,0.0,0.0,0.0,0.0,0.0,-3.8843,-3.7345,-3.6542,-3.6766,-3.545,-3.4794,-3.49,-3.4755,-3.4341,-3.3669,-3.3043,-3.3602,-3.519,-3.4598,-3.4655,-3.5209,-3.5316,-3.5305,-3.5229,-3.5439,-3.54,-3.5229,-3.5392,-3.5465,-3.5465,-3.5465,-3.5553,-3.5653,-3.5641,-3.5683,-3.5873,-3.6762,-3.6962,-3.718,-3.8815,-3.8757,-3.8277,-3.8815,-3.913,-3.9246,-3.9015,-3.965,-4.0131,-3.9323,-3.9304,-3.9265,-3.8488,-3.8334,-3.8565,-3.9304,-4.0015,-4.0285,-3.96,-3.9965,-4.0146,-3.9569,-3.928,-3.8645,-3.7233,-3.6958,-3.6587,-3.5778,-3.5747,-3.5756,-3.5655,-3.5682,-3.5709,-3.573,-3.5736,-3.5736,-3.5733,-3.4953,-3.4204,-3.3498,-3.2749,-3.1934,-3.1074,-3.0957,-3.0898,-3.0898,-3.0898,-3.0898,-4.2046,-4.2,-4.2468,-4.3054,-4.3482,-4.38,-4.3958,-4.4001,-4.3867,-4.3335,-4.3501,-4.3716,0.0,0.0,0.0,0.0,0.0,0.0,0.0,0.0,0.0,0.0,0.0,0.0,0.0,0.0,0.0,0.0,0.0,-3.8512,-3.7836,-3.6656,-3.5919,-3.5661,-3.4583,-3.4099,-3.4267,-3.416,-3.3775,-3.3123,-3.2982,-3.3101,-3.3449,-3.3204,-3.3868,-3.5209,-3.5209,-3.5209,-3.5171,-3.4713,-3.4522,-3.4483,-3.4022,-3.4144,-3.4572,-3.4572,-3.4867,-3.5246,-3.5293,-3.5323,-3.5499,-3.6409,-3.637,-3.6202,-3.7462,-3.7589,-3.7343,-3.7731,-3.818,-3.8565,-3.8565,-3.8834,-3.8892,-3.8046,-3.7834,-3.7603,-3.6776,-3.7334,-3.8257,-3.913,-3.9592,-3.9727,-3.9361,-3.8777,-3.8411,-3.8546,-3.7777,-3.7065,-3.6731,-3.6308,-3.5712,-3.4853,-3.4796,-3.4656,-3.423,-3.4612,-3.4914,-3.5018,-3.5409,-3.5657,-3.5694,-3.4901,-3.428,-3.3916,-3.2719,-3.1692,-3.0897,-3.0897,-3.0897,-3.0897,-3.0897,-3.1131,-4.1833,-4.1745,-4.2034,-4.1894,-4.2469,-4.3014,-4.2768,0.0,-4.2883,0.0,-4.2582,0.0,0.0,0.0,0.0,0.0,0.0,0.0,0.0,0.0,0.0,0.0,0.0,0.0,0.0,0.0,0.0,0.0,0.0,-3.8158,-3.7155,-3.6129,-3.5369,-3.494,-3.4087,-3.3753,-3.3972,-3.3437,-3.311,-3.3001,-3.251,-3.2216,-3.2108,-3.2098,-3.2976,-3.4484,-3.4536,-3.4552,-3.4514,-3.3929,-3.3662,-3.3605,-3.2947,-3.3242,-3.3995,-3.3995,-3.4503,-3.5218,-3.5289,-3.53,-3.5411,-3.613,-3.5919,-3.5566,-3.644,-3.6702,-3.6745,-3.6974,-3.7507,-3.8007,-3.8007,-3.8007,-3.7777,-3.6904,-3.6692,-3.6538,-3.5923,-3.6969,-3.8123,-3.8565,-3.8996,-3.9169,-3.8719,-3.7738,-3.718,-3.7603,-3.6615,-3.5942,-3.6346,-3.5673,-3.493,-3.4263,-3.3994,-3.3743,-3.3412,-3.3877,-3.437,-3.4734,-3.5264,-3.5602,-3.566,-3.4806,-3.4359,-3.438,-3.2979,-3.1893,-3.1152,-3.1152,-3.1036,-3.0822,-3.0822,-3.127,-4.2573,-4.1765,-4.1139,-4.0993,-4.1563,-4.2121,-4.1989,0.0,-4.2753,-4.1926,-4.2269,0.0,0.0,0.0,0.0,0.0,0.0,0.0,0.0,0.0,0.0,0.0,0.0,0.0,0.0,0.0,0.0,0.0,0.0,-3.7456,-3.7389,-3.5645,-3.4688,-3.4724,-3.3924,-3.3549,-3.3633,-3.2172,-3.1955,-3.2983,-3.0634,-3.0416,-3.2089,-3.1511,-3.1731,-3.2564,-3.2751,-3.2833,-3.2833,-3.2776,-3.2776,-3.2756,-3.2718,-3.3242,-3.3995,-3.3995,-3.4503,-3.5209,-3.5277,-3.5297,-3.5308,-3.5354,-3.5395,-3.5559,-3.643,-3.6699,-3.686,-3.7712,-3.7969,-3.8007,-3.8007,-3.8007,-3.7777,-3.6904,-3.6692,-3.6692,-3.6654,-3.7353,-3.7777,-3.6981,-3.8161,-3.8777,-3.7123,-3.745,-3.768,-3.6885,-3.6692,-3.6385,-3.5654,-3.4795,-3.4244,-3.4205,-3.3449,-3.3282,-3.4077,-3.4186,-3.4552,-3.5405,-3.5475,-3.5514,-3.5501,-3.4668,-3.4236,-3.4295,-3.3407,-3.2572,-3.1851,-3.1851,-3.1426,-3.0614,-3.0614,-3.1078,-4.2639,-4.1753,-4.1099,-4.1033,-4.0814,-4.0581,-4.0461,-4.0632,-4.0712,-4.032,0.0,0.0,0.0,0.0,0.0,0.0,0.0,0.0,0.0,0.0,0.0,0.0,0.0,0.0,0.0,0.0,0.0,0.0,0.0,0.0,-3.6662,-3.5332,-3.4371,-3.389,-3.3626,-3.328,-3.2835,-3.2323,-3.1768,-3.1133,-3.0272,-2.9954,-3.0101,-3.0161,-3.0319,-3.0629,-3.0952,-3.1706,-3.2661,-3.2145,-3.1897,-3.1801,-3.1293,-3.1637,-3.2458,-3.2974,-3.37,-3.4511,-3.5105,-3.53,-3.5297,-3.53,-3.532,-3.5396,-3.5706,-3.5791,-3.5998,-3.6899,-3.6793,-3.65,-3.7026,-3.6769,-3.6327,-3.6,-3.5923,-3.6077,-3.6596,-3.6942,-3.7065,-3.675,-3.7199,-3.743,-3.6808,-3.6519,-3.6288,-3.5981,-3.5923,-3.5827,-3.5538,-3.5231,-3.4814,-3.4263,-3.3917,-3.3622,-3.3391,-3.3878,-3.434,-3.4641,-3.5192,-3.55,-3.55,-3.5192,-3.5046,-3.5066,-3.4205,-3.3155,-3.1909,-3.1909,-3.1442,-3.0594,-3.0594,-3.1368,-4.2994,-4.1995,-4.1033,-4.075,-4.0446,-4.0057,-3.9377,-3.942,-3.9495,-3.9099,0.0,0.0,0.0,0.0,0.0,0.0,0.0,0.0,0.0,0.0,0.0,0.0,0.0,0.0,0.0,0.0,0.0,0.0,0.0,0.0,-3.6254,-3.4932,-3.3954,-3.3429,-3.3437,-3.311,-3.2375,-3.2173,-3.1404,-3.0088,-2.9892,-2.9519,-2.8998,-2.9415,-2.9608,-2.9626,-3.0034,-3.0835,-3.1821,-3.1274,-3.1045,-3.0949,-3.0414,-3.072,-3.1599,-3.2394,-3.3261,-3.4128,-3.4974,-3.5277,-3.5293,-3.5262,-3.5281,-3.5293,-3.5304,-3.5312,-3.5435,-3.6089,-3.5888,-3.5582,-3.6154,-3.5904,-3.55,-3.55,-3.5474,-3.5621,-3.6173,-3.65,-3.6692,-3.6692,-3.6692,-3.6615,-3.6346,-3.5846,-3.5404,-3.5122,-3.5064,-3.4968,-3.4654,-3.4635,-3.441,-3.3833,-3.3763,-3.3641,-3.3353,-3.3603,-3.3898,-3.4186,-3.4737,-3.5064,-3.5064,-3.5064,-3.5064,-3.5064,-3.4218,-3.3124,-3.182,-3.182,-3.1379,-3.0527,-3.0527,-3.1306,0.0,0.0,0.0,-4.0055,-4.0457,-4.0623,-3.8916,0.0,-3.9369,-3.8484,0.0,0.0,0.0,0.0,0.0,0.0,0.0,0.0,0.0,0.0,0.0,0.0,0.0,0.0,0.0,0.0,0.0,0.0,0.0,-3.6541,-3.6195,-3.4419,-3.3393,-3.3393,-3.3393,-3.3038,-3.2274,-3.156,-3.0805,-3.0052,-2.9349,-2.9005,-2.9028,-2.9415,-2.9608,-2.9626,-3.0026,-3.0185,-3.0185,-3.0204,-3.0211,-3.0211,-3.0211,-3.072,-3.156,-3.2394,-3.3242,-3.409,-3.4904,-3.5234,-3.5296,-3.5218,-3.5245,-3.5296,-3.5277,-3.5277,-3.5293,-3.5369,-3.5372,-3.5398,-3.546,-3.5486,-3.5486,-3.5486,-3.542,-3.5405,-3.546,-3.6108,-3.6647,-3.6654,-3.6654,-3.6404,-3.5596,-3.5462,-3.5154,-3.4302,-3.4167,-3.3853,-3.3006,-3.2891,-3.291,-3.2949,-3.2949,-3.3295,-3.4167,-3.343,-3.3314,-3.4186,-3.4186,-3.4186,-3.4244,-3.4186,-3.4167,-3.4205,-3.3314,-3.2487,-3.1698,-3.1698,-3.125,-3.0404,-3.0423,-3.0885,-4.3529,0.0,0.0,0.0,0.0,0.0,0.0,0.0,0.0,0.0,0.0,0.0,0.0,0.0,0.0,0.0,0.0,0.0,0.0,0.0,0.0,0.0,0.0,0.0,0.0,0.0,0.0,0.0,-3.7137,-3.5917,-3.5644,-3.4205,-3.3393,-3.3393,-3.3393,-3.2737,-3.137,-3.1206,-3.0428,-2.9083,-2.8973,-2.9003,-2.9163,-2.9465,-2.9608,-2.9617,-2.9872,-2.9988,-2.9996,-3.0142,-3.0211,-3.0211,-3.0211,-3.0338,-3.072,-3.2164,-3.2852,-3.3253,-3.4705,-3.5218,-3.5201,-3.5037,-3.5001,-3.4963,-3.4774,-3.4754,-3.4793,-3.4822,-3.4879,-3.4991,-3.5054,-3.5027,-3.5,-3.5,-3.5043,-3.513,-3.5119,-3.5318,-3.554,-3.5724,-3.5806,-3.5551,-3.4646,-3.4485,-3.4211,-3.3391,-3.3256,-3.3173,-3.2929,-3.2891,-3.3141,-3.3782,-3.384,-3.418,-3.5064,-3.4334,-3.4199,-3.5084,-3.3968,-3.3833,-3.5084,-3.393,-3.3564,-3.4186,-3.2776,-3.1929,-3.1698,-3.1698,-3.125,-3.0423,-3.1038,-3.1468,-4.3024,-4.2142,-4.1101,-4.1095,0.0,0.0,-3.9417,-3.9256,-3.8914,0.0,0.0,0.0,0.0,0.0,0.0,0.0,0.0,0.0,0.0,0.0,0.0,0.0,0.0,0.0,0.0,0.0,0.0,-3.7991,-3.6625,-3.549,-3.4777,-3.3991,-3.3524,-3.3393,-3.3393,-3.2632,-3.1034,-3.107,-3.028,-2.8694,-2.881,-2.898,-2.9209,-2.9357,-2.9485,-2.9617,-2.9822,-2.9897,-2.9924,-3.0121,-3.0211,-3.0211,-3.0211,-3.0211,-3.0357,-3.1668,-3.2183,-3.2394,-3.3692,-3.4091,-3.4082,-3.4281,-3.4065,-3.3837,-3.4344,-3.4285,-3.4139,-3.4488,-3.4674,-3.4763,-3.4821,-3.4783,-3.4763,-3.4763,-3.4793,-3.4737,-3.4405,-3.4595,-3.4802,-3.4745,-3.4668,-3.435,-3.3455,-3.3314,-3.3058,-3.2335,-3.2232,-3.2131,-3.184,-3.2122,-3.2545,-3.307,-3.3416,-3.3813,-3.4332,-3.3909,-3.3825,-3.4344,-3.3762,-3.3718,-3.4384,-3.3442,-3.2987,-3.3141,-3.1833,-3.1154,-3.1154,-3.1154,-3.0904,-3.0404,-3.0923,-3.1129,-4.2381,-4.1754,-4.1107,-4.11,-4.1037,0.0,-3.9126,-3.8715,-3.8202,0.0,0.0,0.0,0.0,0.0,0.0,0.0,0.0,0.0,0.0,0.0,0.0,0.0,0.0,0.0,0.0,-3.7268,-3.7175,-3.6927,-3.6134,-3.5133,-3.3905,-3.382,-3.3671,-3.3408,-3.3393,-3.2632,-3.1034,-3.1057,-3.0267,-2.8682,-2.8761,-2.8934,-2.9188,-2.9188,-2.9316,-2.957,-2.9742,-2.983,-2.9839,-3.0049,-3.0157,-3.0211,-3.0211,-3.0211,-3.03,-3.1102,-3.1431,-3.1569,-3.239,-3.2534,-3.2483,-3.3166,-3.2798,-3.234,-3.3722,-3.373,-3.3385,-3.417,-3.4494,-3.4593,-3.4509,-3.4547,-3.4612,-3.4612,-3.4591,-3.4354,-3.3636,-3.3972,-3.4247,-3.3682,-3.3477,-3.311,-3.2213,-3.2061,-3.1832,-3.1225,-3.1126,-3.0925,-3.0437,-3.0974,-3.1466,-3.1672,-3.2239,-3.2642,-3.2752,-3.2654,-3.2639,-3.2735,-3.3288,-3.3367,-3.2849,-3.2653,-3.2263,-3.1648,-3.0778,-3.0336,-3.0311,-3.0361,-3.0398,-3.0398,-3.0392,-3.0361,-4.2225,-4.1756,-4.1109,0.0,0.0,0.0,-4.0522,-4.0052,-3.9444,0.0,0.0,0.0,0.0,0.0,0.0,0.0,0.0,0.0,0.0,0.0,0.0,0.0,0.0,0.0,0.0,-3.6434,-3.6414,-3.6364,-3.5405,-3.4641,-3.4148,-3.3908,-3.3671,-3.3408,-3.3393,-3.2632,-3.1034,-3.0998,-3.0201,-2.8625,-2.87,-2.8868,-2.9126,-2.9126,-2.918,-2.9283,-2.9324,-2.9306,-2.9277,-2.9589,-2.9913,-3.0211,-3.0211,-3.0211,-3.03,-3.1102,-3.1344,-3.1374,-3.2191,-3.2324,-3.2165,-3.2141,-3.2019,-3.1868,-3.1984,-3.2355,-3.2779,-3.3019,-3.3543,-3.392,-3.332,-3.3611,-3.4055,-3.4055,-3.4166,-3.4237,-3.4074,-3.3652,-3.3097,-3.2334,-3.285,-3.2921,-3.1403,-3.1148,-3.0883,-3.0134,-2.9966,-3.0136,-3.0717,-3.0375,-3.065,-3.2167,-3.1735,-3.1689,-3.2484,-3.1819,-3.1629,-3.2282,-3.1212,-3.1099,-3.23,-3.1092,-3.0652,-3.1211,-3.036,-2.9899,-2.984,-3.015,-3.0316,-3.0316,-3.0324,-3.0305,0.0,0.0,0.0,-4.0599,0.0,0.0,0.0,-3.9845,-3.9608,-3.8736,-3.8869,-3.875,0.0,0.0,0.0,0.0,0.0,0.0,0.0,0.0,0.0,0.0,0.0,0.0,0.0,-3.5571,-3.5552,-3.5552,-3.5038,-3.4658,-3.4397,-3.4148,-3.3868,-3.3619,-3.3466,-3.2814,-3.1614,-3.1197,-3.0387,-2.9192,-2.8819,-2.8797,-2.906,-2.8955,-2.8982,-2.9148,-2.9148,-2.9137,-2.9129,-2.9523,-2.9828,-3.0015,-3.015,-3.0211,-3.0235,-3.0537,-3.0603,-3.0598,-3.0909,-3.0876,-3.0745,-3.1057,-3.0806,-3.0526,-3.1195,-3.1678,-3.2082,-3.2542,-3.2928,-3.3162,-3.2796,-3.328,-3.3842,-3.3842,-3.3626,-3.3278,-3.2884,-3.2496,-3.1849,-3.0641,-3.1169,-3.1408,-3.0174,-2.9951,-2.9843,-2.9551,-2.9476,-2.9636,-3.018,-2.9897,-3.0018,-3.0956,-3.0591,-3.0507,-3.1001,-3.0977,-3.112,-3.1525,-3.1167,-3.1138,-3.1525,-3.0806,-3.0407,-3.0407,-2.9975,-2.9731,-2.9705,-2.9896,-3.0007,-3.0003,-3.0,-2.9996,0.0,0.0,0.0,0.0,0.0,-4.0346,0.0,0.0,0.0,0.0,0.0,0.0,0.0,0.0,0.0,0.0,0.0,0.0,0.0,0.0,0.0,0.0,0.0,0.0,0.0,-3.5031,-3.4908,-3.4908,-3.4908,-3.4821,-3.4604,-3.434,-3.4074,-3.382,-3.3534,-3.3013,-3.2198,-3.1401,-3.06,-2.9784,-2.898,-2.8731,-2.8936,-2.8761,-2.8809,-2.9027,-2.9027,-2.9016,-2.9049,-2.9542,-2.9722,-2.9748,-3.0079,-3.019,-3.0128,-2.9964,-2.9855,-2.9751,-2.9608,-2.9415,-2.936,-3.0005,-2.965,-2.9262,-3.0723,-3.1176,-3.1292,-3.1971,-3.2252,-3.2326,-3.2179,-3.2742,-3.333,-3.333,-3.2834,-3.2192,-3.1544,-3.1286,-3.0779,-2.9482,-2.9629,-2.9769,-2.9115,-2.9005,-2.9055,-2.9217,-2.9249,-2.9368,-2.967,-2.9578,-2.956,-2.9738,-2.9597,-2.9504,-2.9542,-3.0159,-3.0533,-3.0533,-3.1183,-3.1269,-3.0564,-3.0603,-3.0302,-2.9598,-2.9579,-2.9579,-2.9561,-2.957,-2.9617,-2.9677,-2.9678,-2.968,0.0,0.0,0.0,0.0,-3.992,0.0,0.0,0.0,-3.9836,-3.9654,0.0,0.0,0.0,0.0,0.0,0.0,0.0,0.0,0.0,0.0,0.0,0.0,0.0,0.0,0.0,0.0,-3.4908,-3.4908,-3.4908,-3.4821,-3.4604,-3.434,-3.4074,-3.382,-3.3534,-3.3013,-3.2198,-3.1401,-3.06,-2.9784,-2.898,-2.865,-2.8731,-2.865,-2.8657,-2.8755,-2.8755,-2.8718,-2.8706,-2.9279,-2.9504,-2.9504,-3.0007,-3.0079,-2.9921,-2.9905,-2.9672,-2.9365,-2.9345,-2.9195,-2.9051,-2.9131,-2.9102,-2.917,-3.0063,-3.0338,-3.0356,-3.0448,-3.098,-3.1366,-3.0668,-3.1072,-3.1672,-3.1672,-3.1599,-3.1513,-3.1415,-3.0834,-3.0283,-3.0099,-2.9555,-2.9115,-2.9023,-2.9005,-2.9017,-2.9021,-2.9021,-2.9301,-3.0042,-2.9508,-2.9403,-3.0304,-2.9595,-2.9138,-2.9314,-2.9255,-2.9225,-2.9225,-2.931,-2.931,-2.9218,-2.9285,-2.9281,-2.916,-2.916,-2.9145,-2.9089,-2.9078,-2.9254,-2.9614,-2.9607,-2.9617,0.0,0.0,0.0,0.0,0.0,0.0,-4.0231,0.0,-3.9759,0.0,0.0,0.0,0.0,0.0,0.0,0.0,-3.8398,0.0,0.0,0.0,0.0,0.0,0.0,0.0,0.0,0.0,0.0,0.0,0.0,-3.535,-3.4642,-3.434,-3.4074,-3.382,-3.3534,-3.3248,-3.2904,-3.165,-3.0835,-3.0473,-2.921,-2.8612,-2.865,-2.8612,-2.8612,-2.865,-2.865,-2.8625,-2.8637,-2.9031,-2.9204,-2.9214,-2.9634,-2.9836,-2.9872,-2.9644,-2.9436,-2.9283,-2.9181,-2.9078,-2.9005,-2.9005,-2.9005,-2.9152,-2.9971,-2.9879,-2.9592,-3.0081,-3.0448,-3.0632,-3.0283,-3.0797,-3.1397,-3.1397,-3.1035,-3.0705,-3.0705,-3.0081,-2.9489,-2.9447,-2.916,-2.8929,-2.8881,-2.8532,-2.8402,-2.8867,-2.8537,-2.8549,-2.9337,-2.9142,-2.9115,-2.9584,-2.9223,-2.8998,-2.9115,-2.9044,-2.9005,-2.9005,-2.9005,-2.9005,-2.9005,-2.9028,-2.9051,-2.9051,-2.9051,-2.9028,-2.9005,-2.9005,-2.9082,-2.9243,-2.9241,-2.9249,-4.0547,0.0,0.0,0.0,0.0,0.0,0.0,0.0,0.0,0.0,0.0,0.0,0.0,0.0,-3.8786,-3.8471,0.0,-3.8961,0.0,0.0,0.0,0.0,0.0,0.0,0.0,0.0,0.0,0.0,-3.5515,-3.5428,-3.4406,-3.4262,-3.4111,-3.3908,-3.3577,-3.3393,-3.3393,-3.1799,-3.0998,-3.098,-2.936,-2.86,-2.86,-2.86,-2.86,-2.86,-2.86,-2.86,-2.8625,-2.8897,-2.9004,-2.9038,-2.9297,-2.9514,-2.9681,-2.9405,-2.928,-2.9195,-2.9055,-2.9005,-2.9005,-2.9005,-2.9005,-2.9115,-2.9672,-2.9452,-2.9133,-2.969,-2.9867,-2.9879,-2.9879,-3.0301,-3.0742,-3.0742,-3.0289,-2.9837,-2.9837,-2.9373,-2.8935,-2.8881,-2.8881,-2.8858,-2.881,-2.8353,-2.8187,-2.8778,-2.8388,-2.8205,-2.8808,-2.8881,-2.8893,-2.8947,-2.8905,-2.8893,-2.8947,-2.897,-2.8982,-2.9005,-2.9005,-2.9005,-2.9005,-2.9005,-2.9005,-2.9005,-2.8785,-2.8785,-2.9005,-2.8565,-2.8565,-2.9005,-2.9005,-2.9005,0.0,0.0,0.0,-4.0452,0.0,0.0,0.0,0.0,-3.946,0.0,0.0,0.0,0.0,-3.6479,-3.6798,-3.5859,-3.6383,0.0,0.0,0.0,0.0,0.0,0.0,0.0,0.0,0.0,0.0,-3.5058,-3.502,-3.4651,-3.3781,-3.4034,-3.4197,-3.4185,-3.3671,-3.3393,-3.3393,-3.1799,-3.0998,-3.098,-2.936,-2.86,-2.86,-2.86,-2.86,-2.86,-2.86,-2.86,-2.8625,-2.8897,-2.9004,-2.9016,-2.9075,-2.9158,-2.923,-2.9283,-2.9192,-2.9017,-2.9005,-2.9005,-2.9005,-2.9005,-2.9005,-2.8994,-2.8947,-2.8959,-2.8994,-2.8947,-2.8989,-2.9042,-2.9042,-2.906,-2.9078,-2.9078,-2.9007,-2.8942,-2.8942,-2.8876,-2.8816,-2.8798,-2.8798,-2.8798,-2.8798,-2.8779,-2.8761,-2.8798,-2.8779,-2.8761,-2.8798,-2.8798,-2.8798,-2.8798,-2.8798,-2.8798,-2.8798,-2.887,-2.8929,-2.8994,-2.9005,-2.9005,-2.9005,-2.9005,-2.9005,-2.9005,-2.8246,-2.8227,-2.9005,-2.7427,-2.7482,-2.9005,-2.9005,-2.9005,0.0,0.0,-3.7563,-3.8957,0.0,0.0,0.0,0.0,0.0,0.0,0.0,0.0,0.0,-3.6348,-3.6814,-3.6446,-3.7115,-3.7642,0.0,0.0,0.0,0.0,0.0,0.0,0.0,0.0,0.0,-3.4308,-3.4204,-3.397,0.0,-3.3374,-3.3525,-3.3915,-3.3591,-3.3393,-3.3393,-3.1799,-3.0998,-3.098,-2.936,-2.86,-2.86,-2.86,-2.86,-2.86,-2.86,-2.86,-2.86,-2.8706,-2.8743,-2.8737,-2.8857,-2.888,-2.888,-2.8938,-2.8945,-2.8929,-2.8929,-2.8952,-2.8994,-2.894,-2.8929,-2.8917,-2.8858,-2.8846,-2.887,-2.8893,-2.8881,-2.887,-2.8917,-2.8929,-2.8917,-2.887,-2.8881,-2.8893,-2.8846,-2.881,-2.8785,-2.8749,-2.8718,-2.8724,-2.8675,-2.8662,-2.8675,-2.8737,-2.8276,-2.813,-2.8676,-2.8718,-2.8749,-2.8785,-2.8761,-2.8749,-2.8785,-2.8822,-2.8846,-2.8876,-2.8876,-2.8876,-2.8876,-2.8876,-2.862,-2.8084,-2.781,-2.7547,-2.7273,-2.6724,-2.6743,-2.7291,-2.7828,-2.8423,-3.7939,-3.7363,0.0,-3.8082,-3.7712,0.0,-3.8144,0.0,0.0,0.0,0.0,0.0,0.0,0.0,-3.6462,-3.6413,-3.6864,-3.7199,0.0,-3.673,0.0,0.0,0.0,0.0,0.0,0.0,-3.5545,-3.3523,-3.3631,-3.3562,0.0,0.0,-3.3228,-3.3928,-3.3591,-3.3393,-3.3393,-3.1799,-3.0998,-3.098,-2.936,-2.86,-2.86,-2.86,-2.86,-2.86,-2.86,-2.86,-2.86,-2.86,-2.86,-2.8612,-2.8724,-2.8749,-2.8706,-2.881,-2.8846,-2.887,-2.8893,-2.8929,-2.897,-2.8917,-2.8905,-2.8893,-2.8798,-2.8773,-2.8743,-2.8487,-2.8585,-2.8737,-2.8492,-2.865,-2.8858,-2.881,-2.8822,-2.8822,-2.8773,-2.8749,-2.8712,-2.8675,-2.8563,-2.8469,-2.8435,-2.8344,-2.8375,-2.8619,-2.8221,-2.8076,-2.8602,-2.8563,-2.8495,-2.8551,-2.8435,-2.8383,-2.8448,-2.843,-2.8461,-2.8474,-2.8216,-2.8084,-2.8084,-2.7808,-2.7681,-2.7711,-2.6892,-2.6633,-2.6935,-2.6068,-2.5809,-2.6121,-2.6892,-2.7441]},{"header":{"parameterUnit":"m.s-1","parameterCategory":1,"la1":30.6,"la2":29.2853,"lo1":-89.7004,"lo2":-87.6739,"dy":0.0162,"dx":0.0183,"nx":112,"ny":82,"refTime":"2023-07-16T12:00:00:Z","depth":0,"parameterNumber":3,"parameterNumberName":"V-component_of_WINDS"},"data":[0.0,0.0,0.0,0.0,0.0,0.0,0.0,0.0,0.0,0.0,0.0,0.0,0.0,0.0,0.0,0.0,0.0,0.0,0.0,0.0,0.0,0.0,0.0,0.0,0.0,0.0,0.0,0.0,0.0,0.0,0.0,0.0,0.0,0.0,0.0,0.0,0.0,0.0,0.0,0.0,0.0,0.0,0.0,0.0,0.0,0.0,0.0,0.0,0.0,0.0,0.0,0.0,0.0,0.0,0.0,0.0,0.0,0.0,0.0,0.0,0.0,0.0,0.0,0.0,0.0,0.0,0.0,0.0,0.0,0.0,0.0,0.0,0.0,0.0,0.0,0.0,0.0,0.0,0.0,0.0,0.0,0.0,0.0,0.0,0.0,0.0,0.0,0.0,0.0,0.0,-1.097,-1.2244,-1.5577,-1.834,-1.9747,-1.9977,-1.9078,-1.6839,0.0,0.0,0.0,0.0,0.0,0.0,0.0,0.0,0.0,0.0,0.0,0.0,0.0,0.0,0.0,0.0,0.0,0.0,0.0,0.0,0.0,0.0,0.0,0.0,0.0,0.0,0.0,0.0,0.0,0.0,0.0,0.0,0.0,0.0,0.0,0.0,0.0,0.0,0.0,0.0,0.0,0.0,0.0,0.0,0.0,0.0,0.0,0.0,0.0,0.0,0.0,0.0,0.0,0.0,0.0,0.0,0.0,0.0,0.0,0.0,0.0,0.0,0.0,0.0,0.0,0.0,0.0,0.0,0.0,0.0,0.0,0.0,0.0,0.0,0.0,0.0,0.0,0.0,0.0,0.0,0.0,0.0,0.0,0.0,0.0,0.0,0.0,0.0,0.0,0.0,0.0,0.0,0.0,0.0,0.0,0.0,0.0,0.0,0.0,0.0,0.0,0.0,0.0,0.0,-1.3135,-1.604,-1.6979,-1.8089,-1.9729,-1.9295,-1.8294,-1.6797,0.0,0.0,0.0,0.0,0.0,0.0,0.0,0.0,0.0,0.0,0.0,0.0,0.0,0.0,0.0,0.0,0.0,0.0,0.0,0.0,0.0,0.0,0.0,0.0,0.0,0.0,0.0,0.0,0.0,0.0,0.0,0.0,0.0,0.0,0.0,0.0,0.0,0.0,0.0,0.0,0.0,0.0,0.0,0.0,0.0,0.0,0.0,0.0,0.0,0.0,0.0,0.0,0.0,0.0,0.0,0.0,0.0,0.0,0.0,0.0,0.0,0.0,0.0,0.0,0.0,0.0,0.0,0.0,0.0,0.0,0.0,0.0,0.0,0.0,0.0,0.0,0.0,0.0,0.0,0.0,0.0,0.0,0.0,0.0,0.0,0.0,0.0,0.0,0.0,0.0,0.0,0.0,0.0,0.0,0.0,0.0,0.0,0.0,0.0,0.0,0.0,0.0,0.0,-1.3082,-1.4609,-1.6577,-1.7708,-1.8652,-1.9369,-1.8849,-1.8022,-1.6992,-1.6844,0.0,0.0,0.0,0.0,0.0,0.0,0.0,0.0,0.0,0.0,0.0,0.0,0.0,0.0,0.0,0.0,0.0,0.0,0.0,0.0,0.0,0.0,0.0,0.0,0.0,0.0,0.0,0.0,0.0,0.0,0.0,0.0,0.0,0.0,0.0,0.0,0.0,0.0,0.0,0.0,0.0,0.0,0.0,0.0,0.0,0.0,0.0,0.0,0.0,0.0,0.0,0.0,0.0,0.0,0.0,0.0,0.0,0.0,0.0,0.0,0.0,0.0,0.0,0.0,0.0,0.0,0.0,0.0,0.0,0.0,0.0,0.0,0.0,0.0,0.0,0.0,0.0,0.0,0.0,0.0,0.0,0.0,0.0,0.0,0.0,0.0,0.0,0.0,0.0,0.0,0.0,0.0,0.0,0.0,0.0,0.0,0.0,0.0,0.0,0.0,0.0,0.0,-1.4542,-1.5201,-1.658,-1.8033,-1.8891,-1.8891,-1.8348,-1.7724,-1.7043,-1.6371,0.0,0.0,0.0,0.0,0.0,0.0,0.0,0.0,0.0,0.0,0.0,0.0,0.0,0.0,0.0,0.0,0.0,0.0,0.0,0.0,0.0,0.0,0.0,0.0,0.0,0.0,0.0,0.0,0.0,0.0,0.0,0.0,0.0,0.0,0.0,0.0,0.0,0.0,0.0,0.0,0.0,0.0,0.0,0.0,0.0,0.0,0.0,0.0,0.0,0.0,0.0,0.0,0.0,0.0,0.0,0.0,0.0,0.0,0.0,0.0,0.0,0.0,0.0,0.0,0.0,0.0,0.0,0.0,0.0,0.0,0.0,0.0,0.0,0.0,0.0,0.0,0.0,0.0,0.0,0.0,0.0,0.0,0.0,0.0,0.0,0.0,0.0,0.0,0.0,0.0,0.0,0.0,0.0,0.0,0.0,0.0,0.0,0.0,0.0,0.0,0.0,0.0,-1.418,-1.4489,-1.7482,-1.8106,-1.8348,-1.8348,-1.763,-1.7043,-1.674,-1.5953,0.0,0.0,0.0,0.0,0.0,0.0,0.0,0.0,0.0,0.0,0.0,0.0,0.0,0.0,0.0,0.0,0.0,0.0,0.0,0.0,0.0,0.0,0.0,0.0,0.0,0.0,0.0,0.0,0.0,0.0,0.0,0.0,0.0,0.0,0.0,0.0,0.0,0.0,0.0,0.0,0.0,0.0,0.0,0.0,0.0,0.0,0.0,0.0,0.0,0.0,0.0,0.0,0.0,0.0,0.0,0.0,0.0,0.0,0.0,0.0,0.0,0.0,0.0,0.0,0.0,0.0,0.0,0.0,0.0,0.0,0.0,0.0,0.0,0.0,0.0,0.0,0.0,0.0,0.0,0.0,0.0,0.0,0.0,0.0,0.0,0.0,0.0,0.0,0.0,0.0,0.0,0.0,0.0,0.0,0.0,0.0,0.0,0.0,0.0,0.0,0.0,0.0,-1.5162,-1.5788,0.0,-1.8028,-1.8294,-1.8294,-1.7734,-1.7265,-1.6989,0.0,0.0,0.0,0.0,0.0,0.0,0.0,0.0,0.0,0.0,0.0,0.0,0.0,0.0,0.0,0.0,0.0,0.0,0.0,0.0,0.0,0.0,0.0,0.0,0.0,0.0,0.0,0.0,0.0,0.0,0.0,0.0,0.0,0.0,0.0,0.0,0.0,0.0,0.0,0.0,0.0,0.0,0.0,0.0,0.0,0.0,0.0,0.0,0.0,0.0,0.0,0.0,0.0,0.0,0.0,0.0,0.0,0.0,0.0,0.0,0.0,0.0,0.0,0.0,0.0,0.0,0.0,0.0,0.0,0.0,0.0,0.0,0.0,0.0,0.0,0.0,0.0,0.0,0.0,0.0,0.0,0.0,0.0,0.0,0.0,0.0,0.0,0.0,0.0,0.0,0.0,0.0,0.0,0.0,0.0,0.0,0.0,0.0,0.0,0.0,0.0,0.0,-1.4105,-1.5077,-1.5936,0.0,-1.7515,-1.781,-1.7784,-1.7293,-1.6948,-1.68,0.0,0.0,0.0,0.0,0.0,0.0,0.0,0.0,0.0,0.0,0.0,0.0,0.0,0.0,0.0,0.0,0.0,0.0,0.0,0.0,0.0,0.0,0.0,0.0,0.0,0.0,0.0,0.0,0.0,0.0,0.0,0.0,0.0,0.0,0.0,0.0,0.0,0.0,0.0,0.0,0.0,0.0,0.0,0.0,0.0,0.0,0.0,0.0,0.0,0.0,0.0,0.0,0.0,0.0,0.0,0.0,0.0,0.0,0.0,0.0,0.0,0.0,0.0,0.0,0.0,0.0,0.0,0.0,0.0,0.0,0.0,0.0,0.0,0.0,0.0,0.0,0.0,0.0,0.0,0.0,0.0,0.0,0.0,0.0,0.0,0.0,0.0,0.0,0.0,0.0,0.0,0.0,0.0,0.0,0.0,0.0,0.0,0.0,0.0,0.0,0.0,0.0,-1.2726,-1.3514,-1.4523,-1.6138,-1.6537,-1.6697,-1.6697,-1.6231,-1.6003,0.0,0.0,0.0,0.0,0.0,0.0,0.0,0.0,0.0,0.0,0.0,0.0,0.0,0.0,0.0,0.0,0.0,0.0,0.0,0.0,0.0,0.0,0.0,0.0,0.0,0.0,0.0,0.0,0.0,0.0,0.0,0.0,0.0,0.0,0.0,0.0,0.0,0.0,0.0,0.0,0.0,0.0,0.0,0.0,0.0,0.0,0.0,0.0,0.0,0.0,0.0,0.0,0.0,0.0,0.0,0.0,0.0,0.0,0.0,0.0,0.0,0.0,0.0,0.0,0.0,0.0,0.0,0.0,0.0,0.0,0.0,0.0,0.0,0.0,0.0,0.0,0.0,0.0,0.0,0.0,0.0,0.0,0.0,0.0,0.0,0.0,0.0,0.0,0.0,0.0,0.0,0.0,0.0,0.0,0.0,0.0,0.0,0.0,0.0,0.0,0.0,0.0,0.0,-1.3449,-1.4427,-1.5252,-1.5976,-1.6417,-1.671,-1.6678,-1.6188,-1.5855,-1.592,0.0,0.0,0.0,0.0,0.0,0.0,0.0,0.0,0.0,0.0,0.0,0.0,0.0,0.0,0.0,0.0,0.0,0.0,0.0,0.0,0.0,0.0,0.0,0.0,0.0,0.0,0.0,0.0,0.0,0.0,0.0,0.0,0.0,0.0,0.0,0.0,0.0,0.0,0.0,0.0,0.0,0.0,0.0,0.0,0.0,0.0,0.0,0.0,0.0,0.0,0.0,0.0,0.0,0.0,0.0,0.0,0.0,0.0,0.0,0.0,0.0,0.0,0.0,0.0,0.0,0.0,0.0,0.0,0.0,0.0,0.0,0.0,0.0,0.0,0.0,0.0,0.0,0.0,0.0,0.0,0.0,0.0,0.0,0.0,0.0,0.0,0.0,0.0,0.0,0.0,0.0,0.0,0.0,0.0,0.0,0.0,0.0,0.0,0.0,0.0,0.0,0.0,-1.3101,-1.4242,-1.5119,-1.539,-1.5919,-1.6246,-1.6246,-1.5985,-1.5791,-1.5658,0.0,0.0,0.0,0.0,0.0,0.0,0.0,0.0,0.0,0.0,0.0,0.0,0.0,0.0,0.0,0.0,0.0,0.0,0.0,0.0,0.0,0.0,0.0,0.0,0.0,0.0,0.0,0.0,0.0,0.0,0.0,0.0,0.0,0.0,0.0,0.0,0.0,0.0,0.0,0.0,0.0,0.0,0.0,0.0,0.0,0.0,0.0,0.0,0.0,0.0,0.0,0.0,0.0,0.0,0.0,0.0,0.0,0.0,0.0,0.0,0.0,0.0,0.0,0.0,0.0,0.0,0.0,0.0,0.0,0.0,0.0,0.0,0.0,0.0,0.0,0.0,0.0,0.0,0.0,0.0,0.0,0.0,0.0,0.0,0.0,0.0,0.0,0.0,0.0,0.0,0.0,0.0,0.0,0.0,0.0,0.0,0.0,0.0,0.0,0.0,0.0,0.0,-1.2314,-1.3438,-1.4455,-1.4684,-1.522,-1.5563,-1.5515,-1.5752,-1.5726,-1.5391,0.0,0.0,0.0,0.0,0.0,0.0,0.0,0.0,0.0,0.0,0.0,0.0,0.0,0.0,0.0,0.0,0.0,0.0,0.0,0.0,0.0,0.0,0.0,0.0,0.0,0.0,0.0,0.0,0.0,0.0,0.0,0.0,0.0,0.0,0.0,0.0,0.0,0.0,0.0,0.0,0.0,0.0,0.0,0.0,0.0,0.0,0.0,0.0,0.0,0.0,0.0,0.0,0.0,0.0,0.0,0.0,0.0,0.0,0.0,0.0,0.0,0.0,0.0,0.0,0.0,0.0,0.0,0.0,0.0,0.0,0.0,0.0,0.0,0.0,0.0,0.0,0.0,0.0,0.0,0.0,0.0,0.0,0.0,0.0,0.0,0.0,0.0,0.0,0.0,0.0,0.0,0.0,0.0,0.0,0.0,0.0,0.0,0.0,0.0,0.0,0.0,0.0,-1.32,-1.4019,-1.4697,-1.4967,-1.5498,-1.5813,-1.5803,-1.5621,-1.5391,-1.5077,-1.4606,0.0,0.0,0.0,0.0,0.0,0.0,0.0,0.0,0.0,0.0,0.0,0.0,0.0,0.0,0.0,0.0,0.0,0.0,0.0,0.0,0.0,0.0,0.0,0.0,0.0,0.0,0.0,0.0,0.0,0.0,0.0,0.0,0.0,0.0,0.0,0.0,0.0,0.0,0.0,0.0,0.0,0.0,0.0,0.0,0.0,0.0,0.0,0.0,0.0,0.0,0.0,0.0,0.0,0.0,0.0,0.0,0.0,0.0,0.0,0.0,0.0,0.0,0.0,0.0,0.0,0.0,0.0,0.0,0.0,0.0,0.0,0.0,0.0,0.0,0.0,0.0,0.0,0.0,0.0,0.0,0.0,0.0,0.0,0.0,0.0,0.0,0.0,0.0,0.0,0.0,0.0,0.0,0.0,0.0,0.0,0.0,0.0,0.0,0.0,0.0,0.0,-1.3465,-1.3847,-1.4264,-1.4655,-1.5196,-1.5499,-1.5499,-1.5548,-1.5424,-1.5035,-1.472,0.0,0.0,0.0,0.0,0.0,0.0,0.0,0.0,0.0,0.0,0.0,0.0,0.0,0.0,0.0,0.0,0.0,0.0,0.0,0.0,0.0,0.0,0.0,0.0,0.0,0.0,0.0,0.0,0.0,0.0,0.0,0.0,0.0,0.0,0.0,0.0,0.0,0.0,0.0,0.0,0.0,0.0,0.0,0.0,0.0,0.0,0.0,0.0,0.0,0.0,0.0,0.0,0.0,0.0,0.0,0.0,0.0,0.0,0.0,0.0,0.0,0.0,0.0,0.0,0.0,0.0,0.0,0.0,0.0,0.0,0.0,0.0,0.0,0.0,0.0,0.0,0.0,0.0,0.0,0.0,0.0,0.0,0.0,0.0,0.0,0.0,0.0,-0.7988,-0.7988,0.0,0.0,0.0,0.0,0.0,0.0,0.0,0.0,0.0,0.0,0.0,0.0,-1.3182,-1.3459,-1.3859,-1.4393,-1.4885,-1.5172,-1.5226,-1.5601,-1.5578,-1.5042,-1.4961,-1.4536,0.0,0.0,0.0,0.0,0.0,0.0,0.0,0.0,0.0,0.0,0.0,0.0,0.0,0.0,0.0,0.0,0.0,0.0,0.0,0.0,0.0,0.0,0.0,0.0,0.0,0.0,0.0,0.0,0.0,0.0,0.0,0.0,0.7888,0.8008,0.0,0.0,0.0,0.0,0.0,0.0,0.0,0.0,0.0,0.0,0.0,0.0,0.0,0.0,0.0,0.0,0.0,0.0,0.0,0.0,0.0,0.0,0.0,0.0,0.0,0.0,0.0,-0.0056,0.0,0.0,0.0,0.0,0.0,0.0,0.0,0.0,0.0,0.0,0.0,0.0,0.0,0.0,0.0,0.0,0.0,0.0,0.0,0.0,0.0,0.0,-0.7988,-0.7988,-0.7988,-0.7988,0.0,-0.7838,-0.7611,-0.7458,0.0,0.0,0.0,0.0,0.0,0.0,0.0,0.0,-1.2244,-1.3378,-1.44,-1.4956,-1.5267,-1.5547,-1.5689,-1.5784,-1.5578,-1.5042,-1.4723,-1.4416,-1.4041,-1.354,0.0,0.0,0.0,0.0,0.0,0.0,0.0,0.0,0.0,0.0,0.0,0.0,0.0,0.0,0.0,0.0,0.0,0.0,0.0,0.0,0.0,0.0,0.0,0.0,0.0,0.0,0.0,0.0,0.0,0.8111,0.8322,0.8306,0.8211,0.7977,0.0,0.0,0.0,0.0,0.0,0.0,0.0,0.0,0.0,0.2726,0.1188,0.0256,0.0,0.0,0.0,0.0,0.0,0.0,0.0,0.0,0.0,0.0,0.0,0.0,0.0,0.0,-0.0058,-0.0222,0.0,0.0,0.0,0.0,0.0,-0.4651,-0.4648,-0.5406,0.0,0.0,0.0,0.0,0.0,0.0,0.0,0.0,0.0,0.0,0.0,0.0,0.0,-0.7988,-0.7988,-0.7988,-0.7988,-0.7872,-0.7699,0.0,-0.7499,-0.764,-0.8527,0.0,0.0,0.0,0.0,-1.1469,-1.2233,-1.3078,-1.4008,-1.5003,-1.5356,-1.554,-1.5635,-1.5584,-1.5404,-1.5035,-1.4683,-1.4315,-1.3854,-1.3553,-1.34,0.0,0.0,0.0,0.0,0.0,0.0,0.0,0.0,0.0,0.0,0.0,0.0,0.0,0.0,0.0,0.0,0.0,0.0,0.0,0.0,0.0,0.0,0.0,0.0,0.0,0.0,0.0,0.0,0.8679,0.8855,0.8625,0.8738,0.8605,0.0,0.0,0.0,0.0,0.0,0.0,0.845,0.63,0.4823,0.4423,0.2024,0.0551,0.0142,0.0142,0.0071,0.0,0.0,0.0,0.0,0.0,0.0,0.0,0.0,0.0,0.0,0.0,0.0,0.0,-0.0281,-0.0868,-0.163,-0.1919,-0.2645,-0.3549,-0.3666,-0.449,-0.5627,-0.6019,0.0,-0.8092,-0.8002,0.0,0.0,0.0,0.0,-0.7988,-0.7988,-0.7988,-0.7988,-0.7988,-0.7988,-0.7988,-0.7988,-0.7901,-0.7858,0.0,-0.7695,-0.7794,-0.8398,0.0,0.0,0.0,0.0,-1.0794,-1.1682,-1.2375,-1.3317,-1.4669,-1.4968,-1.5207,-1.554,-1.5471,-1.5179,-1.4662,-1.4324,-1.3896,-1.3396,-1.3233,-1.3178,-1.3287,0.0,0.0,0.0,0.0,0.0,0.0,0.0,0.0,0.0,0.0,0.0,0.0,0.0,0.0,0.0,0.0,0.0,0.0,0.0,0.0,0.0,0.0,0.0,0.0,0.0,0.0,0.0,0.0,0.0,0.8912,0.9676,0.0,0.0,0.0,0.0,0.8579,0.8775,0.8676,0.8171,0.637,0.5035,0.4258,0.2306,0.1024,0.0593,0.0593,0.0369,0.0,0.0,0.0,0.0,0.0,0.0,0.0,0.0,0.0,0.0,0.0,0.0,0.0,-0.029,-0.045,-0.0491,-0.0764,-0.0918,-0.1014,-0.1357,-0.2157,-0.3301,-0.4707,-0.6585,-0.8231,-0.8032,-0.7988,0.0,0.0,-0.7988,-0.7988,-0.7988,-0.7988,-0.7988,-0.7988,-0.7988,-0.7988,-0.7988,-0.7985,-0.7934,0.0,-0.7695,-0.7597,-0.7634,0.0,-0.7825,-0.7735,-0.9012,-0.9998,-0.9931,-1.1192,-1.2543,-1.3806,-1.3956,-1.4484,-1.5683,-1.5565,-1.4897,-1.374,-1.3375,-1.3057,-1.2778,-1.2198,-1.241,-1.3573,-1.2766,0.0,0.0,0.0,0.0,0.0,0.0,0.0,0.0,0.0,0.0,0.0,0.0,0.0,0.0,0.0,0.0,0.0,0.0,0.0,0.0,0.0,0.0,0.0,0.0,0.0,0.0,0.0,0.0,0.9589,1.0103,0.0,0.9717,0.9597,0.9603,0.9824,0.9968,1.0156,1.0348,0.8851,0.7325,0.5833,0.414,0.2488,0.0978,0.0752,0.0521,0.0365,0.0146,0.0,0.0,0.0,0.0,0.0,0.0,0.0,0.0,0.0,0.0,0.0,-0.0121,-0.0117,-0.017,-0.0226,-0.0391,-0.0551,-0.0665,-0.1538,-0.2859,-0.4237,-0.5749,-0.7048,-0.7001,-0.7437,-0.7988,-0.7988,-0.7988,-0.7988,-0.7988,-0.7988,-0.7988,-0.7988,-0.7988,-0.7988,-0.7988,-0.7988,-0.7975,-0.7921,-0.7838,-0.7736,-0.7736,-0.7702,-0.7658,-0.7607,-0.8295,-0.9082,-0.9731,-1.0466,-1.137,-1.249,-1.2775,-1.3004,-1.3413,-1.3304,-1.2938,-1.23,-1.1946,-1.1912,-1.2239,-1.1842,-1.2089,-1.3066,-1.2559,-1.2351,0.0,0.0,0.0,0.0,0.0,0.0,0.0,0.0,0.0,0.0,0.0,0.0,0.0,0.0,0.0,0.0,0.0,0.0,0.0,0.0,0.0,0.0,0.0,0.0,0.0,0.0,0.9981,0.9913,1.0548,1.0806,1.0463,1.0429,1.0551,1.085,1.106,1.1369,1.1823,1.0488,0.8814,0.7032,0.5259,0.3381,0.1439,0.0833,0.0598,0.0584,0.0219,0.0,0.0,0.0,0.0,0.0,0.0,0.0,0.0,0.0,0.0,0.0,0.0,0.0,0.0,0.0,-0.0114,-0.028,-0.039,-0.1379,-0.2768,-0.3609,-0.4796,-0.5932,-0.6284,-0.6886,-0.7537,-0.7889,-0.7988,-0.7988,-0.7988,-0.7988,-0.7988,-0.7988,-0.7988,-0.7988,-0.7988,-0.7988,-0.7988,-0.7988,-0.7907,-0.7889,-0.7889,-0.7811,-0.7746,-0.7746,-0.8025,-0.8522,-0.9235,-0.9628,-1.0243,-1.1263,-1.156,-1.1758,-1.2052,-1.2314,-1.2079,-1.1089,-1.1123,-1.1266,-1.1513,-1.1293,-1.1754,-1.2906,-1.2643,-1.2405,-1.2305,0.0,0.0,0.0,0.0,0.0,0.0,0.0,0.0,0.0,0.0,0.0,0.0,0.0,0.0,0.0,0.0,0.0,0.0,0.0,0.0,0.0,0.0,0.0,0.8781,0.9897,1.0517,0.9951,1.104,1.1555,1.0839,1.1294,1.1636,1.1647,1.1911,1.2138,1.2294,1.088,0.9306,0.7593,0.5558,0.364,0.1893,0.106,0.0598,0.0656,0.0219,0.0,0.0,0.0,0.0,0.0,0.0,0.0,0.0,0.0,0.0,0.0,0.0,0.0,0.0,0.0,0.0,-0.0056,-0.0275,-0.1476,-0.2821,-0.2829,-0.3678,-0.4924,-0.6032,-0.6387,-0.6637,-0.769,-0.7988,-0.7988,-0.7988,-0.7988,-0.7988,-0.7988,-0.7988,-0.7988,-0.7988,-0.7988,-0.7988,-0.7988,-0.7988,-0.7988,-0.7988,-0.7988,-0.7988,-0.7988,-0.8233,0.0,-0.8382,-0.8627,-0.9167,-1.0293,-1.0391,-1.0838,-1.1952,-1.2813,-1.2358,-1.0168,-1.0897,-1.1116,-1.0565,-1.0549,-1.1398,-1.314,-1.2924,-1.263,-1.2305,0.0,0.0,0.0,0.0,0.0,0.0,0.0,0.0,0.0,0.0,0.0,0.0,0.0,0.0,0.0,0.0,0.0,0.0,0.0,0.0,0.0,0.0,1.0371,0.99,1.0446,1.0917,1.1246,1.1704,1.1962,1.1867,1.1908,1.203,1.2244,1.224,1.2338,1.2596,1.2073,1.1017,0.9384,0.7589,0.5805,0.4081,0.2118,0.1191,0.1367,0.0432,0.0142,0.0347,0.0138,0.0,0.0,0.0,0.0,0.0,0.0,0.0,0.0,0.0,0.0,0.0,0.0,0.0,0.0,-0.011,-0.0543,-0.1123,-0.1307,-0.2251,-0.3571,-0.4876,-0.5782,-0.6637,-0.769,-0.7988,-0.7988,-0.7988,-0.7988,-0.7988,-0.7988,-0.7988,-0.7988,-0.7988,-0.7988,-0.7988,-0.7988,-0.7988,-0.7988,-0.7988,-0.7988,-0.7988,-0.7988,-0.8088,0.0,-0.8088,-0.8187,-0.8726,-0.9998,-1.0293,-1.0492,-1.0711,-1.1049,-1.046,-0.8694,-0.8736,-0.8947,-0.9227,-0.9787,-1.086,-1.2514,-1.2465,-1.2385,0.0,0.0,0.0,0.0,0.0,0.0,0.0,0.0,0.0,0.0,0.0,0.0,0.0,0.0,0.0,0.0,0.0,0.0,0.0,0.0,0.0,0.0,1.0966,1.1418,1.1389,1.1517,1.1684,1.1887,1.2115,1.2281,1.2369,1.2355,1.2386,1.2491,1.2484,1.2522,1.2627,1.2552,1.1721,1.0083,0.8172,0.6466,0.4908,0.2483,0.1408,0.1731,0.0861,0.0495,0.0554,0.0345,0.0136,0.0,0.0,0.0,0.0,0.0,0.0,0.0,0.0,0.0,0.0,0.0,0.0,0.0,0.0,-0.0161,-0.0425,-0.0725,-0.1426,-0.2469,-0.4273,-0.5227,-0.6032,-0.7587,-0.7988,-0.7988,-0.7988,-0.7988,-0.7988,-0.7988,-0.7988,-0.7988,-0.7988,-0.7988,-0.7988,-0.7988,0.0,0.0,-0.7907,-0.7948,-0.7988,-0.7988,-0.7988,-0.7988,-0.7988,-0.7988,-0.8287,-0.9069,-0.9312,-0.9413,-0.9384,-0.9923,0.0,0.0,0.0,-0.8707,-0.8841,-0.9625,0.0,0.0,0.0,-1.2083,0.0,0.0,0.0,0.0,-1.2385,-1.2392,0.0,0.0,0.0,0.0,0.0,0.0,0.0,0.0,0.0,0.0,0.0,0.0,0.0,0.0,0.0,0.0,1.1736,1.2297,1.2888,1.289,1.2714,1.2261,1.2342,1.2515,1.2549,1.2661,1.2688,1.2586,1.2671,1.2678,1.2559,0.0,0.0,0.0,0.0,0.6327,0.5199,0.2608,0.1472,0.1814,0.1362,0.0991,0.0698,0.0552,0.034,0.0067,0.0,0.0,0.0,0.0,0.0,0.0,0.0,0.0,0.0,0.0,0.0,0.0,0.0,0.0,0.0,-0.0664,-0.096,-0.1564,-0.3874,-0.4674,-0.5225,-0.7235,-0.7889,-0.7988,-0.7988,-0.7988,-0.7988,-0.7988,-0.7988,-0.7988,-0.7988,-0.7975,-0.7965,-0.7965,-0.7951,-0.7897,-0.7811,-0.7913,-0.7965,-0.7965,-0.7951,0.0,-0.7961,-0.7965,-0.8014,-0.8209,0.0,0.0,-0.8457,-0.9429,-0.9466,-0.8052,-0.8906,-0.9343,-0.8987,-0.9701,-1.0517,-1.1417,-1.1455,-1.1721,-1.2305,-1.2305,-1.2305,-1.2305,-1.2305,-1.2305,0.0,0.0,0.0,0.0,0.0,0.0,0.0,0.0,0.0,0.0,0.0,0.0,0.0,0.0,0.0,1.2527,1.2934,1.3385,1.378,1.3979,1.3804,1.3031,1.2699,1.26,1.2847,1.2786,1.2817,1.3027,1.2847,1.2773,1.2868,1.2528,0.0,1.187,0.8758,0.6998,0.6763,0.3382,0.1808,0.212,0.0,0.0,0.1357,0.0744,0.0472,0.0404,0.0135,0.0,0.0,0.0,0.0,0.0,0.0,0.0,0.0,0.0,0.0,0.0,0.0,-0.0053,-0.0104,-0.0407,-0.0657,-0.1161,-0.2719,-0.3922,0.0,-0.6334,-0.7338,-0.7988,-0.7988,-0.7988,-0.7988,-0.7988,-0.7988,-0.7988,-0.7988,-0.7894,-0.7855,-0.7855,-0.7763,-0.7675,-0.7645,-0.776,-0.7855,-0.7855,-0.7756,-0.7726,-0.7841,-0.7855,-0.824,-0.934,-0.9567,-0.9607,-0.9571,-0.9655,-0.9108,-0.7746,-0.7663,-0.7832,-0.8261,-0.8593,-0.9461,-1.0903,-1.1103,-1.1534,-1.2305,-1.2305,-1.2305,-1.2305,-1.2305,-1.2305,0.0,0.0,0.0,0.0,0.0,0.0,0.0,0.0,0.0,0.0,0.0,1.5719,1.4972,0.0,1.3537,1.3239,1.3616,1.4027,1.433,1.4408,1.4133,1.3509,1.3046,1.2904,1.3141,1.3006,1.2908,1.3057,1.2929,1.2813,1.2735,1.245,1.2254,1.2179,0.9697,0.7945,0.7185,0.4567,0.2858,0.2175,0.1799,0.1644,0.1632,0.1216,0.0875,0.0471,0.0334,0.0132,0.0,0.0,0.0,0.0,0.0,0.0,0.0,0.0,0.0,0.0,0.0,0.0,-0.0052,-0.0306,-0.0606,-0.106,-0.2418,-0.3371,-0.4325,-0.5934,-0.6786,-0.7338,-0.7839,-0.7988,-0.7988,-0.7988,-0.7931,-0.7877,-0.7877,-0.7811,-0.7706,-0.7706,-0.7648,-0.7577,-0.7499,-0.7543,-0.7617,-0.7692,-0.7645,-0.7628,-0.7695,-0.7706,-0.794,-0.8646,-0.877,-0.8811,-0.8782,-0.8694,-0.8332,-0.7653,-0.7454,-0.7524,-0.7739,-0.7965,-0.8605,-0.9712,-0.9863,-1.0507,-1.1706,-1.1706,-1.1892,-1.2305,-1.2305,-1.2305,0.0,0.0,0.0,0.0,0.0,0.0,0.0,1.7197,1.7492,1.7976,1.7104,1.6204,1.595,1.4852,1.3909,1.378,1.4018,1.4351,1.4708,1.4521,1.4287,1.3964,1.3535,1.3318,1.3512,1.3328,1.3174,1.3205,1.3101,1.2881,1.2606,1.24,1.222,1.2067,1.0375,0.8697,0.7164,0.542,0.3737,0.2167,0.2206,0.2055,0.178,0.1692,0.1277,0.0737,0.0593,0.0325,0.0,0.0,0.0,0.0,0.0,0.0,0.0,0.0,0.0,0.0,0.0,0.0,-0.0053,-0.0255,-0.0505,-0.0909,-0.2066,-0.272,-0.3475,-0.5281,-0.6084,-0.6587,-0.7487,-0.7816,-0.7944,-0.7944,-0.7879,-0.777,-0.777,-0.7655,-0.7556,-0.7556,-0.7529,-0.7472,-0.735,-0.7326,-0.7377,-0.7533,-0.7529,-0.7522,-0.7553,-0.7556,-0.7556,-0.7556,-0.7584,-0.7629,-0.7654,-0.7555,-0.7493,-0.7431,-0.7514,-0.7479,-0.7243,-0.7509,-0.7986,-0.8627,-0.8661,-0.9415,-1.0881,-1.1037,-1.1446,-1.2077,-1.2224,-1.2305,1.673,1.659,1.6842,1.7858,1.7963,1.8182,0.0,1.9685,1.9635,1.9879,1.8093,1.6511,1.6669,1.5027,1.3792,1.4054,1.4278,1.4529,1.4887,1.4604,1.4536,1.4851,1.433,1.3997,1.4316,1.3955,1.3778,1.3923,1.3472,1.3078,1.2918,1.2515,1.222,1.2067,1.0197,0.8431,0.6929,0.523,0.3583,0.2204,0.2174,0.216,0.2159,0.1751,0.1538,0.1451,0.0771,0.0317,0.0,0.0,0.0,0.0,0.0,0.0,0.0,0.0,0.0,0.0,0.0,0.0,0.0,-0.0051,-0.0202,-0.0505,-0.0909,-0.1865,-0.292,-0.3423,-0.4931,-0.6437,-0.6537,-0.7196,-0.7838,-0.7838,-0.7729,-0.7624,-0.7624,-0.7506,-0.7443,-0.7443,-0.7285,-0.7142,-0.7125,-0.7122,-0.7217,-0.7373,-0.7282,-0.7241,-0.738,-0.7443,-0.7443,-0.7443,-0.7519,-0.7536,-0.7429,-0.7258,-0.7047,-0.6826,-0.6995,-0.6975,-0.6719,-0.7057,-0.762,-0.8423,-0.8618,-0.915,-1.0045,-1.0769,-1.1149,-1.126,-1.1966,-1.2305,1.7512,1.7519,1.7778,1.8296,1.8791,1.9248,1.9911,2.0266,2.0305,1.9859,1.8546,1.7242,1.6608,1.5106,1.4038,0.0,1.4383,1.4558,1.4915,1.4659,1.4485,1.4635,1.4509,1.4446,1.4555,1.4027,1.384,1.4176,1.3557,1.3112,1.2958,1.2457,1.205,1.1813,1.0954,0.9718,0.8171,0.6499,0.4916,0.3391,0.2565,0.2222,0.2221,0.2003,0.1642,0.1221,0.0698,0.0314,0.0,0.0,0.0,0.0,0.0,0.0,0.0,0.0,0.0,0.0,0.0,0.0,0.0,0.0,-0.0202,-0.0404,-0.0556,-0.106,-0.1811,-0.2733,-0.3593,-0.4602,-0.592,-0.658,-0.7012,-0.7563,-0.7577,-0.7465,-0.7465,-0.7346,-0.7238,-0.7238,-0.7139,-0.7095,-0.7095,-0.7095,-0.7119,-0.7227,-0.7136,-0.7119,-0.7227,-0.7238,-0.7238,-0.7238,-0.7295,-0.7272,-0.7126,-0.7011,-0.6883,-0.6715,-0.6947,-0.6971,-0.6709,-0.6974,-0.7278,-0.751,-0.771,-0.8241,-0.9021,-0.997,-1.0651,-1.1111,-1.1929,-1.2305,1.8109,1.8271,1.8589,1.8996,1.9782,2.0309,2.0099,2.0433,2.051,1.9593,1.8487,1.7417,1.6629,1.5417,1.4492,1.442,1.4473,1.4539,1.4773,1.4469,1.4249,1.4351,1.4395,1.4404,1.4448,1.4114,1.3996,1.4234,1.3563,1.307,1.2952,1.2388,1.1962,1.1748,1.1474,1.0572,0.901,0.7413,0.5827,0.43,0.2893,0.2222,0.222,0.2106,0.1739,0.1136,0.0751,0.0435,0.0123,0.0062,0.0,0.0,0.0,0.0,0.0,0.0,0.0,0.0,0.0,0.0,0.0,0.0,-0.0152,-0.0303,-0.0354,-0.0554,-0.0899,-0.1967,-0.2512,-0.32,-0.483,-0.5683,-0.6275,-0.6992,-0.7234,-0.7309,-0.7309,-0.7221,-0.7095,-0.7095,-0.7095,-0.7095,-0.7095,-0.7095,-0.7095,-0.7095,-0.7095,-0.7095,-0.7095,-0.7095,-0.7095,-0.7095,-0.7095,-0.7038,-0.69,-0.6886,-0.6848,-0.6651,-0.6884,-0.6935,-0.6741,-0.6929,-0.6988,-0.6903,-0.7061,-0.7403,-0.8003,-0.8983,-0.9895,-1.0694,-1.1558,-1.2077,1.8201,1.8555,1.9103,2.0307,2.1117,2.1425,2.0628,2.0524,2.0329,1.9414,1.7778,1.6629,1.6919,1.6056,1.5051,1.4517,1.4563,1.4598,1.442,1.3926,1.3798,1.4144,1.3884,1.3819,0.0,1.4223,1.4288,1.4299,1.3513,1.312,1.3112,1.2447,1.2132,1.2125,1.1477,1.047,0.901,0.7274,0.5704,0.43,0.2893,0.2222,0.2218,0.2062,0.183,0.1448,0.104,0.0731,0.0432,0.0123,0.0,0.0,0.0,0.0,0.0,0.0,0.0,0.0,0.0,0.0,0.0,0.0,0.0,-0.0051,-0.0303,-0.0399,-0.0491,-0.0785,-0.179,-0.2807,-0.29,-0.4398,-0.5899,-0.5942,-0.6529,-0.7102,-0.7102,-0.7098,-0.7095,-0.7095,-0.7095,-0.7095,-0.7095,-0.7095,-0.7095,-0.7095,-0.7095,-0.7095,-0.7095,-0.7095,-0.7095,-0.7095,-0.7095,-0.7038,-0.69,-0.6886,-0.68,-0.6538,-0.6685,-0.6738,-0.6616,-0.6799,-0.6907,-0.6903,-0.6903,-0.6903,-0.6942,-0.7965,-0.8874,-0.9669,-1.0657,-1.1558,1.8953,1.9596,2.0156,2.0417,2.0751,2.0774,1.992,1.9813,1.951,1.8195,1.7073,1.6114,1.5223,1.4665,1.4257,1.4182,1.435,1.4601,1.476,1.433,1.3957,1.3839,1.3819,0.0,0.0,0.0,0.0,1.4362,1.3652,1.3133,1.3022,1.2554,1.2161,1.1772,1.1375,1.0954,1.0467,0.876,0.7102,0.5633,0.3294,0.22,0.2158,0.2041,0.182,0.1491,0.1339,0.0968,0.0486,0.0365,0.0181,0.0,0.0,0.0,0.0,0.0,0.0,0.0,0.0,0.0,0.0,0.0,0.0,0.0,-0.0101,-0.0149,-0.0196,-0.0483,-0.0862,-0.1419,-0.2347,-0.3121,-0.3998,-0.5433,-0.5969,-0.634,-0.6962,-0.7095,-0.7095,-0.7095,-0.7095,-0.7095,-0.7095,-0.7095,-0.7095,-0.7095,-0.7095,-0.7095,-0.7095,-0.7095,-0.7095,-0.7095,-0.7095,-0.7038,-0.69,-0.6886,-0.68,-0.6532,-0.6555,-0.6529,-0.6419,-0.6349,-0.6377,-0.6486,-0.6495,-0.6567,-0.6714,-0.7702,-0.8347,-0.8613,-0.9631,-1.0533,2.0234,2.0622,2.0718,2.0801,2.0493,1.9865,1.87,1.857,1.8162,1.6658,1.5898,1.5185,1.4177,1.3893,1.3855,1.3775,1.3953,1.4259,1.4559,1.4206,1.3874,1.3823,1.3819,1.3697,0.0,0.0,0.0,1.4026,1.3595,1.3228,1.3127,1.2627,1.2149,1.1839,1.1394,1.1138,1.1087,0.9417,0.7636,0.5633,0.3811,0.2632,0.2047,0.2017,0.1863,0.1652,0.1446,0.114,0.0663,0.054,0.0296,0.0,0.0,0.0,0.0,0.0,0.0,0.0,0.0,0.0,0.0,0.0,0.0,0.0,0.0,0.0,-0.0048,-0.0191,-0.0377,-0.0695,-0.1624,-0.2487,-0.3502,-0.4886,-0.5716,-0.6384,-0.6962,-0.7095,-0.7095,-0.7095,-0.7095,-0.7095,-0.7095,-0.7095,-0.7095,-0.7095,-0.7095,-0.7095,-0.7095,-0.7095,-0.7095,-0.7095,-0.7095,-0.7038,-0.69,-0.6886,-0.682,-0.6569,-0.6542,-0.647,-0.6378,-0.619,-0.6132,-0.6176,-0.6246,-0.6356,-0.6478,-0.7291,-0.7855,-0.8232,-0.8955,-0.9863,2.1956,2.1584,2.0957,2.1498,2.0413,1.8835,1.7303,1.6915,1.6443,1.4885,1.4246,1.3877,1.3651,1.3797,1.3765,1.3213,1.3494,1.3804,1.3908,1.3591,1.3573,1.4151,1.3888,1.3742,1.3888,0.0,0.0,1.3384,0.0,1.3305,1.3313,1.2606,1.2252,1.2173,1.1517,1.1087,1.0884,0.9378,0.7238,0.45,0.4368,0.3499,0.2083,0.205,0.196,0.1871,0.1543,0.1248,0.0963,0.0592,0.0291,0.0,0.0,0.0,0.0,0.0,0.0,0.0,0.0,0.0,0.0,0.0,0.0,0.0,0.0,0.0,0.0,0.0,-0.0324,-0.0673,-0.0673,-0.2416,-0.4154,-0.42,-0.5625,-0.6962,-0.7007,-0.7051,-0.7095,-0.7095,-0.7095,-0.7095,-0.7095,-0.7095,-0.7095,-0.7095,-0.7095,-0.7095,-0.7095,-0.7095,-0.7095,-0.7095,-0.7095,-0.7041,-0.691,-0.6896,-0.6871,-0.6712,-0.6563,-0.6518,-0.6501,-0.6358,-0.6173,-0.5996,-0.6159,-0.627,-0.627,-0.6646,-0.7329,-0.8277,-0.8509,-0.9492,2.2971,2.2854,2.2285,2.1838,2.0203,1.8245,1.6876,1.5894,1.4998,1.4099,1.348,1.2975,1.2602,1.2838,1.3169,1.3302,1.3955,0.0,1.5082,1.4843,1.4567,1.4664,1.435,1.4144,1.392,1.3819,0.0,0.0,1.3461,1.3284,1.3138,1.3005,1.2526,1.1838,1.1581,1.1257,1.088,0.9378,0.824,0.7503,0.5301,0.3998,0.3581,0.2469,0.1951,0.1962,0.1849,0.1595,0.1302,0.1165,0.0802,0.0281,0.0275,0.0162,0.0,0.0,0.0,0.0,0.0,0.0,0.0,0.0,0.0,0.0,0.0,0.0,0.0,0.0,-0.0092,-0.0269,-0.0628,-0.1165,-0.188,-0.2999,-0.4156,-0.5223,-0.5897,-0.6609,-0.7095,-0.7095,-0.7095,-0.7095,-0.7095,-0.7095,-0.7095,-0.7095,-0.7095,-0.7095,-0.7095,-0.7095,-0.7095,-0.7095,-0.7095,-0.7082,-0.7045,-0.7041,-0.6933,-0.6715,-0.6664,-0.6542,-0.6364,-0.6098,-0.5952,-0.599,-0.5854,-0.5829,-0.593,-0.604,-0.628,-0.6722,-0.74,-0.8365,2.3916,2.3242,2.2144,2.1539,1.9433,1.7243,1.6064,1.4954,1.4014,1.3287,1.272,1.2276,1.2039,1.2191,1.2521,1.3032,1.3677,1.4387,1.5206,1.511,1.5042,1.514,1.4906,1.4617,1.4274,1.418,1.4062,0.0,1.3709,1.3514,1.3249,1.318,1.2758,1.2096,1.1871,1.1521,1.1051,1.0019,0.9119,0.835,0.6688,0.5232,0.3959,0.3078,0.239,0.1915,0.0,0.1691,0.1397,0.1374,0.0958,0.0388,0.0381,0.0214,0.0,0.0,0.0,0.0,0.0,0.0,0.0,0.0,0.0,0.0,0.0,0.0,0.0,0.0,-0.0091,-0.0224,-0.0493,-0.1031,-0.1703,-0.2509,-0.3534,-0.4556,-0.5494,-0.6118,-0.6609,-0.7007,-0.7095,-0.7095,-0.7095,-0.7095,-0.7095,-0.7095,-0.7095,-0.7095,-0.7095,-0.7095,-0.7095,-0.7095,-0.7095,-0.7095,-0.7095,-0.7095,-0.7001,-0.6814,-0.6736,-0.6597,-0.6402,-0.6061,-0.5911,-0.5928,-0.5769,-0.5726,-0.5846,-0.5915,-0.6022,-0.6237,-0.6726,-0.7464,2.4693,2.3133,2.1239,2.086,1.8546,1.609,1.5201,1.426,1.3362,1.2493,1.1996,1.1798,1.1746,1.1779,1.2035,1.2756,1.3183,1.3845,1.4913,1.5087,1.5252,1.5657,1.5497,1.5177,1.4784,1.4538,1.4363,1.4192,1.3985,1.3721,1.3388,1.3245,1.2954,1.2602,1.2127,1.1658,1.1185,1.0833,0.9891,0.8411,0.819,0.6609,0.4008,0.3756,0.303,0.1789,0.0,0.0,0.1435,0.1408,0.1054,0.0492,0.049,0.032,0.0052,0.0,0.0,0.0,0.0,0.0,0.0,0.0,0.0,0.0,0.0,0.0,0.0,0.0,-0.0182,-0.0359,-0.0403,-0.1299,-0.2239,-0.2239,-0.3175,-0.4289,-0.5095,-0.5497,-0.5941,-0.6741,-0.7007,-0.7095,-0.7095,-0.7095,-0.7095,-0.7095,-0.7095,-0.7095,-0.7095,-0.7095,-0.7095,-0.7095,-0.7095,-0.7095,-0.7095,-0.7095,-0.7028,-0.6866,-0.6773,-0.6624,-0.6491,-0.6156,-0.5935,-0.5803,-0.5762,-0.5786,-0.5827,-0.5969,-0.6104,-0.6309,-0.638,-0.6836,2.4528,2.3084,2.1254,2.0209,1.8017,1.5926,1.5029,1.3976,1.289,1.1883,1.1751,1.1713,1.1368,1.1586,1.2077,1.2885,1.3514,1.435,1.5557,1.5755,1.5886,1.628,1.5844,1.5472,1.524,1.4687,0.0,0.0,0.0,1.3595,1.338,1.3401,1.3046,1.2363,1.1688,1.1276,1.1181,1.0792,1.0317,0.9888,0.8509,0.7048,0.5504,0.4197,0.2958,0.1877,0.0,0.0,0.1722,0.1725,0.148,0.1145,0.0901,0.0627,0.0311,0.0102,0.0,0.0,0.0,0.0,0.0,0.0,0.0,0.0,0.0,0.0,0.0,0.0,-0.0045,-0.0135,-0.0359,-0.0583,-0.0807,-0.0986,-0.1926,-0.2864,-0.2998,-0.4469,-0.5764,-0.5897,-0.6564,-0.7095,-0.7095,-0.7095,-0.7095,-0.7095,-0.7095,-0.7095,-0.7095,-0.7095,-0.7095,-0.7095,-0.7095,-0.7095,-0.7095,-0.7095,-0.6984,-0.6756,-0.6715,-0.658,-0.6347,-0.6003,-0.5827,-0.58,-0.5597,-0.546,-0.55,-0.5494,-0.5605,-0.5765,-0.6356,-0.6789,2.3131,2.1643,2.0077,1.91,1.7366,1.563,1.4557,1.3299,1.2186,1.1364,1.1269,1.1345,1.1359,1.1524,1.1898,1.2625,1.3088,1.3797,1.5049,1.5374,1.576,1.6268,1.5918,1.5524,1.5299,1.4757,1.4322,1.4054,0.0,1.366,1.3384,1.3193,1.2904,1.2441,1.178,1.1308,1.114,1.0551,1.011,0.9808,0.8988,0.7877,0.6481,0.5127,0.3923,0.2753,0.2107,0.0,0.1792,0.1778,0.1582,0.1277,0.1161,0.0832,0.0409,0.0405,0.0251,0.0,0.0148,0.0096,0.0,0.0,0.0,0.0,0.0,0.0,0.0,0.0,0.0,-0.0045,-0.018,-0.0314,-0.0403,-0.0538,-0.1568,-0.2508,-0.2508,-0.3801,-0.4959,-0.4959,-0.5314,-0.5802,-0.6296,-0.6384,-0.6517,-0.7007,-0.7095,-0.7095,-0.7095,-0.7095,-0.7095,-0.7095,-0.7095,-0.7095,-0.7095,-0.7095,-0.697,-0.6719,-0.6702,-0.6569,-0.6313,-0.604,-0.5881,-0.5803,-0.5589,-0.5474,-0.5395,-0.5395,-0.5425,-0.5488,-0.5848,-0.6046,2.1334,1.9926,1.8593,1.7754,1.6522,1.5147,1.3778,1.2651,1.1685,1.0972,1.0896,1.1061,1.1387,1.1449,1.1652,1.2222,1.2521,1.3084,1.4383,1.4847,1.5405,1.6108,1.5938,1.5576,1.5261,1.4769,0.0,1.3815,0.0,0.0,1.3271,1.2917,1.2657,1.2511,1.1894,1.143,1.1108,1.0355,0.9821,0.9381,0.9381,0.8606,0.7134,0.623,0.5054,0.3598,0.2572,0.0,0.0,0.1762,0.1617,0.1403,0.1312,0.0984,0.0606,0.0758,0.0549,0.0196,0.0342,0.0238,0.0092,0.0,0.0,0.0,0.0,0.0,0.0,0.0,0.0,0.0,0.0,-0.0135,-0.0314,-0.0403,-0.1254,-0.206,-0.2105,-0.3041,-0.3933,-0.3933,-0.4111,-0.4556,-0.5272,-0.5586,-0.5941,-0.6697,-0.6962,-0.7095,-0.7095,-0.7095,-0.7095,-0.7095,-0.7095,-0.7095,-0.7095,-0.7095,-0.697,-0.6719,-0.6702,-0.6569,-0.6313,-0.6112,-0.5922,-0.5803,-0.5661,-0.5549,-0.5395,-0.5395,-0.5395,-0.5395,-0.5395,-0.5395,1.9611,1.8611,1.7506,1.6157,1.5238,1.4313,1.2856,1.228,1.1822,1.0811,1.0905,1.1179,1.1217,1.1227,1.143,1.201,1.2133,1.2645,1.4137,1.47,1.5214,1.6065,1.6203,1.5848,1.5216,1.4748,1.4231,1.3514,0.0,0.0,1.2889,1.2548,1.2349,1.2328,1.1791,1.1379,1.1104,1.0386,0.979,0.9381,0.9381,0.8711,0.7363,0.725,0.5941,0.3771,0.3491,0.0,0.0,0.1748,0.1669,0.1608,0.1328,0.1165,0.1111,0.0859,0.0749,0.0686,0.0481,0.0377,0.0323,0.0091,0.0,0.0,0.0,0.0,0.0,0.0,0.0,0.0,0.0,0.0,-0.009,-0.0359,-0.0493,-0.0628,-0.0807,-0.1836,-0.2686,-0.2686,-0.3532,-0.4334,-0.4423,-0.5137,-0.5719,-0.5808,-0.6564,-0.7095,-0.7095,-0.7095,-0.7095,-0.7095,-0.7095,-0.7095,-0.7095,-0.7095,-0.697,-0.6719,-0.6702,-0.6569,-0.6313,-0.6112,-0.5922,-0.5803,-0.5661,-0.5549,-0.5395,-0.5395,-0.5395,-0.5395,-0.5395,-0.5395,1.831,1.7501,1.6574,1.559,1.4808,1.391,1.2509,1.1902,1.1383,1.0712,1.0811,1.1052,1.1175,1.1194,1.1279,1.1529,1.1572,1.1907,1.281,1.3367,1.4076,1.5285,1.5344,1.5248,0.0,0.0,1.3964,0.0,0.0,0.0,1.2349,1.2324,1.2255,1.2142,1.1656,1.116,1.0599,1.0116,0.9682,0.9303,0.9337,0.9116,0.859,0.7758,0.6832,0.5695,0.4186,0.0,0.0,0.1953,0.1667,0.1634,0.147,0.1364,0.1209,0.1231,0.102,0.077,0.066,0.0554,0.0363,0.009,0.0,0.0,0.0,0.0,0.0,0.0,0.0,0.0,0.0,0.0,-0.0045,-0.0135,-0.0269,-0.0403,-0.0493,-0.0986,-0.1479,-0.1613,-0.206,-0.2596,-0.3312,-0.3758,-0.4204,-0.4781,-0.5672,-0.6251,-0.6251,-0.6741,-0.7095,-0.7095,-0.7095,-0.7095,-0.7095,-0.7095,-0.697,-0.6719,-0.6702,-0.6569,-0.6313,-0.6242,-0.6095,-0.5942,-0.5884,-0.5739,-0.5532,-0.5532,-0.5484,-0.5395,-0.5395,-0.5395,1.6514,1.6183,1.5692,1.5182,1.4477,1.3622,1.2434,1.1789,1.1246,1.0768,1.0834,1.1028,1.117,1.1194,1.1194,1.1194,1.1194,1.1416,1.1996,1.2502,1.3216,1.4421,0.0,1.4569,0.0,1.4075,1.341,0.0,0.0,0.0,0.0,1.2028,1.2032,1.1959,1.1534,1.1086,1.0554,1.0153,0.9784,0.9507,0.949,0.9483,0.949,0.8416,0.7601,0.6974,0.0,0.0,0.0,0.2596,0.21,0.2051,0.1692,0.1441,0.1287,0.1446,0.1283,0.099,0.093,0.0776,0.0538,0.0224,0.0135,0.009,0.0045,0.0,0.0,0.0,0.0,0.0,0.0,0.0,0.0,0.0,-0.0135,-0.0269,-0.0269,-0.0448,-0.0673,-0.0852,-0.0942,-0.1256,-0.2195,-0.2598,-0.3044,-0.3755,-0.4692,-0.5272,-0.5272,-0.5849,-0.6381,-0.665,-0.6697,-0.6786,-0.7095,-0.7095,-0.697,-0.6719,-0.6702,-0.6569,-0.6313,-0.63,-0.6186,-0.5996,-0.5993,-0.5905,-0.565,-0.561,-0.5569,-0.5463,-0.5416,-0.5395,1.4146,1.4477,1.4828,1.469,1.4161,1.3471,1.2575,1.2057,1.1633,1.1019,1.1052,1.1194,1.1194,1.1194,1.1194,1.1194,1.1194,1.1416,1.1996,1.2502,1.3055,1.3627,1.4066,1.415,1.3658,1.3028,1.2503,0.0,0.0,0.0,0.0,1.1606,1.1589,1.1776,1.1598,1.1382,1.1087,1.0561,1.0301,1.0301,0.9828,0.9704,0.9896,0.9393,0.8395,0.0,0.0,0.0,0.0,0.3631,0.3184,0.3079,0.1922,0.1479,0.1479,0.1478,0.1507,0.1435,0.1203,0.1095,0.1031,0.0538,0.0403,0.0359,0.009,0.0,0.0,0.0,0.0,0.0,0.0,0.0,0.0,0.0,0.0,0.0,0.0,-0.0224,-0.0403,-0.0403,-0.0583,-0.0807,-0.1076,-0.1881,-0.2597,-0.2867,-0.3712,-0.4334,-0.4334,-0.4334,-0.469,-0.563,-0.5719,-0.6074,-0.7007,-0.7095,-0.697,-0.6719,-0.6702,-0.6569,-0.6313,-0.63,-0.6186,-0.5996,-0.5993,-0.5919,-0.58,-0.5657,-0.5589,-0.5586,-0.5467,-0.5395,1.3798,1.397,1.383,1.3618,1.3197,1.2654,1.1964,1.1595,1.1298,1.0967,1.1057,1.1194,1.1194,1.1194,1.1194,1.1194,1.1194,1.1264,1.1468,1.1884,1.2497,1.341,1.391,1.4055,0.0,0.0,0.0,0.0,0.0,0.0,0.0,1.165,1.1715,1.1776,1.1472,1.1253,1.1087,1.0679,1.0476,1.0476,0.9881,0.9707,0.9892,0.9289,0.0,0.0,0.0,0.0,0.0,0.462,0.3741,0.3022,0.2634,0.2495,0.2517,0.2494,0.2434,0.2399,0.2137,0.1623,0.1031,0.0538,0.0403,0.0359,0.009,0.0,0.0,0.0,0.0,0.0,0.0,0.0,0.0,0.0,0.0,0.0,0.0,-0.0045,-0.018,-0.0359,-0.0448,-0.0583,-0.0807,-0.1076,-0.13,-0.1389,-0.2372,-0.3087,-0.3087,-0.3799,-0.4423,-0.469,-0.4736,-0.5403,-0.6962,-0.7095,-0.7014,-0.6868,-0.6759,-0.661,-0.6453,-0.6351,-0.6276,-0.6186,-0.6186,-0.6061,-0.58,-0.5755,-0.563,-0.5467,-0.5419,-0.5395,1.2876,1.3085,1.2999,1.2862,1.2517,1.2106,1.1718,1.1406,1.1161,1.1038,1.1109,1.1194,1.1194,1.1194,1.1194,1.1194,1.1194,1.1173,1.1159,1.1597,1.2196,1.2999,1.3447,0.0,0.0,0.0,0.0,0.0,0.0,0.0,0.0,1.1581,1.1602,1.1671,1.1447,1.1265,1.1264,1.0785,1.0603,1.072,0.996,0.9673,0.9736,0.904,0.0,0.0,0.0,0.0,0.0,0.5563,0.4703,0.4034,0.3587,0.3449,0.3478,0.3434,0.3429,0.3416,0.3235,0.2552,0.1703,0.1299,0.0852,0.0359,0.009,0.0,0.0,0.0,0.0,0.0,0.0,0.0,0.0,0.0,0.0,0.0,0.0,0.0,-0.0045,-0.0224,-0.0269,-0.0314,-0.0538,-0.0583,-0.0628,-0.0673,-0.1344,-0.1836,-0.1836,-0.246,-0.3084,-0.3441,-0.3487,-0.4107,-0.5664,-0.6248,-0.6684,-0.6893,-0.6783,-0.663,-0.6518,-0.6375,-0.63,-0.63,-0.63,-0.6173,-0.5888,-0.5776,-0.5596,-0.5395,-0.5395,-0.5395,0.0,1.2001,1.2297,1.2297,1.2006,1.1775,1.1775,1.1472,0.0,1.1194,1.1194,1.1194,1.1194,1.1194,1.1194,1.1194,1.1194,1.1166,1.1116,1.1587,1.2053,0.0,1.2655,0.0,1.2481,0.0,0.0,0.0,0.0,0.0,0.0,1.1423,1.1309,1.1455,1.1447,1.1447,1.1459,1.0941,1.0776,1.0948,1.0025,0.9577,0.9544,0.8853,0.0,0.0,0.0,0.0,0.0,0.6449,0.5976,0.5775,0.477,0.4423,0.4423,0.4423,0.4423,0.4423,0.4423,0.3801,0.2956,0.2597,0.1568,0.0359,0.009,0.0,0.0,0.0,0.0,0.0,0.0,0.0,0.0,0.0,0.0,0.0,0.0,0.0,0.0,0.0,0.0,-0.009,-0.0314,-0.0359,-0.0448,-0.0628,-0.0673,-0.0673,-0.0673,-0.0673,-0.1031,-0.1925,-0.2014,-0.2415,-0.3393,-0.4823,-0.5978,-0.6721,-0.6751,-0.6644,-0.6518,-0.6385,-0.631,-0.63,-0.6279,-0.6159,-0.5976,-0.5718,-0.5535,-0.5395,-0.5395,-0.5395,1.092,0.0,1.1487,1.1487,1.1416,1.134,0.0,1.1264,1.1194,1.1194,1.1194,1.1194,1.1194,1.1194,1.1194,1.1194,1.1194,1.1114,1.0919,1.1576,1.2183,1.2508,1.2788,1.2885,1.2555,0.0,0.0,0.0,0.0,0.0,0.0,1.1403,1.133,1.1102,1.0956,1.0948,1.1094,1.0766,1.0599,1.0757,0.9902,0.952,0.9437,0.8906,0.0,0.0,0.0,0.0,0.7421,0.7152,0.6524,0.5712,0.546,0.5361,0.5361,0.5361,0.5361,0.5361,0.5361,0.4736,0.3799,0.282,0.1568,0.0403,0.0314,0.018,0.0,0.0,0.0,0.0,0.0,0.0,0.0,0.0,0.0,0.0,0.0,0.0,0.0,0.0,0.0,0.0,-0.009,-0.009,-0.009,-0.018,-0.0359,-0.0448,-0.0448,-0.0583,-0.0807,-0.0986,-0.1031,-0.1433,-0.2371,-0.4289,-0.5486,-0.5542,-0.6373,-0.6753,-0.6521,-0.648,-0.6412,-0.6303,-0.6067,-0.5891,-0.5854,-0.5593,-0.5429,-0.5395,-0.5395,-0.5395,1.0556,1.0806,1.1002,1.1002,1.1002,1.0998,1.085,1.085,1.085,1.0998,1.1002,1.1002,1.1002,1.1002,1.1002,1.1002,1.09,1.0852,1.0977,1.1374,1.181,1.2204,1.2445,1.2464,0.0,0.0,0.0,0.0,0.0,0.0,0.0,1.1289,1.1167,1.1033,1.0712,1.066,1.0842,1.0515,1.0343,1.0318,0.9748,0.9357,0.9093,0.8682,0.8182,0.0,0.0,0.0,0.7265,0.7265,0.6901,0.634,0.634,0.634,0.634,0.634,0.634,0.634,0.634,0.5716,0.4736,0.353,0.2638,0.1878,0.1254,0.0941,0.0718,0.0135,0.0,0.0,0.0,0.0,0.0,0.0,0.0,0.0,0.0,0.0,0.0,0.0,0.0,0.0,0.0,0.0,0.0,0.0,-0.0135,-0.0224,-0.0224,-0.0314,-0.0359,-0.0359,-0.0359,-0.0583,-0.1076,-0.2728,-0.3955,-0.4389,-0.4953,-0.5354,-0.5636,-0.5556,-0.5737,-0.6103,-0.5919,-0.58,-0.58,-0.5539,-0.5395,-0.5395,-0.5395,-0.5395,1.0265,1.0507,1.0708,1.0708,1.0757,1.0654,1.0462,1.0413,1.0511,1.0752,1.085,1.0855,1.0806,1.085,1.0855,1.0806,1.0609,1.0643,1.1146,1.1134,1.1268,1.1774,1.1841,0.0,0.0,0.0,0.0,0.0,0.0,0.0,0.0,1.1118,1.0915,1.0887,1.0538,1.042,1.0566,1.0322,1.0026,0.9847,0.9645,0.9253,0.8735,0.8411,0.8016,0.0,0.0,0.0,0.7095,0.7095,0.7095,0.7095,0.7095,0.7095,0.7095,0.7095,0.7095,0.7095,0.7095,0.6476,0.5542,0.451,0.4063,0.366,0.2459,0.1924,0.1567,0.0494,0.009,0.0,0.0,0.0,0.0,0.0,0.0,0.0,0.0,0.0,0.0,0.0,0.0,0.0,0.0,0.0,0.0,0.0,0.0,0.0,0.0,0.0,0.0,0.0,0.0,0.0,0.0,-0.0942,-0.1966,-0.2978,-0.3223,-0.365,-0.4375,-0.4316,-0.4714,-0.5674,-0.5667,-0.5705,-0.5769,-0.5552,-0.5419,-0.5395,-0.5395,-0.5395,0.9969,1.0068,1.0167,1.0413,1.0458,1.0462,1.0413,1.056,1.0752,1.0801,1.0998,1.1047,1.085,1.0998,1.1047,1.085,1.0786,1.0889,0.0,0.0,1.1289,1.145,0.0,0.0,0.0,0.0,0.0,0.0,0.0,0.0,0.0,1.0928,1.0668,1.0521,1.016,0.9981,1.0006,0.9953,0.9839,0.9665,0.9615,0.9231,0.8627,0.8557,0.8142,0.0,0.0,0.7285,0.7095,0.7095,0.7095,0.7095,0.7095,0.7095,0.7095,0.7095,0.7095,0.7095,0.7095,0.6476,0.5675,0.5494,0.4732,0.384,0.3443,0.2594,0.1701,0.13,0.0629,0.0,0.0,0.0,0.0,0.0,0.0,0.0,0.0,0.0,0.0,0.0,0.0,0.0,0.0,0.0,0.0,0.0,0.0,0.0,0.0,0.0,0.0,0.0,0.0,0.0,0.0,-0.018,-0.0357,-0.0525,-0.2424,-0.3558,-0.3505,-0.3527,-0.3906,-0.4696,-0.4886,-0.5171,-0.5623,-0.5579,-0.5521,-0.5395,-0.5395,-0.5395,0.9772,0.9772,0.9826,0.9924,1.0068,1.0167,1.0019,1.0068,1.0167,1.0364,1.0462,1.0507,1.0413,1.0462,1.0528,1.0487,1.0703,1.0894,1.0903,1.0966,1.0986,0.0,0.0,0.0,0.0,0.0,0.0,0.0,0.0,0.0,0.0,0.0,1.0371,1.029,1.0026,0.9839,0.9746,0.9648,0.9608,0.9478,0.9384,0.9104,0.8638,0.8413,0.8108,0.778,0.0,0.7252,0.7323,0.7143,0.7095,0.7095,0.7095,0.7095,0.7095,0.7095,0.7095,0.7095,0.7095,0.683,0.6473,0.6473,0.6068,0.5489,0.4779,0.4198,0.3575,0.2639,0.1211,0.0,0.0,0.0,0.0,0.0,0.0,0.0,0.0,0.0,0.0,0.0,0.0,0.0,0.0,0.0,0.0,0.0,0.0,0.0,0.0,0.0,0.0,0.0,0.0,0.0,0.0,0.0,0.0,0.0,-0.1603,-0.2473,-0.239,-0.3418,-0.4156,-0.4485,-0.4989,-0.5364,-0.5589,-0.5542,-0.5463,-0.5395,-0.5395,-0.5395,0.9567,0.9579,0.9579,0.9579,0.9776,0.9883,0.9731,0.9739,0.985,1.0091,1.0166,1.0136,1.0136,1.0147,1.0191,1.0466,1.068,1.0836,1.0924,1.0916,1.0875,0.0,0.0,0.0,0.0,0.0,0.0,0.0,0.0,0.0,0.0,0.0,1.0151,1.0151,0.988,0.9697,0.9563,0.934,0.9298,0.9339,0.9161,0.8932,0.8648,0.8341,0.8129,0.8039,0.746,0.7323,0.7462,0.7231,0.7095,0.7095,0.7095,0.7095,0.7095,0.7095,0.7095,0.7095,0.7095,0.7095,0.7095,0.7095,0.7095,0.6918,0.6027,0.5583,0.5134,0.3976,0.2238,0.0673,0.0404,0.0314,0.0269,0.0045,0.0,0.0,0.0,0.0,0.0,0.0,0.0,0.0,0.0,0.0,0.0,0.0,0.0,0.0,0.0,0.0,0.0,0.0,0.0,0.0,0.0,0.0,0.0,0.0,-0.0776,-0.1239,-0.1216,-0.2692,-0.3606,-0.3849,-0.4675,-0.5159,-0.5309,-0.5436,-0.5463,-0.5395,-0.5395,-0.5395,0.9485,0.9579,0.9579,0.9579,0.9628,0.9669,0.9831,1.0074,1.0336,1.0501,1.0608,1.0639,1.0639,1.0486,1.059,1.1236,1.0997,1.0924,1.1329,0.0,0.0,0.0,0.0,0.0,0.0,0.0,0.0,0.0,0.0,0.0,0.0,0.0,0.0,0.9904,0.962,0.9433,0.942,0.9031,0.8946,0.9116,0.9104,0.8918,0.8526,0.8469,0.8286,0.7915,0.7598,0.7462,0.7462,0.7231,0.7095,0.7095,0.7095,0.7095,0.7095,0.7095,0.7095,0.7095,0.7095,0.7095,0.7095,0.7095,0.7095,0.7051,0.6792,0.6077,0.5314,0.4954,0.3974,0.2728,0.1569,0.1301,0.1077,0.0225,0.0,0.0,0.0,0.0,0.0,0.0,0.0,0.0,0.0,0.0,0.0,0.0,0.0,0.0,0.0,0.0,0.0,0.0,0.0,0.0,0.0,0.0,0.0,0.0,-0.008,-0.0118,-0.0118,-0.0431,-0.1006,-0.1889,-0.2996,-0.3823,-0.4397,-0.5316,-0.563,-0.5395,-0.5395,-0.5395,0.9393,0.9543,0.9579,0.9579,0.9579,0.9673,0.9847,1.0091,1.0319,1.0395,1.0651,1.0848,1.0733,1.039,1.031,1.0897,1.0853,1.0844,1.11,0.0,0.0,0.0,0.0,0.0,0.0,0.0,0.0,0.0,0.0,0.0,0.0,0.0,0.0,0.9397,0.9263,0.9137,0.9023,0.8889,0.88,0.8767,0.8767,0.869,0.8577,0.8391,0.8311,0.83,0.79,0.7768,0.7724,0.7455,0.7234,0.7095,0.7095,0.7095,0.7095,0.7095,0.7095,0.7095,0.7095,0.7095,0.7095,0.7095,0.7095,0.7095,0.701,0.6741,0.6425,0.6163,0.5669,0.4779,0.2996,0.2418,0.2106,0.1122,0.0853,0.0718,0.0135,0.0,0.0,0.0,0.0,0.0,0.0,0.0,0.0,0.0,0.0,0.0,0.0,0.0,0.0,0.0,0.0,0.0,0.0,0.0,0.0,0.0,-0.0118,-0.0196,-0.0196,-0.0812,-0.1335,-0.17,-0.2549,-0.3069,-0.3313,-0.3696,-0.3855,-0.3849,-0.4223,-0.4459,0.8693,0.9111,0.9474,0.9527,0.9543,0.9616,0.9904,1.0123,1.0297,1.0471,1.0841,1.1034,1.0747,1.0403,0.0,0.0,1.0879,1.0837,0.0,0.0,0.0,0.0,0.0,0.0,0.0,0.0,0.0,0.0,0.0,0.0,0.0,0.0,0.0,0.0,0.9039,0.895,0.8824,0.8767,0.8682,0.8612,0.8612,0.8612,0.8612,0.8428,0.8428,0.8568,0.8164,0.794,0.79,0.7591,0.7323,0.7095,0.7095,0.7095,0.7095,0.7095,0.7095,0.7095,0.7095,0.7095,0.7095,0.7095,0.7095,0.7095,0.7095,0.7095,0.7051,0.6925,0.67,0.6163,0.4601,0.3757,0.3092,0.2107,0.1883,0.1704,0.1032,0.0673,0.0449,0.0449,0.0225,0.0,0.0,0.0,0.0,0.0,0.0,0.0,0.0,0.0,0.0,0.0,0.0,0.0,0.0,0.0,0.0,0.0,-0.0118,-0.0196,-0.0196,-0.0811,-0.1185,-0.1262,-0.1991,-0.2379,-0.2367,-0.265,-0.2775,-0.2845,-0.3251,-0.3487,0.7241,0.8222,0.9141,0.9311,0.9404,0.9547,1.009,1.0208,1.0314,1.0822,1.1181,1.1241,1.0797,1.0748,0.0,1.1695,1.1188,1.098,0.0,0.0,0.0,0.0,0.0,0.0,0.0,0.0,0.0,0.0,0.0,0.0,0.0,0.0,0.0,0.0,0.8913,0.882,0.882,0.8653,0.8612,0.8612,0.8612,0.8612,0.8612,0.8612,0.8612,0.8568,0.8336,0.8072,0.7896,0.7591,0.7323,0.7095,0.7095,0.7095,0.7095,0.7095,0.7095,0.7095,0.7095,0.7095,0.7095,0.7095,0.7095,0.7095,0.7095,0.7095,0.7095,0.7095,0.6966,0.6748,0.6476,0.5364,0.4074,0.3135,0.2911,0.2911,0.2911,0.2107,0.1436,0.1436,0.0673,0.0045,0.0,0.0,0.0,0.0,0.0,0.0,0.0,0.0,0.0,0.0,0.0,0.0,0.0,0.0,0.0,0.0,0.0,0.0,0.0,0.0,-0.0079,-0.0275,-0.1137,-0.1607,-0.1672,-0.2469,-0.2791,-0.2678,-0.2678,-0.2678,0.6155,0.7022,0.7925,0.8335,0.8908,0.951,0.9922,1.0074,1.0382,1.1171,1.1345,1.1437,1.148,1.1056,0.0,1.1231,1.095,0.0,0.0,0.0,0.0,0.0,0.0,0.0,0.0,0.0,0.0,0.0,0.0,0.0,0.0,0.0,0.0,0.0,0.867,0.8641,0.8641,0.8637,0.8612,0.8612,0.8612,0.8612,0.8612,0.8612,0.8612,0.8612,0.852,0.834,0.8113,0.7852,0.7499,0.7139,0.7323,0.7279,0.7095,0.7095,0.7095,0.7095,0.7095,0.7095,0.7095,0.7095,0.7095,0.7095,0.7095,0.7095,0.7095,0.7095,0.6966,0.6795,0.6704,0.6124,0.528,0.4164,0.3896,0.376,0.3221,0.2864,0.2685,0.2685,0.2462,0.1971,0.1122,0.0987,0.0763,0.009,0.0,0.0,0.0,0.0,0.0,0.0,0.0,0.0,0.0,0.0,0.0,0.0,0.0,0.0,0.0,0.0,-0.0039,-0.0079,-0.0353,-0.0498,-0.051,-0.0728,-0.0921,-0.1008,-0.1411,-0.1611,0.528,0.6295,0.7333,0.8209,0.8848,0.9375,0.9657,1.0008,1.0458,1.1048,1.1241,1.1341,1.1494,1.1176,0.0,1.1203,0.0,0.0,0.0,0.0,0.0,0.0,0.0,0.0,0.0,0.0,0.0,0.0,0.0,0.0,0.0,0.0,0.0,0.0,0.8612,0.8612,0.8612,0.8539,0.8502,0.8498,0.8381,0.8349,0.8349,0.8426,0.8502,0.8459,0.8372,0.8198,0.8006,0.7931,0.7599,0.7189,0.7342,0.732,0.7142,0.7054,0.7048,0.7095,0.7095,0.7095,0.7095,0.7095,0.7095,0.7095,0.7095,0.7095,0.7085,0.7028,0.6927,0.6786,0.6641,0.6449,0.6104,0.5312,0.5055,0.4921,0.4556,0.4198,0.3931,0.3931,0.3618,0.3084,0.2238,0.2105,0.1881,0.1256,0.1166,0.1166,0.1166,0.0808,0.0535,0.0567,0.0213,0.0,0.0,0.0,0.0,0.0,0.0,0.0,0.0,0.0,0.0,0.0,0.0,0.0,0.0,0.0,-0.007,-0.0202,-0.0505,-0.0706,0.4434,0.5591,0.6866,0.842,0.9004,0.9206,0.9396,1.0021,1.0547,1.053,1.0881,1.1134,1.1116,1.116,1.1283,0.0,0.0,0.0,0.0,0.0,0.0,0.0,0.0,0.0,0.0,0.0,0.0,0.0,0.0,0.0,0.0,0.0,0.0,0.0,0.8611,0.8559,0.8559,0.8349,0.8264,0.0,0.8093,0.8012,0.802,0.8187,0.8264,0.8264,0.8013,0.7838,0.7714,0.7857,0.7675,0.7296,0.7317,0.7243,0.7158,0.6991,0.699,0.7055,0.7099,0.7099,0.7058,0.7071,0.7078,0.7078,0.7092,0.7088,0.7051,0.6923,0.6886,0.6813,0.647,0.6496,0.6584,0.6489,0.6302,0.6169,0.6387,0.5758,0.5176,0.5176,0.4461,0.3794,0.3441,0.3352,0.3264,0.2999,0.2956,0.2955,0.2948,0.2145,0.1551,0.1558,0.0721,0.0166,0.0163,0.008,0.0039,0.0039,0.0,0.0,0.0039,0.0,0.0,0.0,0.0,0.0,0.0,0.0,0.0,0.0,0.0,0.0,0.2461,0.3446,0.4715,0.6295,0.8227,0.9689,0.9592,0.9812,1.0057,1.0171,1.0797,1.1294,1.1143,1.1276,1.1411,0.0,0.0,0.0,0.0,0.0,0.0,0.0,0.0,0.0,0.0,0.0,0.0,0.0,0.0,0.0,0.0,0.0,0.0,0.9488,0.8581,0.8134,0.8134,0.8093,0.8073,0.0,0.8032,0.8012,0.8016,0.8052,0.8073,0.8073,0.799,0.7887,0.7694,0.7893,0.7715,0.7285,0.7363,0.725,0.7034,0.6993,0.6892,0.6793,0.6958,0.6916,0.6814,0.6893,0.693,0.6953,0.7061,0.7018,0.6923,0.6896,0.6886,0.6879,0.6803,0.6774,0.6797,0.6912,0.6653,0.6387,0.6656,0.6567,0.6435,0.6435,0.6254,0.5805,0.4776,0.4596,0.433,0.3571,0.3438,0.3374,0.3235,0.3009,0.2837,0.2765,0.2009,0.1419,0.1267,0.063,0.0236,0.0236,0.0079,0.0079,0.0236,0.0079,0.0,0.0,0.0,0.0,0.0,0.0,0.0,0.0,0.0,0.0,0.2325,0.2982,0.399,0.61,0.7818,0.9076,0.9496,0.9697,0.9838,0.999,1.0525,1.0983,1.1133,1.1264,0.0,0.0,0.0,0.0,0.0,0.0,0.0,0.0,0.0,0.0,0.0,0.0,0.0,0.0,0.0,0.0,0.0,1.0705,1.0329,0.9877,0.9376,0.8946,0.8587,0.8896,0.8845,0.8483,0.8391,0.8114,0.7764,0.7854,0.7845,0.7764,0.7854,0.7801,0.7617,0.7902,0.7752,0.7413,0.7413,0.7326,0.7163,0.7078,0.7003,0.6992,0.6985,0.6943,0.6847,0.6878,0.6836,0.6848,0.695,0.6943,0.6856,0.6753,0.6817,0.6852,0.6749,0.679,0.685,0.6903,0.6733,0.6656,0.6877,0.6922,0.6922,0.6922,0.6922,0.6697,0.5983,0.5711,0.5429,0.4989,0.4826,0.4719,0.4676,0.4246,0.391,0.3816,0.2997,0.229,0.1767,0.1684,0.1293,0.051,0.0746,0.0785,0.0471,0.0233,0.0115,0.0,0.0,0.0,0.0,0.0,0.0,0.0,0.0,0.0,0.2636,0.3102,0.3902,0.6459,0.7511,0.829,0.9369,0.9579,0.9669,0.9927,1.019,1.0556,1.1047,0.0,0.0,0.0,0.0,0.0,0.0,0.0,0.0,0.0,0.0,0.0,0.0,0.0,0.0,0.0,0.0,0.0,1.22,1.179,1.1181,1.0403,1.0379,1.0037,0.933,0.9862,0.9787,0.9087,0.8727,0.8217,0.7488,0.7649,0.7641,0.7492,0.7686,0.7665,0.7504,0.7801,0.7748,0.7496,0.7407,0.7351,0.7359,0.7196,0.7159,0.7197,0.7026,0.6944,0.6928,0.6842,0.6763,0.6695,0.6832,0.6866,0.6844,0.6614,0.6732,0.6829,0.6617,0.6756,0.6883,0.6776,0.6757,0.6838,0.6984,0.7021,0.7028,0.7055,0.7082,0.7044,0.6848,0.6549,0.6387,0.6474,0.6297,0.6176,0.6244,0.5474,0.491,0.4879,0.4021,0.3154,0.2431,0.2854,0.254,0.1176,0.1724,0.1803,0.1099,0.0881,0.0604,0.0301,0.011,0.0,0.0,0.0,0.0,0.0,0.0,0.0,0.1669,0.2713,0.4129,0.5782,0.7073,0.8205,0.9341,0.9579,0.9633,0.0,1.0148,1.0511,0.0,0.0,0.0,0.0,0.0,0.0,0.0,0.0,0.0,0.0,0.0,0.0,0.0,0.0,0.0,0.0,0.0,0.0,1.3233,1.2904,1.2538,1.199,1.0838,1.01,0.9802,0.9884,0.9766,0.9416,0.8507,0.7873,0.748,0.7354,0.7366,0.7484,0.7547,0.7504,0.7488,0.7533,0.7525,0.7488,0.7281,0.7215,0.7215,0.7215,0.7072,0.6971,0.6928,0.6815,0.6649,0.6565,0.6559,0.6556,0.6844,0.6834,0.6749,0.6844,0.6856,0.6876,0.6836,0.6947,0.7031,0.6889,0.6886,0.6879,0.6787,0.6759,0.68,0.6886,0.7011,0.7058,0.6893,0.6957,0.6943,0.6844,0.6794,0.6684,0.6481,0.6351,0.6205,0.6067,0.5263,0.4628,0.4338,0.375,0.3281,0.3047,0.2969,0.2969,0.3008,0.2713,0.2242,0.1572,0.0536,0.0,0.0,0.0,0.0,0.0,0.0,0.0,0.1422,0.2063,0.3063,0.443,0.5339,0.6351,0.8147,0.8553,0.8726,0.9458,0.9793,0.9992,0.0,0.0,0.0,0.0,0.0,0.0,0.0,0.0,0.0,0.0,0.0,0.0,0.0,0.0,0.0,0.0,0.0,1.3591,1.4193,1.3888,1.3296,1.2454,1.1866,1.1285,1.0763,1.1099,1.0893,1.0166,0.9263,0.8676,0.834,0.7857,0.7586,0.7484,0.7484,0.7484,0.7476,0.7378,0.7338,0.733,0.7154,0.7141,0.7191,0.7191,0.7213,0.7211,0.698,0.6826,0.674,0.6543,0.6536,0.6587,0.6648,0.6713,0.6753,0.6695,0.6732,0.68,0.68,0.6848,0.6858,0.6709,0.6671,0.663,0.6485,0.6583,0.6746,0.6856,0.6937,0.696,0.6896,0.6837,0.6773,0.6797,0.6661,0.6536,0.6518,0.6443,0.6337,0.6146,0.5784,0.5295,0.4697,0.4787,0.4442,0.3526,0.3917,0.3984,0.3634,0.3322,0.3037,0.2706,0.15,0.0692,0.027,0.027,0.027,0.027,0.027,0.0306,0.1369,0.164,0.2157,0.3389,0.3996,0.4806,0.6774,0.0,0.7948,0.0,0.9245,0.0,0.0,0.0,0.0,0.0,0.0,0.0,0.0,0.0,0.0,0.0,0.0,0.0,0.0,0.0,0.0,0.0,0.0,1.3419,1.4496,1.4277,1.3754,1.2847,1.2787,1.2452,1.1781,1.2005,1.1644,1.0683,0.9901,0.9314,0.898,0.8264,0.7803,0.7605,0.7459,0.7384,0.7375,0.7212,0.7155,0.7143,0.7041,0.7066,0.7187,0.7187,0.7334,0.7446,0.7099,0.6942,0.6883,0.6656,0.6617,0.6592,0.6589,0.6678,0.6769,0.6603,0.6614,0.6702,0.6702,0.6702,0.6661,0.6549,0.6511,0.6484,0.6375,0.6519,0.6722,0.68,0.6832,0.6862,0.6827,0.6654,0.6556,0.663,0.6497,0.6378,0.645,0.633,0.6159,0.6003,0.5956,0.5685,0.5031,0.5593,0.5482,0.4303,0.4917,0.5043,0.4457,0.4197,0.3991,0.3803,0.2885,0.1951,0.1122,0.1122,0.1084,0.1043,0.1043,0.1092,0.144,0.1641,0.2066,0.3136,0.3819,0.452,0.5621,0.0,0.7683,0.7534,0.8552,0.0,0.0,0.0,0.0,0.0,0.0,0.0,0.0,0.0,0.0,0.0,0.0,0.0,0.0,0.0,0.0,0.0,0.0,1.3586,1.3655,1.3906,1.3883,1.3634,1.332,1.3046,1.2826,1.2109,1.1394,1.0677,0.988,0.9335,0.8974,0.8113,0.7801,0.7931,0.7298,0.7016,0.7016,0.7004,0.7004,0.7,0.6992,0.7066,0.7187,0.7187,0.7334,0.7484,0.7257,0.7061,0.6903,0.6872,0.676,0.6631,0.6752,0.6802,0.679,0.6692,0.6695,0.6702,0.6702,0.6702,0.6661,0.6549,0.6511,0.6511,0.6504,0.6586,0.6661,0.6562,0.6729,0.6837,0.6546,0.6603,0.6644,0.6545,0.6511,0.6457,0.6327,0.6135,0.6,0.5993,0.5898,0.5831,0.5932,0.599,0.6054,0.6163,0.6215,0.6222,0.618,0.5957,0.5576,0.4934,0.4658,0.3963,0.2787,0.2787,0.2715,0.2577,0.2577,0.2651,0.121,0.1412,0.166,0.224,0.263,0.3149,0.4253,0.4989,0.5586,0.6116,0.0,0.0,0.0,0.0,0.0,0.0,0.0,0.0,0.0,0.0,0.0,0.0,0.0,0.0,0.0,0.0,0.0,0.0,0.0,0.0,1.3253,1.374,1.3887,1.3564,1.333,1.2984,1.2563,1.2206,1.1681,1.1025,1.0646,1.0314,0.9999,0.8755,0.8266,0.8243,0.711,0.6775,0.698,0.6869,0.6816,0.6796,0.6652,0.6725,0.6899,0.7009,0.7163,0.7296,0.7222,0.7142,0.7061,0.6942,0.6945,0.6961,0.69,0.6876,0.6834,0.6797,0.6612,0.6477,0.6529,0.6525,0.6446,0.6388,0.6375,0.6402,0.6494,0.6555,0.6536,0.6521,0.6559,0.66,0.6532,0.648,0.6439,0.6385,0.6375,0.6358,0.6306,0.6252,0.6139,0.6003,0.5942,0.5928,0.5888,0.5936,0.6016,0.6108,0.6245,0.63,0.63,0.6245,0.6061,0.5829,0.5647,0.477,0.3213,0.3213,0.3166,0.3013,0.3013,0.3124,0.1079,0.1191,0.1343,0.1601,0.1854,0.2187,0.3013,0.3666,0.4282,0.4974,0.0,0.0,0.0,0.0,0.0,0.0,0.0,0.0,0.0,0.0,0.0,0.0,0.0,0.0,0.0,0.0,0.0,0.0,0.0,0.0,1.3061,1.3584,1.3718,1.3506,1.3382,1.3042,1.2509,1.227,1.182,1.1212,1.0954,1.078,1.0555,0.9134,0.849,0.8425,0.7003,0.6554,0.68,0.6647,0.6599,0.6578,0.6465,0.653,0.6717,0.6922,0.707,0.7215,0.7275,0.7257,0.718,0.7134,0.7138,0.718,0.7022,0.6984,0.6968,0.677,0.657,0.6394,0.6416,0.6371,0.63,0.63,0.6335,0.6401,0.6419,0.6477,0.6511,0.6511,0.6511,0.6497,0.645,0.6361,0.6282,0.6193,0.6183,0.6166,0.6149,0.6146,0.6067,0.5966,0.5915,0.5932,0.5881,0.5925,0.5939,0.599,0.6125,0.6183,0.6183,0.6183,0.6183,0.6183,0.6034,0.5358,0.4154,0.4154,0.4061,0.3951,0.3951,0.4017,0.0,0.0,0.0,0.1355,0.159,0.1818,0.1954,0.0,0.3791,0.4002,0.0,0.0,0.0,0.0,0.0,0.0,0.0,0.0,0.0,0.0,0.0,0.0,0.0,0.0,0.0,0.0,0.0,0.0,0.0,1.2049,1.2995,1.3341,1.3492,1.3492,1.3492,1.3223,1.2713,1.2233,1.1748,1.1198,1.0791,1.0593,1.053,0.9134,0.849,0.8425,0.7036,0.6416,0.6416,0.642,0.6387,0.6387,0.6387,0.653,0.6708,0.6922,0.7066,0.7207,0.7419,0.7369,0.7261,0.7446,0.7411,0.7261,0.7257,0.7257,0.718,0.6795,0.6676,0.6641,0.6412,0.6377,0.6377,0.6377,0.6525,0.6602,0.6412,0.6448,0.6544,0.6504,0.6504,0.646,0.6317,0.6293,0.6238,0.601,0.5986,0.5969,0.582,0.58,0.5803,0.581,0.581,0.5871,0.5986,0.5895,0.5874,0.599,0.599,0.599,0.6,0.599,0.5986,0.5993,0.5874,0.5728,0.5589,0.5589,0.5545,0.5395,0.5399,0.5481,0.0712,0.0,0.0,0.0,0.0,0.0,0.0,0.0,0.0,0.0,0.0,0.0,0.0,0.0,0.0,0.0,0.0,0.0,0.0,0.0,0.0,0.0,0.0,0.0,0.0,0.0,0.0,0.0,1.043,1.0981,1.184,1.2916,1.3492,1.3492,1.3492,1.3185,1.2555,1.2332,1.1909,1.1273,1.0905,1.0485,0.997,0.8973,0.849,0.8458,0.7587,0.7199,0.7167,0.6613,0.6387,0.6387,0.6387,0.6448,0.653,0.6873,0.702,0.7106,0.7416,0.7446,0.7522,0.8169,0.8322,0.8394,0.8993,0.9069,0.8917,0.8803,0.8575,0.828,0.8093,0.8127,0.8241,0.8241,0.797,0.7668,0.7625,0.7628,0.7433,0.6702,0.6475,0.6349,0.6304,0.6314,0.6186,0.5888,0.5976,0.5999,0.5806,0.58,0.5844,0.5919,0.5929,0.6027,0.6183,0.6054,0.603,0.6186,0.5989,0.5966,0.6186,0.5983,0.5918,0.599,0.5779,0.563,0.5589,0.5589,0.5545,0.5399,0.5508,0.5549,0.0516,0.0736,0.0987,0.1211,0.0,0.0,0.1678,0.18,0.1997,0.0,0.0,0.0,0.0,0.0,0.0,0.0,0.0,0.0,0.0,0.0,0.0,0.0,0.0,0.0,0.0,0.0,0.0,1.0046,1.0157,1.0639,1.1721,1.254,1.3163,1.3492,1.3492,1.3184,1.2499,1.2357,1.1966,1.1303,1.1059,1.0548,0.9773,0.9256,0.8839,0.8458,0.7782,0.7489,0.7461,0.6712,0.6387,0.6387,0.6387,0.6387,0.6453,0.6767,0.6878,0.6922,0.72,0.748,0.779,0.8389,0.8691,0.8948,0.9686,0.975,0.9548,0.9605,0.9372,0.9112,0.8965,0.9036,0.9112,0.9112,0.8917,0.8661,0.8459,0.8585,0.8395,0.7227,0.7211,0.7301,0.7187,0.7195,0.6989,0.6432,0.6448,0.6355,0.5901,0.5881,0.5958,0.6017,0.608,0.6191,0.6286,0.6208,0.6231,0.6327,0.6143,0.6059,0.6218,0.5934,0.5817,0.5844,0.5613,0.5528,0.5528,0.5528,0.5484,0.5395,0.5487,0.5559,0.0324,0.0547,0.0718,0.1031,0.1209,0.0,0.1623,0.1648,0.1751,0.0,0.0,0.0,0.0,0.0,0.0,0.0,0.0,0.0,0.0,0.0,0.0,0.0,0.0,0.0,0.0,0.9249,0.9614,1.0458,1.0319,1.0741,1.209,1.2268,1.2673,1.3455,1.3492,1.3184,1.2499,1.239,1.1999,1.1334,1.1185,1.0674,0.9837,0.9837,0.9384,0.8619,0.8004,0.7749,0.7717,0.6937,0.6548,0.6387,0.6387,0.6387,0.644,0.6611,0.6753,0.6854,0.7033,0.7548,0.8174,0.85,0.8827,0.9235,0.9869,0.9911,0.977,0.9798,0.9728,0.9593,0.953,0.954,0.9599,0.9599,0.9674,0.9648,0.917,0.9421,0.9377,0.8125,0.8386,0.8717,0.8443,0.8404,0.8121,0.7316,0.7222,0.6962,0.6262,0.6267,0.6295,0.6264,0.6413,0.6493,0.644,0.6532,0.6603,0.6623,0.6546,0.6448,0.6348,0.6126,0.598,0.5866,0.5739,0.5657,0.5686,0.5524,0.5428,0.5428,0.5462,0.5524,0.0322,0.041,0.0583,0.0,0.0,0.0,0.1415,0.1442,0.1507,0.0,0.0,0.0,0.0,0.0,0.0,0.0,0.0,0.0,0.0,0.0,0.0,0.0,0.0,0.0,0.0,0.9042,0.9121,0.932,0.9735,1.0343,1.126,1.1966,1.2673,1.3455,1.3492,1.3184,1.2499,1.2485,1.2164,1.1529,1.1341,1.0793,0.9958,0.9958,0.9799,0.955,0.9422,0.9416,0.9442,0.8484,0.7423,0.6387,0.6387,0.6387,0.644,0.6611,0.7057,0.7532,0.7728,0.8247,0.892,0.9635,0.9904,1.0124,1.0896,1.1259,1.1407,1.1249,1.1346,1.1391,1.1028,1.1205,1.1477,1.1477,1.1143,1.0795,1.0662,1.057,1.0317,0.9808,0.9226,0.8744,0.8525,0.8419,0.8275,0.7899,0.7924,0.7969,0.7908,0.7749,0.7535,0.7316,0.7619,0.7644,0.7239,0.7602,0.7886,0.8012,0.7782,0.7754,0.7941,0.7536,0.7359,0.7457,0.7324,0.7316,0.7474,0.6203,0.555,0.555,0.5723,0.5822,0.0,0.0,0.0,0.0709,0.0,0.0,0.0,0.1217,0.1297,0.1607,0.1697,0.1734,0.0,0.0,0.0,0.0,0.0,0.0,0.0,0.0,0.0,0.0,0.0,0.0,0.0,0.8787,0.8864,0.8864,0.9143,0.9652,1.0475,1.126,1.2077,1.2863,1.3309,1.3258,1.2733,1.2565,1.2277,1.1794,1.157,1.0982,1.0148,1.0503,1.037,0.9894,0.9894,0.9926,0.9888,0.864,0.7679,0.6999,0.6581,0.6387,0.6461,0.691,0.7312,0.7664,0.8102,0.8671,0.9327,0.9904,1.0233,1.0511,1.12,1.153,1.1677,1.1724,1.1863,1.1906,1.1654,1.1867,1.215,1.215,1.1825,1.1458,1.1283,1.115,1.0928,1.0476,1.0128,0.9828,0.9586,0.9515,0.9338,0.8823,0.8801,0.8743,0.8476,0.8326,0.8184,0.8078,0.8233,0.8246,0.7981,0.83,0.8521,0.8595,0.8424,0.838,0.8447,0.811,0.7935,0.7935,0.7892,0.7897,0.7994,0.7246,0.6859,0.6789,0.6892,0.6994,0.0,0.0,0.0,0.0,0.0,0.066,0.0,0.0,0.0,0.0,0.0,0.0,0.0,0.0,0.0,0.0,0.0,0.0,0.0,0.0,0.0,0.0,0.0,0.0,0.0,0.8613,0.8703,0.8703,0.8703,0.9046,0.9841,1.0663,1.1484,1.2268,1.3083,1.3338,1.3009,1.2687,1.2324,1.1996,1.1745,1.1209,1.0496,1.1076,1.0951,1.0243,1.0243,1.0275,1.018,0.8576,0.7929,0.7832,0.6806,0.6486,0.6679,0.7297,0.7652,0.7972,0.849,0.9134,0.9753,1.004,1.0354,1.0687,1.1182,1.1309,1.139,1.1637,1.1779,1.1806,1.1752,1.1917,1.2131,1.2131,1.1951,1.1717,1.1442,1.1349,1.1202,1.0767,1.0821,1.0835,1.0633,1.0593,1.0396,0.9811,0.9716,0.9542,0.9036,0.8937,0.8861,0.8809,0.8873,0.8844,0.8716,0.8969,0.9153,0.9153,0.9089,0.9003,0.8909,0.8703,0.8546,0.8452,0.8447,0.8447,0.8511,0.8619,0.8458,0.8021,0.8091,0.8161,0.0,0.0,0.0,0.0,0.0392,0.0,0.0,0.0,0.0782,0.1038,0.0,0.0,0.0,0.0,0.0,0.0,0.0,0.0,0.0,0.0,0.0,0.0,0.0,0.0,0.0,0.0,0.8703,0.8703,0.8703,0.9046,0.9841,1.0663,1.1484,1.2268,1.3083,1.3338,1.3009,1.2687,1.2324,1.1996,1.1745,1.1466,1.1209,1.1466,1.1397,1.1146,1.1146,1.124,1.1272,0.9372,0.8705,0.8705,0.7031,0.6806,0.7391,0.7456,0.8264,0.9294,0.9358,0.9875,1.0466,1.0531,1.0556,1.0653,1.0942,1.1042,1.1049,1.1082,1.1276,1.1416,1.1162,1.1309,1.1489,1.1489,1.1462,1.147,1.1395,1.1223,1.1022,1.0955,1.0794,1.0633,1.06,1.0593,1.0561,1.0491,1.0491,1.052,1.0712,1.0522,1.0232,0.9883,1.0154,1.0104,0.9454,1.0002,1.0385,1.0385,1.0379,1.0379,1.0347,1.0155,1.0047,1.004,1.004,1.0142,1.0301,1.0333,0.9576,0.8178,0.835,0.8458,0.0,0.0,0.0,0.0,0.0,0.0,0.0483,0.0,0.0694,0.0,0.0,0.0,0.0,0.0,0.0,0.0,0.4757,0.0,0.0,0.0,0.0,0.0,0.0,0.0,0.0,0.0,0.0,0.0,0.0,0.9183,0.9852,1.0663,1.1484,1.2268,1.3083,1.3433,1.3294,1.2747,1.2419,1.2273,1.1802,1.156,1.1466,1.156,1.156,1.1466,1.1466,1.1529,1.1498,1.0174,0.9665,0.9633,0.8253,0.7647,0.7587,0.8361,0.9,0.955,0.9977,1.0333,1.0593,1.0593,1.0593,1.0646,1.0909,1.0875,1.0807,1.0949,1.1082,1.1149,1.1022,1.1209,1.1389,1.1389,1.1296,1.1176,1.1176,1.0949,1.0806,1.0863,1.0794,1.0744,1.087,1.0632,1.0478,1.0685,1.0563,1.0532,1.0823,1.0787,1.0633,1.0367,1.0564,1.0555,1.0168,1.0428,1.0593,1.0593,1.0593,1.0593,1.0593,1.053,1.0466,1.0466,1.0466,1.053,1.0593,1.0593,1.0263,0.9608,0.9678,0.9716,0.0,0.0,0.0,0.0,0.0,0.0,0.0,0.0,0.0,0.0,0.0,0.0,0.0,0.0,0.4119,0.4639,0.0,0.5129,0.0,0.0,0.0,0.0,0.0,0.0,0.0,0.0,0.0,0.0,0.8773,0.9039,0.9461,1.0516,1.1372,1.1966,1.2973,1.3492,1.3492,1.2848,1.2485,1.2477,1.1899,1.1591,1.1591,1.1591,1.1591,1.1591,1.1591,1.1591,1.1529,1.0661,1.0307,1.0212,0.9378,0.8672,0.8231,0.9166,0.962,0.9875,1.0396,1.0593,1.0593,1.0593,1.0593,1.0633,1.0873,1.0792,1.064,1.088,1.0908,1.0875,1.0875,1.1029,1.1189,1.1189,1.1062,1.0934,1.0934,1.0836,1.0782,1.087,1.087,1.0933,1.1059,1.0777,1.0609,1.0867,1.0684,1.0616,1.0843,1.087,1.0839,1.0751,1.0807,1.0839,1.0751,1.0688,1.0656,1.0593,1.0593,1.0593,1.0593,1.0593,1.0593,1.0593,1.0512,1.0512,1.0593,1.0432,1.0432,1.0593,1.0593,1.0593,0.0,0.0,0.0,0.1148,0.0,0.0,0.0,0.0,0.2673,0.0,0.0,0.0,0.0,0.4358,0.4641,0.5439,0.5885,0.0,0.0,0.0,0.0,0.0,0.0,0.0,0.0,0.0,0.0,0.8417,0.8408,0.8439,0.8462,1.0122,1.1111,1.1149,1.2673,1.3492,1.3492,1.2848,1.2485,1.2477,1.1899,1.1591,1.1591,1.1591,1.1591,1.1591,1.1591,1.1591,1.1529,1.0661,1.0307,1.0275,1.0047,0.9862,0.9709,0.955,0.9945,1.0561,1.0593,1.0593,1.0593,1.0593,1.0593,1.0624,1.0751,1.0719,1.0624,1.0751,1.0694,1.0606,1.0606,1.0613,1.062,1.062,1.0701,1.0821,1.0821,1.094,1.1097,1.109,1.109,1.109,1.109,1.1083,1.1076,1.109,1.1083,1.1076,1.109,1.109,1.109,1.109,1.109,1.109,1.109,1.0902,1.0744,1.0624,1.0593,1.0593,1.0593,1.0593,1.0593,1.0593,1.0281,1.0274,1.0593,1.0017,1.0037,1.0593,1.0593,1.0593,0.0,0.0,0.1066,0.1914,0.0,0.0,0.0,0.0,0.0,0.0,0.0,0.0,0.0,0.5068,0.5256,0.5732,0.6003,0.6173,0.0,0.0,0.0,0.0,0.0,0.0,0.0,0.0,0.0,0.8197,0.8212,0.8509,0.0,1.0283,1.1217,1.1885,1.2936,1.3492,1.3492,1.2848,1.2485,1.2477,1.1899,1.1591,1.1591,1.1591,1.1591,1.1591,1.1591,1.1591,1.1591,1.1272,1.1178,1.1139,1.0825,1.0762,1.0762,1.0604,1.0643,1.0744,1.0744,1.0681,1.0624,1.0713,1.0744,1.0776,1.0933,1.0965,1.0902,1.0839,1.087,1.0902,1.0776,1.0744,1.0776,1.0902,1.087,1.0839,1.0965,1.1059,1.1122,1.1216,1.124,1.1279,1.1404,1.1435,1.1404,1.1247,1.1031,1.0975,1.1188,1.124,1.1216,1.1122,1.1185,1.1216,1.1122,1.1028,1.0965,1.094,1.094,1.094,1.094,1.094,1.0843,1.0605,1.0502,1.0368,1.0265,1.0058,1.0065,1.0272,1.0508,1.0591,0.1491,0.1713,0.0,0.2788,0.3009,0.0,0.3463,0.0,0.0,0.0,0.0,0.0,0.0,0.0,0.5368,0.5564,0.5715,0.585,0.0,0.5941,0.0,0.0,0.0,0.0,0.0,0.0,0.7962,0.7778,0.7919,0.829,0.0,0.0,1.1118,1.1848,1.2936,1.3492,1.3492,1.2848,1.2485,1.2477,1.1899,1.1591,1.1591,1.1591,1.1591,1.1591,1.1591,1.1591,1.1591,1.1591,1.1591,1.156,1.1279,1.1216,1.1272,1.1059,1.0965,1.0902,1.0839,1.0744,1.0688,1.0776,1.0807,1.0839,1.109,1.1153,1.1069,1.0864,1.0937,1.1031,1.0795,1.0819,1.0933,1.1059,1.1028,1.1028,1.1153,1.1216,1.131,1.1404,1.1577,1.1756,1.1888,1.2104,1.2081,1.149,1.1223,1.1166,1.1375,1.1577,1.1694,1.1608,1.1888,1.2011,1.1856,1.1849,1.1825,1.1794,1.1652,1.1561,1.1561,1.1412,1.136,1.1443,1.1071,1.093,1.1122,1.0764,1.0624,1.0686,1.1173,1.1226]}]]